[[{"header":{"parameterUnit":"m.s-1","parameterCategory":1,"la1":30.6,"la2":28.766,"lo1":-90.7593,"lo2":-88.6598,"dy":0.0162,"dx":0.0183,"nx":116,"ny":114,"refTime":"2023-11-04T00:00:00:Z","depth":0,"parameterNumber":2,"parameterNumberName":"U-component_of_WINDS"},"data":[0.0,0.0,0.0,0.0,0.0,0.0,0.0,0.0,0.0,0.0,0.0,0.0,0.0,0.0,0.0,0.0,0.0,0.0,0.0,0.0,0.0,0.0,0.0,0.0,0.0,0.0,0.0,0.0,0.0,0.0,0.0,0.0,0.0,0.0,0.0,0.0,0.0,0.0,0.0,0.0,0.0,0.0,0.0,0.0,0.0,0.0,0.0,0.0,0.0,0.0,0.0,0.0,0.0,0.0,0.0,0.0,0.0,0.0,0.0,0.0,0.0,0.0,0.0,0.0,0.0,0.0,0.0,0.0,0.0,0.0,0.0,0.0,0.0,0.0,0.0,0.0,0.0,0.0,0.0,0.0,0.0,0.0,0.0,0.0,0.0,0.0,0.0,0.0,0.0,0.0,0.0,0.0,0.0,0.0,0.0,0.0,0.0,0.0,0.0,0.0,0.0,0.0,0.0,0.0,0.0,0.0,0.0,0.0,0.0,0.0,0.0,0.0,0.0,0.0,0.0,0.0,0.0,0.0,0.0,0.0,0.0,0.0,0.0,0.0,0.0,0.0,0.0,0.0,0.0,0.0,0.0,0.0,0.0,0.0,0.0,0.0,0.0,0.0,0.0,0.0,0.0,0.0,0.0,0.0,0.0,0.0,0.0,0.0,0.0,0.0,0.0,0.0,0.0,0.0,0.0,0.0,0.0,0.0,0.0,0.0,0.0,0.0,0.0,0.0,0.0,0.0,0.0,0.0,0.0,0.0,0.0,0.0,0.0,0.0,0.0,0.0,0.0,0.0,0.0,0.0,0.0,0.0,0.0,0.0,0.0,0.0,0.0,0.0,0.0,0.0,0.0,0.0,0.0,0.0,0.0,0.0,0.0,0.0,0.0,0.0,0.0,0.0,0.0,0.0,0.0,0.0,0.0,0.0,0.0,0.0,0.0,0.0,0.0,0.0,0.0,0.0,0.0,0.0,0.0,0.0,0.0,0.0,0.0,0.0,0.0,0.0,0.0,0.0,0.0,0.0,0.0,0.0,0.0,0.0,0.0,0.0,0.0,0.0,0.0,0.0,0.0,0.0,0.0,0.0,0.0,0.0,0.0,0.0,0.0,0.0,0.0,0.0,0.0,0.0,0.0,0.0,0.0,0.0,0.0,0.0,0.0,0.0,0.0,0.0,0.0,0.0,0.0,0.0,0.0,0.0,0.0,0.0,0.0,0.0,0.0,0.0,0.0,0.0,0.0,0.0,0.0,0.0,0.0,0.0,0.0,0.0,0.0,0.0,0.0,0.0,0.0,0.0,0.0,0.0,0.0,0.0,0.0,0.0,0.0,0.0,0.0,0.0,0.0,0.0,0.0,0.0,0.0,0.0,0.0,0.0,0.0,0.0,0.0,0.0,0.0,0.0,0.0,0.0,0.0,0.0,0.0,0.0,0.0,0.0,0.0,0.0,0.0,0.0,0.0,0.0,0.0,0.0,0.0,0.0,0.0,0.0,0.0,0.0,0.0,0.0,0.0,0.0,0.0,0.0,0.0,0.0,0.0,0.0,0.0,0.0,0.0,0.0,0.0,0.0,0.0,0.0,0.0,0.0,0.0,0.0,0.0,0.0,0.0,0.0,0.0,0.0,0.0,0.0,0.0,0.0,0.0,0.0,0.0,0.0,0.0,0.0,0.0,0.0,0.0,0.0,0.0,0.0,0.0,0.0,0.0,0.0,0.0,0.0,0.0,0.0,0.0,0.0,0.0,0.0,0.0,0.0,0.0,0.0,0.0,0.0,0.0,0.0,0.0,0.0,0.0,0.0,0.0,0.0,0.0,0.0,0.0,0.0,0.0,0.0,0.0,0.0,0.0,0.0,0.0,0.0,0.0,0.0,0.0,0.0,0.0,0.0,0.0,0.0,0.0,0.0,0.0,0.0,0.0,0.0,0.0,0.0,0.0,0.0,0.0,0.0,0.0,0.0,0.0,0.0,0.0,0.0,0.0,0.0,0.0,0.0,0.0,0.0,0.0,0.0,0.0,0.0,0.0,0.0,0.0,0.0,0.0,0.0,0.0,0.0,0.0,0.0,0.0,0.0,0.0,0.0,0.0,0.0,0.0,0.0,0.0,0.0,0.0,0.0,0.0,0.0,0.0,0.0,0.0,0.0,0.0,0.0,0.0,0.0,0.0,0.0,0.0,0.0,0.0,0.0,0.0,0.0,0.0,0.0,0.0,0.0,0.0,0.0,0.0,0.0,0.0,0.0,0.0,0.0,0.0,0.0,0.0,0.0,0.0,0.0,0.0,0.0,0.0,0.0,0.0,0.0,0.0,0.0,0.0,0.0,0.0,0.0,0.0,0.0,0.0,0.0,0.0,0.0,0.0,0.0,0.0,0.0,0.0,0.0,0.0,0.0,0.0,0.0,0.0,0.0,0.0,0.0,0.0,0.0,0.0,0.0,0.0,0.0,0.0,0.0,0.0,0.0,0.0,0.0,0.0,0.0,0.0,0.0,0.0,0.0,0.0,0.0,0.0,0.0,0.0,0.0,0.0,0.0,0.0,0.0,0.0,0.0,0.0,0.0,0.0,0.0,0.0,0.0,0.0,0.0,0.0,0.0,0.0,0.0,0.0,0.0,0.0,0.0,0.0,0.0,0.0,0.0,0.0,0.0,0.0,0.0,0.0,0.0,0.0,0.0,0.0,0.0,0.0,0.0,0.0,0.0,0.0,0.0,0.0,0.0,0.0,0.0,0.0,0.0,0.0,0.0,0.0,0.0,0.0,0.0,0.0,0.0,0.0,0.0,0.0,0.0,0.0,0.0,0.0,0.0,0.0,0.0,0.0,0.0,0.0,0.0,0.0,0.0,0.0,0.0,0.0,0.0,0.0,0.0,0.0,0.0,0.0,0.0,0.0,0.0,0.0,0.0,0.0,0.0,0.0,0.0,0.0,0.0,0.0,0.0,0.0,0.0,0.0,0.0,0.0,0.0,0.0,0.0,0.0,0.0,0.0,0.0,0.0,0.0,0.0,0.0,0.0,0.0,0.0,0.0,0.0,0.0,0.0,0.0,0.0,0.0,0.0,0.0,0.0,0.0,0.0,0.0,0.0,0.0,0.0,0.0,0.0,0.0,0.0,0.0,0.0,0.0,0.0,0.0,0.0,0.0,0.0,0.0,0.0,0.0,0.0,0.0,0.0,0.0,0.0,0.0,0.0,0.0,0.0,0.0,0.0,0.0,0.0,0.0,0.0,0.0,0.0,0.0,0.0,0.0,0.0,0.0,0.0,0.0,0.0,0.0,0.0,0.0,0.0,0.0,0.0,0.0,0.0,0.0,0.0,0.0,0.0,0.0,0.0,0.0,0.0,0.0,0.0,0.0,0.0,0.0,0.0,0.0,0.0,0.0,0.0,0.0,0.0,0.0,0.0,0.0,0.0,0.0,0.0,0.0,0.0,0.0,0.0,0.0,0.0,0.0,0.0,0.0,0.0,0.0,0.0,0.0,0.0,0.0,0.0,0.0,0.0,0.0,0.0,0.0,0.0,0.0,0.0,0.0,0.0,0.0,0.0,0.0,0.0,0.0,0.0,0.0,0.0,0.0,0.0,0.0,0.0,0.0,0.0,0.0,0.0,0.0,0.0,0.0,0.0,0.0,0.0,0.0,0.0,0.0,0.0,0.0,0.0,0.0,0.0,0.0,0.0,0.0,0.0,0.0,0.0,0.0,0.0,0.0,0.0,0.0,0.0,0.0,0.0,0.0,0.0,0.0,0.0,0.0,0.0,0.0,0.0,0.0,0.0,0.0,0.0,0.0,0.0,0.0,0.0,0.0,0.0,0.0,0.0,0.0,0.0,0.0,0.0,0.0,0.0,0.0,0.0,0.0,0.0,0.0,0.0,0.0,0.0,0.0,0.0,0.0,0.0,0.0,0.0,0.0,0.0,0.0,0.0,0.0,0.0,0.0,0.0,0.0,0.0,0.0,0.0,0.0,0.0,0.0,0.0,0.0,0.0,0.0,0.0,0.0,0.0,0.0,0.0,0.0,0.0,0.0,0.0,0.0,0.0,0.0,0.0,0.0,0.0,0.0,0.0,0.0,0.0,0.0,0.0,0.0,0.0,0.0,0.0,0.0,0.0,0.0,0.0,0.0,0.0,0.0,0.0,0.0,0.0,0.0,0.0,0.0,0.0,0.0,0.0,0.0,0.0,0.0,0.0,0.0,0.0,0.0,0.0,0.0,0.0,0.0,0.0,0.0,0.0,0.0,0.0,0.0,0.0,0.0,0.0,0.0,0.0,0.0,0.0,0.0,0.0,0.0,0.0,0.0,0.0,0.0,0.0,0.0,0.0,0.0,0.0,0.0,0.0,0.0,0.0,0.0,0.0,0.0,0.0,0.0,0.0,0.0,0.0,0.0,0.0,0.0,0.0,0.0,0.0,0.0,0.0,0.0,0.0,0.0,0.0,0.0,0.0,0.0,0.0,0.0,0.0,0.0,0.0,0.0,0.0,0.0,0.0,0.0,0.0,0.0,0.0,0.0,0.0,0.0,0.0,0.0,0.0,0.0,0.0,0.0,0.0,0.0,0.0,0.0,0.0,0.0,0.0,0.0,0.0,0.0,0.0,0.0,0.0,0.0,0.0,0.0,0.0,0.0,0.0,0.0,0.0,0.0,0.0,0.0,0.0,0.0,0.0,0.0,0.0,0.0,0.0,0.0,0.0,0.0,0.0,0.0,0.0,0.0,0.0,0.0,0.0,0.0,0.0,0.0,0.0,0.0,0.0,0.0,0.0,0.0,0.0,0.0,0.0,0.0,0.0,0.0,0.0,0.0,0.0,0.0,0.0,0.0,0.0,0.0,0.0,0.0,0.0,0.0,0.0,0.0,0.0,0.0,0.0,0.0,0.0,0.0,0.0,0.0,0.0,0.0,0.0,0.0,0.0,0.0,0.0,0.0,0.0,0.0,0.0,0.0,0.0,0.0,0.0,0.0,0.0,0.0,0.0,0.0,0.0,0.0,0.0,0.0,0.0,0.0,0.0,0.0,0.0,0.0,0.0,0.0,0.0,0.0,0.0,0.0,0.0,0.0,0.0,0.0,0.0,0.0,0.0,0.0,0.0,0.0,0.0,0.0,0.0,0.0,0.0,0.0,0.0,0.0,0.0,0.0,0.0,0.0,0.0,0.0,0.0,0.0,0.0,0.0,0.0,0.0,0.0,0.0,0.0,0.0,0.0,0.0,0.0,0.0,0.0,0.0,0.0,0.0,0.0,0.0,0.0,0.0,0.0,0.0,0.0,0.0,0.0,0.0,0.0,0.0,0.0,0.0,0.0,0.0,0.0,0.0,0.0,0.0,0.0,0.0,0.0,0.0,0.0,0.0,0.0,0.0,0.0,0.0,0.0,0.0,0.0,0.0,0.0,0.0,0.0,0.0,0.0,0.0,0.0,0.0,0.0,0.0,0.0,0.0,0.0,0.0,0.0,0.0,0.0,0.0,0.0,0.0,0.0,0.0,0.0,0.0,0.0,0.0,0.0,0.0,0.0,0.0,0.0,0.0,0.0,0.0,0.0,0.0,0.0,0.0,0.0,0.0,0.0,0.0,0.0,0.0,0.0,0.0,0.0,0.0,0.0,0.0,0.0,0.0,0.0,0.0,0.0,0.0,0.0,0.0,0.0,0.0,0.0,0.0,0.0,0.0,0.0,0.0,0.0,0.0,0.0,0.0,0.0,0.0,0.0,0.0,0.0,0.0,0.0,0.0,0.0,0.0,0.0,0.0,0.0,0.0,0.0,0.0,0.0,0.0,0.0,0.0,0.0,0.0,0.0,0.0,0.0,0.0,0.0,0.0,0.0,0.0,0.0,0.0,0.0,0.0,0.0,0.0,0.0,0.0,0.0,0.0,0.0,0.0,0.0,0.0,0.0,0.0,0.0,0.0,0.0,0.0,0.0,0.0,0.0,0.0,0.0,0.0,0.0,0.0,0.0,0.0,0.0,0.0,0.0,0.0,0.0,0.0,0.0,0.0,0.0,0.0,0.0,0.0,0.0,0.0,0.0,0.0,0.0,0.0,0.0,0.0,0.0,0.0,0.0,0.0,0.0,0.0,0.0,0.0,0.0,0.0,0.0,0.0,2.588,0.0,0.0,0.0,0.0,0.0,0.0,0.0,0.0,0.0,0.0,0.0,0.0,0.0,0.0,0.0,0.0,0.0,0.0,0.0,0.0,0.0,0.0,0.0,0.0,0.0,0.0,0.0,0.0,0.0,0.0,0.0,0.0,0.0,0.0,0.0,0.0,0.0,0.0,0.0,1.8049,1.8412,1.9095,1.9697,2.0166,2.0503,0.0,0.0,0.0,0.0,0.0,0.0,0.0,0.0,0.0,0.0,0.0,0.0,0.0,0.0,0.0,0.0,0.0,0.0,0.0,0.0,0.0,0.0,0.0,0.0,0.0,0.0,0.0,0.0,0.0,0.0,0.0,0.0,0.0,0.0,0.0,0.0,0.0,0.0,0.0,0.0,0.0,0.0,0.0,0.0,0.0,0.0,0.0,0.0,0.0,0.0,0.0,0.0,0.0,0.0,0.0,0.0,0.0,0.0,0.0,0.0,0.0,0.0,0.0,0.0,0.0,0.0,0.0,0.0,0.0,0.0,0.0,2.693,0.0,0.0,0.0,0.0,0.0,0.0,0.0,0.0,0.0,0.0,0.0,0.0,0.0,0.0,0.0,0.0,0.0,0.0,0.0,0.0,0.0,0.0,0.0,0.0,0.0,0.0,0.0,0.0,0.0,0.0,0.0,0.0,0.0,0.0,0.0,0.0,0.0,0.0,1.8321,1.8969,2.0524,2.1889,2.22,2.166,2.1158,0.0,0.0,0.0,0.0,0.0,0.0,0.0,0.0,0.0,0.0,0.0,0.0,0.0,0.0,0.0,0.0,0.0,0.0,0.0,0.0,0.0,0.0,0.0,0.0,0.0,0.0,0.0,0.0,0.0,0.0,0.0,0.0,0.0,0.0,0.0,0.0,0.0,0.0,0.0,0.0,0.0,0.0,0.0,0.0,0.0,0.0,0.0,0.0,0.0,0.0,0.0,0.0,0.0,0.0,0.0,0.0,0.0,0.0,0.0,0.0,0.0,0.0,0.0,3.2602,3.3307,3.3641,3.3795,3.3961,3.3981,3.1827,2.9995,2.8548,2.8222,0.0,0.0,0.0,0.0,0.0,0.0,0.0,0.0,0.0,0.0,0.0,0.0,0.0,0.0,0.0,0.0,0.0,0.0,0.0,0.0,0.0,0.0,1.0402,1.1156,1.2026,0.0,0.0,0.0,0.0,0.0,0.0,0.0,0.0,1.7502,1.8381,1.7855,1.9892,2.1703,2.3286,2.4119,2.5196,2.628,2.3781,2.43,2.6833,0.0,0.0,0.0,0.0,0.0,0.0,0.0,0.0,0.0,0.0,0.0,0.0,0.0,0.0,0.0,0.0,0.0,0.0,0.0,0.0,0.0,0.0,0.0,0.0,0.0,0.0,0.0,0.0,0.0,0.0,0.0,0.0,0.0,0.0,0.0,0.0,0.0,0.0,0.0,0.0,0.0,2.4089,2.3263,0.0,0.0,0.0,0.0,0.0,0.0,0.0,0.0,0.0,0.0,0.0,0.0,0.0,3.1582,3.2461,3.5391,3.6224,3.4967,3.7299,3.7632,3.6247,3.7006,3.7751,3.8454,3.8108,0.0,3.1072,2.9569,0.0,0.0,0.0,0.0,0.0,0.0,0.0,0.0,0.0,0.0,0.0,0.0,0.0,0.0,0.0,0.0,0.0,0.0,0.0,0.0,0.0,1.1671,1.2382,1.2767,1.5368,1.6311,0.0,0.0,0.0,0.0,0.0,0.0,1.658,1.7702,1.878,1.9831,2.339,2.5205,2.5414,2.7039,2.8193,2.8812,2.7455,2.7009,2.721,2.5186,0.0,0.0,0.0,0.0,0.0,0.0,0.0,0.0,0.0,0.0,0.0,0.0,0.0,0.0,0.0,0.0,0.0,0.0,0.0,0.0,0.0,0.0,0.0,0.0,0.0,0.0,0.0,0.0,0.0,0.0,0.0,0.0,0.0,0.0,0.0,0.0,0.0,0.0,0.0,2.5195,2.529,2.3901,2.5212,2.5861,0.0,0.0,0.0,0.0,0.0,0.0,0.0,0.0,0.0,3.1074,3.2676,3.4092,3.5301,3.7269,3.8315,3.8415,4.0005,4.0581,4.0312,4.0677,4.1078,4.144,4.144,3.989,3.7133,3.3987,3.2119,3.112,0.0,0.0,0.0,0.0,3.143,3.1657,0.0,0.0,0.0,0.0,0.0,0.0,0.0,0.0,0.0,0.0,0.0,0.0,1.1925,1.3555,1.4747,1.517,1.792,1.8561,1.6003,0.0,0.0,0.0,0.0,1.6118,1.7363,1.8267,2.0068,2.2854,2.6516,2.8189,2.7975,3.0369,3.1465,3.1484,3.1492,3.0425,2.8502,2.6617,2.5834,2.5741,0.0,0.0,0.0,0.0,0.0,0.0,0.0,0.0,0.0,0.0,0.0,0.0,0.0,0.0,0.0,0.0,0.0,0.0,0.0,0.0,0.0,0.0,0.0,0.0,0.0,0.0,0.0,0.0,0.0,0.0,0.0,0.0,0.0,0.0,0.0,0.0,0.0,2.5796,2.6172,2.4219,2.6057,2.6947,0.0,0.0,0.0,0.0,0.0,0.0,3.0762,3.2285,3.3574,3.457,3.5854,3.7175,3.8492,3.9599,4.0743,4.1908,4.2501,4.3113,4.3745,4.3745,4.3745,4.3745,4.3745,4.3363,4.2443,3.8216,3.5701,3.4425,3.3388,3.3128,3.3462,3.4713,3.5168,3.5438,0.0,0.0,0.0,0.0,0.0,0.0,0.0,0.0,0.0,0.0,0.0,1.1964,1.3594,1.533,1.7003,1.8593,1.8177,1.7753,1.758,1.6195,1.5324,1.5209,1.5984,1.6477,1.6553,1.981,2.314,2.6533,2.8287,2.9967,3.159,3.407,3.5224,3.5249,3.5812,3.4942,3.2827,2.8671,2.8222,2.993,2.5833,0.0,0.0,0.0,0.0,0.0,0.0,0.0,0.0,0.0,0.0,0.0,0.0,0.0,0.0,0.0,0.0,0.0,0.0,0.0,0.0,0.0,0.0,0.0,0.0,0.0,0.0,0.0,0.0,0.0,0.0,0.0,0.0,0.0,0.0,0.0,0.0,0.0,0.0,2.3457,2.6836,0.0,0.0,0.0,0.0,3.0524,3.1406,3.2656,3.4355,3.5195,3.6387,3.8086,4.0341,4.1978,4.2868,4.4451,4.5278,4.5355,4.5393,4.5432,4.547,4.547,4.547,4.547,4.547,4.5451,4.5086,4.0856,3.9061,3.8799,3.712,3.6935,3.7698,3.7775,3.7813,3.7836,0.0,0.0,0.0,0.0,0.0,0.0,0.0,0.0,0.0,1.0094,1.1849,1.3728,1.5449,1.8158,2.0306,2.1411,2.2205,2.1933,2.0254,1.91,1.8484,1.8484,1.7742,1.8648,2.1465,2.4387,2.7013,2.9303,3.1533,3.318,3.4282,3.5641,3.6584,3.7123,3.7333,3.7041,3.6102,3.2103,2.9661,2.833,2.6672,2.5355,0.0,0.0,0.0,0.0,0.0,0.0,0.0,0.0,0.0,0.0,0.0,0.0,0.0,0.0,0.0,0.0,0.0,0.0,0.0,0.0,0.0,0.0,0.0,0.0,0.0,0.0,0.0,0.0,0.0,0.0,0.0,0.0,0.0,0.0,0.0,0.0,0.0,2.8984,3.1211,0.0,3.1443,3.22,3.3121,3.4003,3.5449,3.6758,3.7851,3.9238,4.0457,4.1457,4.293,4.4045,4.4738,4.5387,4.5699,4.5586,4.5586,4.5586,4.5586,4.5586,4.5586,4.5586,4.5586,4.5586,4.547,4.3993,4.2725,4.1627,4.0441,4.0159,4.0507,4.108,4.1596,4.2055,0.0,0.0,0.0,0.0,0.0,0.0,0.0,0.0,0.0,1.0907,1.3001,1.5427,1.8045,2.0862,2.3017,2.413,2.4424,2.3581,2.1273,2.0062,1.9292,1.9023,1.9076,2.089,2.4682,2.7337,2.9771,3.2056,3.3977,3.5456,3.6526,3.7238,3.8027,3.8854,3.9142,3.9277,3.9127,3.658,3.3184,2.9444,2.8372,2.7462,2.6564,0.0,0.0,0.0,0.0,0.0,0.0,0.0,0.0,0.0,0.0,0.0,0.0,0.0,0.0,0.0,0.0,0.0,0.0,0.0,0.0,0.0,0.0,0.0,0.0,0.0,0.0,0.0,0.0,0.0,0.0,0.0,0.0,0.0,0.0,3.0427,3.2598,3.3008,3.5019,3.6152,3.5566,3.6009,3.6674,3.7558,3.9004,4.0293,4.1328,4.2483,4.3413,4.4068,4.4684,4.5336,4.6026,4.5834,4.5834,4.6046,4.5738,4.5586,4.5586,4.5586,4.5586,4.5586,4.5586,4.5586,4.5586,4.5586,4.5124,4.4301,4.3421,4.3075,4.3152,4.3726,4.4282,4.4741,0.0,0.0,0.0,0.0,0.0,0.0,0.0,0.0,1.0845,1.2525,1.4279,1.6999,2.1247,2.3274,2.5012,2.6656,2.4393,2.221,2.0619,1.8734,1.7356,1.6683,2.0025,2.3155,2.5807,2.8424,3.1406,3.4746,3.5446,3.6658,3.8349,3.8988,3.9738,4.0566,4.1431,4.1816,4.1854,4.1854,3.8843,3.3868,3.1115,3.0449,3.0782,0.0,0.0,0.0,0.0,0.0,0.0,0.0,0.0,0.0,0.0,0.0,0.0,0.0,0.0,0.0,0.0,0.0,0.0,0.0,0.0,0.0,0.0,0.0,0.0,0.0,0.0,0.0,0.0,0.0,0.0,0.0,0.0,0.0,2.9564,3.3267,3.5722,3.5019,3.7949,3.9375,3.7695,3.8945,4.0215,4.1054,4.1913,4.3085,4.4648,4.473,4.5049,4.5776,4.568,4.6026,4.6889,4.6046,4.6046,4.6889,4.6026,4.5605,4.5624,4.5624,4.5643,4.568,4.568,4.5643,4.5624,4.568,4.6142,4.6775,4.593,4.5605,4.5624,4.5605,4.5586,4.5586,0.0,0.0,0.0,0.0,0.0,0.0,0.0,0.0,1.1684,1.3425,1.5745,1.8415,2.1445,2.3892,2.5733,2.6776,2.3906,2.2344,2.3113,1.9191,1.7857,2.016,2.4215,2.7368,2.9423,3.1971,3.4062,3.5644,3.6952,3.8141,3.9242,3.9277,4.0065,4.145,4.17,4.2162,4.2739,4.2739,4.1165,3.8447,3.568,3.3612,3.2027,0.0,0.0,0.0,0.0,0.0,0.0,0.0,0.0,0.0,0.0,0.0,0.0,0.0,0.0,0.0,0.0,0.0,0.0,0.0,0.0,0.0,0.0,0.0,0.0,0.0,0.0,0.0,0.0,0.0,0.0,0.0,3.2348,3.3899,3.3266,3.5836,3.8419,4.0077,4.1699,4.2715,4.2871,4.3203,4.3544,4.3877,4.4531,4.5103,4.5546,4.5517,4.5547,4.5643,4.5605,4.6026,4.6889,4.6032,4.6032,4.6889,4.6026,4.593,4.6544,4.6544,4.6852,4.7409,4.7409,4.7082,4.6583,4.7178,4.6833,4.593,4.5699,4.5988,4.6467,4.5834,4.5586,4.5586,0.0,0.0,0.0,0.0,0.0,0.0,0.0,0.0,1.1785,1.426,1.6573,1.9249,2.2535,2.4254,2.5349,2.5801,2.3309,2.1662,2.1562,1.9065,1.9464,2.3648,2.6637,2.9551,3.2422,3.4297,3.6035,3.7637,3.8458,3.9275,4.0123,4.0277,4.1066,4.2354,4.2701,4.3335,4.4143,4.4143,4.3566,4.2473,4.0495,3.8182,3.5741,3.4194,3.3445,3.2976,3.1174,3.12,3.168,2.906,0.0,0.0,0.0,0.0,0.0,0.0,0.0,0.0,0.0,0.0,0.0,0.0,0.0,0.0,0.0,0.0,0.0,0.0,0.0,0.0,0.0,0.0,0.0,0.0,3.5566,3.778,3.8339,3.9705,4.1325,4.3189,4.4139,4.4824,4.5332,4.5273,4.5255,4.5327,4.5654,4.5833,4.5772,4.6118,4.6238,4.6142,4.6467,4.7082,4.7927,4.7069,4.7069,4.7927,4.7062,4.6908,4.739,4.7393,4.7663,4.8105,4.8105,4.7835,4.7432,4.791,4.7756,0.0,0.0,0.0,0.0,0.0,4.5586,4.5586,0.0,0.0,0.0,0.0,0.0,0.0,0.0,0.0,1.1562,1.4944,1.6831,1.9375,2.3398,2.4004,2.4156,2.4252,2.2524,2.0468,1.8183,1.9169,2.1919,2.6611,2.817,3.0779,3.4765,3.5898,3.7578,3.9902,3.9784,4.015,4.095,4.1527,4.2316,4.3278,4.3989,4.4778,4.5586,4.5586,4.5586,4.5528,4.4761,4.2975,4.0537,3.817,3.8108,3.8892,3.5738,3.4194,3.3379,3.1668,0.0,0.0,0.0,0.0,0.0,0.0,0.0,0.0,0.0,0.0,0.0,0.0,0.0,0.0,0.0,0.0,0.0,0.0,0.0,0.0,0.0,0.0,0.0,0.0,3.8691,4.1172,4.3633,4.3996,4.4243,4.4876,4.5507,4.5909,4.5909,4.5929,4.5904,4.5808,4.5971,4.5975,4.5772,0.0,0.0,0.0,0.0,4.8524,4.939,4.8529,4.8529,4.939,4.8524,4.8158,4.8255,4.826,4.8298,4.8395,4.8395,4.8356,4.826,4.8354,4.8854,4.9452,4.8587,4.7222,4.5757,4.5757,4.568,4.5586,0.0,0.0,0.0,0.0,0.0,0.0,0.0,0.0,1.2226,1.4962,1.6262,1.7793,2.0039,2.1543,2.2636,2.3299,2.1104,1.9464,1.8987,2.2332,2.511,2.681,3.1103,3.4177,3.5703,3.7988,3.9394,3.9902,4.0349,4.1013,4.1848,4.1822,4.2607,4.4088,4.4239,4.4778,4.5586,4.5586,4.5586,4.5586,4.5413,4.4224,4.246,4.128,4.0181,3.9123,3.7757,3.8454,3.9557,3.6512,3.6166,3.6536,3.3641,3.0606,0.0,0.0,0.0,0.0,0.0,0.0,0.0,0.0,0.0,0.0,0.0,0.0,0.0,0.0,0.0,0.0,0.0,0.0,0.0,3.9629,4.1758,4.3594,4.5371,4.6134,4.6352,4.5911,4.5885,4.5896,4.5896,4.6433,4.653,4.5928,4.6978,4.7376,4.6754,4.7467,4.7873,4.7857,4.803,4.851,4.9394,4.8529,4.8529,4.9394,0.0,0.0,4.9144,4.9144,4.9548,5.0202,5.0202,4.9798,4.9202,4.9913,5.0298,5.0356,4.949,4.8125,4.6641,4.6641,4.62,4.5586,0.0,0.0,0.0,0.0,0.0,0.0,0.0,1.0766,1.1621,1.3778,1.4837,1.6055,1.7812,1.918,1.9922,1.9902,1.8698,1.8846,2.0954,2.354,2.6357,2.9369,3.2846,3.5527,3.7266,3.9004,4.0081,4.0451,4.071,4.1271,4.2055,4.2588,4.3374,4.4318,4.4759,4.5182,4.5586,4.5586,4.5586,4.5586,4.5586,4.5105,4.4301,4.3874,4.3181,4.2335,4.147,4.172,4.2066,3.9469,3.8623,3.82,3.5641,3.3012,3.0535,0.0,0.0,0.0,0.0,0.0,0.0,0.0,0.0,0.0,0.0,0.0,0.0,0.0,0.0,3.332,3.5078,0.0,4.0059,4.2676,4.4902,4.6562,4.7305,4.767,4.7542,4.6641,4.6467,4.6564,4.6966,4.6966,4.695,4.701,4.768,4.7948,4.7586,4.8316,4.874,4.8741,4.9163,4.9625,5.0048,4.9625,4.9625,5.0029,4.9413,4.9433,5.0029,4.9836,5.0086,5.0702,5.0702,5.0452,5.0067,5.051,5.0702,5.0664,5.0221,4.9279,4.8066,4.7218,4.6621,4.618,0.0,0.0,0.0,0.0,0.0,0.0,0.0,0.0,0.0,1.2345,1.3315,1.4453,1.6016,1.6973,1.7285,1.6758,1.7316,1.9218,2.2792,2.4514,2.7393,3.193,3.4254,3.6445,3.8555,3.9766,4.0671,4.1258,4.1335,4.1749,4.2431,4.3489,4.4179,4.4586,4.5278,4.5586,4.5586,4.5586,4.5586,4.5586,4.5586,4.5586,4.5586,4.5586,4.5586,4.549,4.4605,4.3566,4.2431,4.1354,3.9777,3.8065,3.7046,3.543,3.3353,3.0641,2.9478,0.0,0.0,0.0,0.0,0.0,0.0,0.0,0.0,3.0215,3.1582,3.334,3.4902,3.6719,3.9141,4.1406,4.3535,4.5449,4.75,4.8808,4.8672,4.87,4.8391,4.7565,4.7257,4.739,4.8043,4.7679,4.7586,4.8049,4.8412,4.8546,4.8356,4.9317,4.9817,4.9663,5.0491,5.0875,5.0702,5.0702,5.0702,5.0702,5.0529,5.0544,5.0692,5.0545,5.0529,5.0702,5.0702,5.0702,5.0702,5.0702,5.0702,5.0702,5.0702,5.0279,4.9471,4.7951,4.7276,4.7043,0.0,0.0,0.0,0.0,0.0,0.0,0.0,0.0,0.0,1.1501,1.2455,1.3379,1.4297,1.5176,1.5957,1.6641,1.9477,2.1752,2.3008,2.6756,2.99,3.2086,3.6035,3.8301,3.8594,4.0918,4.2128,4.2155,4.2799,4.3374,4.3878,4.4128,4.4684,4.5451,4.5547,4.5586,4.5586,4.5586,4.5586,4.5586,4.5586,4.5586,4.5586,4.5586,4.5586,4.549,4.4605,4.2777,4.0989,4.2354,4.1181,3.9373,4.0681,3.9411,3.6771,3.3449,3.0879,2.8714,2.6949,2.7208,2.8375,2.997,3.0434,3.1701,0.0,3.6855,3.6934,3.8672,3.9805,4.1016,4.2793,4.4004,4.5527,4.8047,4.8613,4.8672,4.8535,4.9077,4.9394,4.9164,4.8431,4.7985,4.8081,4.872,4.8837,4.8145,4.9529,5.0067,4.9298,5.076,5.1279,5.0567,5.1337,5.1414,5.0702,5.0702,5.0702,5.0702,5.1376,5.1339,5.0711,5.1395,5.1318,5.0702,5.0702,5.0702,5.0702,5.0702,5.0702,5.0702,5.0702,5.0644,5.0433,4.9471,4.8624,4.7946,0.0,0.0,0.0,0.0,0.0,0.0,0.0,0.0,0.0,0.0,0.0,1.1719,1.2559,1.3848,1.498,1.5879,1.7704,2.0055,2.2912,2.6193,2.9492,3.2754,3.6562,3.8594,3.8594,4.1094,4.2323,4.2182,4.3265,4.3878,4.4011,4.472,4.5257,4.5586,4.5586,4.5586,4.5586,4.5586,4.5586,4.5586,4.5586,4.5586,4.549,4.4509,4.3438,4.2426,4.2184,4.1104,0.0,3.9469,3.9008,3.8584,3.8777,3.7777,3.5872,3.2449,3.1049,3.0463,2.9813,2.9969,3.0634,3.1941,3.3437,3.5162,3.7342,3.8359,3.9297,4.0996,4.2851,4.4531,4.5742,4.7109,4.8359,4.9375,4.9883,5.0083,4.9916,4.9737,4.9567,4.9413,4.8625,4.849,4.9509,4.9029,4.8894,4.9567,5.0298,5.0741,5.0856,5.153,5.1991,5.2143,5.2472,5.2262,5.1395,5.1395,5.1395,5.1376,5.1029,5.1315,5.2134,5.1743,5.178,5.2127,5.1626,5.1684,5.2107,5.1607,5.1703,5.2088,5.1607,5.1395,5.1241,4.9894,4.9164,4.8778,0.0,0.0,0.0,0.0,0.0,0.0,0.0,0.0,0.0,0.0,0.0,0.0,0.0,1.3594,1.4707,1.5332,1.6403,1.8548,2.2153,2.5046,2.8327,3.2168,3.5664,3.7754,3.8223,4.0762,4.2207,4.2469,4.3665,4.4299,4.4393,4.5199,4.5603,4.5586,4.5586,4.5586,4.5586,4.5586,4.5586,4.5586,4.5586,4.5316,4.472,4.2975,4.0989,3.9178,3.9384,3.83,3.6656,3.5897,3.5757,3.593,3.5988,3.5622,3.4564,3.1621,3.0891,3.1064,3.1366,3.2038,3.2978,3.4322,3.6674,3.8809,3.9258,4.0566,4.207,4.3535,4.5156,4.6562,4.7441,4.8808,4.9824,4.998,5.0627,5.1072,5.0911,5.0106,4.951,4.9394,4.8433,4.8452,5.0182,4.9202,4.9087,5.0587,5.0702,5.0952,5.1549,5.2011,5.2432,5.2831,5.3068,5.278,5.1914,5.1895,5.1896,5.1896,5.1491,5.199,5.3163,5.2124,5.2087,5.28,5.2164,5.2261,5.2801,5.2299,5.2472,5.2993,5.2453,5.2261,5.2069,5.0625,4.9952,4.9683,0.0,0.0,0.0,0.0,0.0,0.0,0.0,0.0,0.0,0.0,0.0,0.0,0.0,0.0,1.5371,1.5391,1.6914,1.8639,2.0469,2.3753,2.6838,2.9492,3.2969,3.5605,3.7305,3.9902,4.1933,4.3352,4.424,4.4972,4.5547,4.5566,4.5586,4.5586,4.5586,4.5586,4.5586,4.5586,4.5586,4.5586,4.5586,4.4624,4.2953,4.1031,3.872,3.6539,3.6738,3.404,3.0652,3.243,3.1948,3.1064,3.3506,3.4257,3.3891,3.2179,3.0525,2.9467,3.0304,3.239,3.493,3.7434,4.0125,4.2578,4.4199,4.5371,4.6367,4.7266,4.6836,4.6562,4.7441,4.8223,4.9023,4.9863,5.0508,5.0895,5.0895,5.0029,4.9394,4.9408,4.7946,4.7601,4.9273,4.9375,4.974,5.0625,5.0702,5.0702,5.0741,5.2277,5.2792,5.1984,5.2754,5.2773,5.1907,5.1914,5.1896,5.1915,5.3587,5.3953,5.3205,5.2758,5.2329,5.1945,5.1907,5.1931,5.1973,5.2412,5.26,5.2658,5.3003,5.3164,5.3051,5.2165,5.1318,5.0664,0.0,0.0,0.0,0.0,0.0,0.0,0.0,0.0,0.0,0.0,0.0,0.0,0.0,0.0,0.0,0.0,1.5879,1.7184,1.9556,2.2355,2.5109,2.7734,3.1172,3.3848,3.5547,3.7578,3.963,4.1669,4.2541,4.3893,4.5601,4.5007,4.5047,4.5586,4.5586,4.5586,4.5586,4.5586,4.4861,4.3637,4.3043,4.1705,3.9757,3.69,3.449,3.2429,0.0,2.9882,2.9034,2.8637,2.8452,2.8531,2.9658,2.9927,2.9826,2.9944,2.9987,3.0568,3.3183,3.6247,3.9196,4.121,4.3776,4.5959,4.6536,4.6914,4.7051,4.668,4.5957,4.5605,4.6387,4.6738,4.7344,4.8666,4.9534,5.001,4.9913,4.9625,4.899,4.7871,4.7236,4.712,4.7696,4.7741,4.8568,5.0548,5.0164,5.0567,5.2281,5.2897,5.3589,5.4391,5.472,5.4453,5.3628,5.3629,5.3475,5.3163,5.4086,5.4047,5.3219,5.366,5.377,5.3601,5.3008,5.308,5.3596,5.3155,5.3335,5.3832,5.3659,5.3603,5.3549,5.297,5.2587,5.2204,0.0,0.0,0.0,0.0,0.0,0.0,0.0,0.0,0.0,0.0,0.0,0.0,0.0,0.0,0.0,0.0,0.0,1.6191,1.8203,2.048,2.2757,2.5044,2.818,3.0664,3.2383,3.3828,3.5714,3.8112,3.8663,4.0127,4.2431,4.1854,4.222,4.3335,4.3335,4.3508,4.372,4.3054,4.2064,4.0788,3.9452,3.7792,3.5811,3.2915,3.0731,0.0,2.6785,2.6445,2.6902,2.6039,2.6053,2.6464,2.6764,2.7251,2.7948,2.9194,3.0876,3.3138,3.6876,4.0036,4.2772,4.4791,4.6838,4.8311,4.7985,4.793,4.748,4.5918,4.4933,4.4331,4.4197,4.4387,4.509,4.6677,4.7645,4.8472,4.9279,4.9144,4.8663,4.7874,4.7794,4.7792,4.7792,4.7797,4.8471,5.0105,5.0279,5.101,5.2647,5.332,5.4147,5.5241,5.528,5.5032,5.4514,5.4495,5.4411,5.4258,5.442,5.4126,5.3442,5.398,5.4154,5.4007,5.3427,5.3542,5.4007,5.3597,5.374,5.4239,5.4107,5.4046,5.3949,5.308,5.295,5.2992,0.0,0.0,0.0,0.0,0.0,0.0,0.0,0.0,0.0,0.0,0.0,0.0,0.0,0.0,0.0,0.0,0.0,0.0,1.6484,1.8262,2.0014,2.1601,2.4169,2.6387,2.8125,2.8984,3.0625,3.3105,3.3145,3.4327,3.6541,3.6435,3.7334,3.9027,3.9027,3.9469,4.0108,3.8331,3.7517,3.7217,3.5058,3.3199,3.1445,2.9267,2.7607,2.6219,2.4387,2.3937,2.4266,2.4654,2.4879,2.5036,2.5209,2.6619,2.8536,3.0179,3.3253,3.6999,4.0979,4.3519,4.5626,4.7971,4.922,4.962,4.8715,4.8418,4.7654,4.5096,4.3802,4.2646,4.1051,4.1388,4.2499,4.422,4.5188,4.659,4.9048,4.8758,4.8564,4.9317,4.9489,4.9504,4.9485,4.9504,4.9523,4.9523,0.0,5.1896,5.203,5.3606,5.4507,5.4566,5.4566,5.4566,5.4566,5.4507,5.4705,5.5073,5.4662,5.4173,5.3763,5.3763,5.3579,5.3206,5.3206,5.3206,5.3243,5.3616,5.3763,5.3799,5.4289,5.4465,5.4265,5.2724,5.2609,5.3152,0.0,0.0,0.0,0.0,0.0,0.0,0.0,0.0,0.0,0.0,0.0,0.0,0.0,0.0,0.0,0.0,0.0,0.0,1.5684,1.7969,1.949,1.9922,2.238,2.457,2.6328,2.6582,2.791,3.0391,3.1878,3.2737,3.2998,3.2321,3.3263,3.5488,3.5488,3.5888,3.6511,3.6042,3.4883,3.3278,3.2126,3.0518,2.8645,2.6875,2.5991,2.5551,2.4461,2.4229,2.4426,2.4545,2.6012,2.7889,2.8572,3.0561,3.281,3.3885,3.7147,4.077,4.2383,4.562,4.8651,4.9186,5.0043,5.038,4.8861,4.7526,4.5887,4.3221,4.0988,3.936,3.8844,3.9918,4.1629,4.397,4.6095,4.7911,4.9218,5.0278,5.0548,4.9529,5.0491,5.1029,5.043,5.0894,5.126,5.126,5.1106,5.1818,5.374,5.4259,5.4778,5.5395,5.5395,5.5395,5.5395,5.4797,5.4572,5.4662,5.3915,5.3445,5.3353,5.3353,5.3298,5.3206,5.3206,5.3206,5.3225,5.3316,5.3353,5.3371,5.3799,5.3964,5.3981,5.387,5.3996,5.404,0.0,0.0,0.0,0.0,0.0,0.0,0.0,0.0,0.0,0.0,0.0,0.0,0.0,0.0,0.0,0.0,0.0,0.0,0.0,1.7129,1.8164,1.8164,2.0254,2.1889,2.2838,2.3228,2.4261,2.6023,2.7264,2.8058,2.8385,2.7734,2.8837,3.1448,3.1795,3.2135,3.2373,3.1554,3.0229,0.0,0.0,2.6454,2.5397,2.4708,2.4529,2.4618,2.4243,2.4818,2.5909,2.7113,2.8354,2.965,3.1264,3.364,3.6177,3.7786,4.1104,4.4573,4.6109,4.8943,5.1355,5.0903,5.0895,5.0264,4.7411,4.5688,4.3672,3.9925,3.8301,3.718,3.5982,3.7756,4.0014,4.1801,4.4528,4.7125,4.9104,5.0548,5.1298,5.1085,5.224,5.2721,5.1888,5.2546,5.3029,5.3029,5.2626,5.299,5.441,5.4836,5.5241,5.5684,5.5703,5.5703,5.5703,5.4893,5.4487,5.4472,5.3634,5.3206,5.3206,5.3206,5.3206,5.3206,0.0,5.3206,5.3206,5.3206,5.3206,5.3225,5.3427,5.3561,5.3542,5.3427,5.3631,5.3758,0.0,0.0,0.0,0.0,0.0,0.0,0.0,0.0,0.0,0.0,0.0,0.0,0.0,0.0,0.0,0.0,0.0,0.0,0.0,0.0,0.0,1.6699,1.8379,1.9263,1.9204,2.0054,2.0849,2.1526,2.177,2.2485,2.3667,2.3333,2.461,2.7255,2.7948,2.8238,2.8122,2.6488,2.519,2.415,2.2941,2.2433,2.2465,0.0,0.0,2.3676,2.4026,2.5307,2.7346,3.0667,3.1475,3.1556,3.4136,3.6911,3.9629,4.1956,4.498,4.8111,5.0405,5.2273,5.3356,5.2473,5.1548,4.9874,4.5994,4.4115,4.1737,3.657,3.581,3.5437,3.33,3.5597,3.8229,3.9423,4.2258,4.5515,4.9087,5.0317,5.149,5.3178,5.4141,5.4353,5.3601,5.4218,5.4662,5.4662,5.4662,5.4662,5.4662,5.5318,5.5703,5.5703,5.5703,5.5703,5.5703,5.4893,5.4487,5.4472,5.3634,5.3206,5.3206,5.3206,5.3206,5.3206,5.3206,5.3206,5.3206,5.3206,5.3206,5.3206,5.3206,5.3206,5.3091,5.2443,5.259,5.2999,0.0,0.0,0.0,0.0,0.0,0.0,0.0,0.0,0.0,0.0,0.0,0.0,0.0,0.0,0.0,0.0,0.0,0.0,0.0,0.0,0.0,0.0,1.8379,1.9263,1.9204,2.0054,2.0546,2.0641,2.0674,2.0792,2.0966,2.0919,2.188,2.3697,2.3832,2.4188,2.4658,2.434,2.3521,2.2433,2.2199,2.2007,2.1935,0.0,0.0,0.0,2.4478,2.4645,2.5361,3.1609,3.4894,3.6862,3.9565,4.2703,4.5571,4.6692,4.8545,5.0452,5.1452,5.2569,5.32,5.2203,5.1356,5.0297,4.859,4.5912,4.2183,3.6639,3.4113,3.2909,3.2903,3.5117,3.7893,4.0871,4.3019,4.5743,4.9894,5.118,5.2331,5.4064,5.4989,5.5434,5.528,5.5415,5.5491,5.5491,5.5491,5.5491,5.5491,5.5626,5.5703,5.5703,5.5703,5.5703,5.5703,5.4893,5.4487,5.4472,5.3634,5.3206,5.3206,5.3206,5.3206,5.3206,5.3206,0.0,5.3206,5.3206,5.3206,5.3206,5.3206,5.3206,5.3188,5.3036,5.3072,5.317,0.0,0.0,0.0,0.0,0.0,0.0,0.0,0.0,0.0,0.0,1.2886,1.1921,0.0,0.0,0.0,0.0,0.0,0.0,0.0,0.0,0.0,0.0,0.0,0.0,1.7867,1.9581,2.0246,1.9711,0.0,2.0331,2.0312,2.0905,2.176,2.2827,2.3275,2.3362,2.3189,2.3176,2.2274,2.0877,2.1242,2.1393,0.0,0.0,0.0,0.0,2.4645,2.5401,2.6581,3.0802,3.4735,3.8476,4.1994,4.4858,4.7157,4.8411,5.0029,5.1681,5.2915,5.3895,5.4278,5.2913,5.1276,4.9375,4.6907,4.3695,3.9654,3.401,3.1985,3.1295,3.1546,3.4392,3.7095,3.8308,4.0658,4.3824,4.8124,4.9411,5.1058,5.4141,5.5201,5.5703,5.5703,5.5703,5.5703,5.5703,5.5703,5.5703,5.5703,5.5703,5.5895,5.6359,5.6379,5.6379,5.6379,5.5551,5.489,5.4472,5.3634,5.3206,5.3206,5.3206,5.3206,5.3206,5.3206,5.3206,5.3206,5.3206,5.3206,5.3206,5.3206,5.3206,5.3206,5.3206,5.3335,5.3524,0.0,0.0,0.0,0.0,0.0,0.0,0.0,1.2563,1.3295,1.498,1.4397,1.3679,1.3286,1.3018,0.0,0.0,0.0,0.0,0.0,0.0,0.0,0.0,0.0,0.0,0.0,0.0,0.0,1.9109,1.992,0.0,0.0,0.0,0.0,0.0,2.3227,2.3093,2.2364,2.2359,2.14,0.0,0.0,2.0669,0.0,0.0,0.0,0.0,0.0,2.5814,2.7176,2.959,3.3071,3.7084,4.1142,4.4495,4.7142,4.8491,5.0296,5.2272,5.403,5.5089,5.5261,5.339,5.1158,4.8318,4.4117,4.0544,3.6644,3.1453,3.0398,3.0467,3.0641,3.3532,3.5861,3.5757,3.8289,4.1802,4.6282,4.7742,4.9886,5.4007,5.5201,5.5703,5.5703,5.5703,5.5703,5.5703,5.5857,5.5895,5.5703,5.5703,5.6088,5.6953,5.6992,5.7014,5.6994,5.6247,5.541,5.4472,5.3689,5.328,5.3206,5.3206,5.3206,5.3206,5.3206,5.3206,5.3206,5.3206,5.3206,5.3206,5.3206,5.3206,5.3225,5.3298,5.3542,5.381,0.0,0.0,0.0,0.0,0.0,0.0,0.0,1.2142,1.3296,1.4984,1.4276,1.3971,1.4871,1.4263,0.0,0.0,0.0,0.0,0.0,0.0,0.0,0.0,0.0,0.0,0.0,0.0,0.0,1.9098,1.9962,0.0,0.0,0.0,0.0,0.0,0.0,2.1684,2.1589,2.1598,0.0,0.0,0.0,0.0,0.0,0.0,0.0,0.0,0.0,2.4399,2.3993,2.8792,3.0703,3.1716,3.5213,4.1189,4.6932,4.7069,4.9393,5.2272,5.4026,5.5085,5.5105,5.2639,5.0702,4.7885,4.214,3.8215,3.479,3.1141,3.0398,3.0641,3.1434,3.2497,3.3981,3.6227,3.818,4.117,4.6196,4.8282,5.0586,5.4064,5.5201,5.5703,5.5703,5.5703,5.5703,5.5703,5.6417,5.6533,5.5742,5.5703,5.6104,5.6979,5.7017,5.7021,5.6986,5.6575,5.5719,5.4472,5.3989,5.3561,5.3206,5.3206,5.3206,5.3206,5.3206,5.3206,0.0,5.3206,5.3206,5.3206,5.3206,5.3206,5.3243,5.3616,5.3763,5.3869,0.0,0.0,0.0,0.0,0.0,0.0,0.0,1.2747,1.3653,1.6342,1.544,1.4724,1.5144,1.4884,1.4368,0.0,0.0,0.0,0.0,0.0,0.0,0.0,0.0,0.0,0.0,0.0,1.8202,1.7661,1.8482,0.0,0.0,0.0,0.0,0.0,0.0,2.1498,2.1509,2.1503,0.0,0.0,0.0,0.0,0.0,0.0,0.0,0.0,0.0,0.0,2.461,2.6641,2.8357,2.9689,3.004,3.4345,3.9964,4.3573,4.6647,4.9599,5.2831,5.4701,5.5085,5.2521,4.9894,4.6603,4.1624,3.6845,3.2872,3.0833,2.9848,2.9694,3.0717,3.2004,3.3229,3.4249,3.5872,3.8425,4.2483,4.4068,4.6646,5.1619,5.2927,5.4026,5.5549,5.5703,5.5703,5.5703,5.6494,5.686,5.6502,5.6492,5.6879,5.7742,5.728,5.7011,5.6992,5.6611,5.587,5.4844,5.4128,5.3708,5.3561,5.3316,5.3206,5.3206,5.3206,5.3206,0.0,5.3206,5.3206,5.3206,5.3206,5.3353,5.3597,5.3726,5.4131,5.461,0.0,0.0,0.0,0.0,0.0,0.0,1.2719,1.2843,1.3541,1.5905,1.5388,1.4794,1.4798,1.4795,1.4664,1.4374,0.0,0.0,0.0,0.0,0.0,0.0,0.0,0.0,0.0,0.0,1.7441,1.707,1.791,1.875,0.0,0.0,2.0122,2.1201,0.0,0.0,0.0,0.0,0.0,0.0,0.0,0.0,0.0,0.0,0.0,0.0,0.0,0.0,0.0,0.0,0.0,2.7778,2.6591,2.8864,3.3108,3.8823,4.3192,4.6934,5.0429,5.314,5.4391,5.1809,4.8625,4.4938,4.0419,3.5534,3.1533,2.9975,2.9202,2.9056,2.9867,3.1588,3.2909,3.2903,3.4787,3.7233,4.01,4.1675,4.4288,4.9009,5.0506,5.206,5.4353,5.5261,5.5799,5.6071,5.69,5.7495,5.7728,5.7508,5.7668,5.8291,5.7711,5.7266,5.6994,5.6715,5.602,5.4932,5.4289,5.3887,5.3616,5.3335,5.3206,5.3206,5.3206,5.3206,0.0,5.3206,5.3206,5.3225,5.3335,5.3561,5.3829,5.4074,5.4568,5.5105,0.0,0.0,0.0,0.0,0.0,0.0,0.0,1.207,1.2713,1.276,1.3359,1.3837,1.3919,1.3862,1.4199,1.5112,0.0,0.0,0.0,0.0,0.0,0.0,0.0,0.0,0.0,0.0,0.0,1.7988,1.8867,1.9707,2.0488,2.0488,2.0428,2.0312,0.0,0.0,0.0,0.0,0.0,0.0,0.0,0.0,0.0,0.0,0.0,0.0,0.0,0.0,0.0,0.0,0.0,0.0,0.0,2.5996,2.7778,3.2879,3.9206,4.4898,4.6608,5.0178,5.2792,5.0095,4.6855,4.2985,3.7911,3.4126,3.0983,2.8456,2.856,2.9094,2.9113,3.1191,3.2909,3.2903,3.5757,3.8584,4.0254,4.2668,4.4947,4.6731,4.8395,5.0076,5.177,5.4218,5.6071,5.692,5.7788,0.0,5.9431,5.8711,5.8296,5.831,5.8291,5.7863,5.7011,5.6989,5.6162,5.4507,5.4507,5.405,5.3225,5.3206,5.3206,5.3206,5.3206,5.3206,0.0,5.3206,5.3206,5.3243,5.3634,5.3781,5.3883,5.4775,5.5085,5.5143,0.0,0.0,0.0,0.0,0.0,0.0,0.0,1.1064,1.135,1.2545,1.2901,1.3277,1.3846,1.4404,1.4876,1.517,0.0,0.0,0.0,0.0,0.0,0.0,0.0,0.0,0.0,0.0,0.0,0.0,0.0,1.9746,2.0547,1.9902,1.9879,2.035,1.9692,1.9596,0.0,0.0,0.0,0.0,0.0,0.0,0.0,0.0,0.0,0.0,0.0,0.0,0.0,0.0,0.0,0.0,0.0,0.0,0.0,2.8501,3.3596,3.9112,4.1974,4.4578,4.6007,4.3914,4.172,3.903,3.5007,3.1924,2.9538,2.8176,2.8091,2.845,2.901,3.1261,3.3403,3.4499,3.7088,3.9311,4.035,4.2688,4.5156,4.7442,5.1254,5.3918,5.4451,5.5241,5.6071,5.6939,5.7258,5.7793,5.8615,5.8443,5.8293,5.8303,5.7129,5.6398,5.6107,5.6107,5.5857,5.5318,5.4759,5.4363,5.4062,5.3445,5.3206,5.3206,5.3206,5.3206,5.3206,5.3206,5.3353,5.3613,5.3755,5.4154,5.4713,5.499,5.528,5.553,0.0,0.0,0.0,0.0,0.0,0.0,0.0,1.0414,1.061,1.2015,1.2212,1.2633,1.3783,1.4379,1.4837,1.517,0.0,0.0,0.0,0.0,0.0,0.0,0.0,0.0,0.0,0.0,0.0,0.0,0.0,0.0,0.0,0.0,1.9644,2.0364,1.945,1.9339,0.0,0.0,0.0,0.0,0.0,0.0,2.0389,0.0,0.0,0.0,0.0,0.0,0.0,0.0,0.0,0.0,0.0,0.0,0.0,0.0,2.9425,3.316,3.6916,3.9645,4.1084,3.9547,3.7661,3.5426,3.2602,2.999,2.7922,2.7094,2.7189,2.7652,2.8499,3.0525,3.2622,3.4323,3.6765,3.8843,3.9925,4.2556,4.5417,4.8235,5.1952,5.44,5.472,5.5338,5.6071,5.6939,5.7005,5.7382,5.8239,5.7989,5.7796,5.7822,5.6763,5.6032,5.5703,5.5703,5.5626,5.5472,5.497,5.4534,5.4233,5.3671,5.3335,5.3206,5.3206,5.3206,0.0,5.3206,5.3427,5.3806,5.3979,5.4487,5.5105,5.528,5.5299,5.5261,0.0,0.0,0.0,0.0,0.0,0.0,0.0,0.0,0.0,0.0,1.1455,1.2088,1.3632,1.3919,1.432,0.0,0.0,0.0,0.0,0.0,0.0,0.0,0.0,0.0,0.0,0.0,0.0,1.9219,1.8652,1.957,2.1855,0.0,0.0,2.0456,1.9519,0.0,0.0,0.0,0.0,0.0,0.0,0.0,0.0,0.0,0.0,0.0,0.0,0.0,0.0,0.0,0.0,0.0,0.0,0.0,0.0,0.0,0.0,0.0,0.0,3.5117,3.7438,3.642,3.44,3.2201,3.0518,2.8305,0.0,2.5486,2.6044,2.6977,2.7911,2.9452,3.122,3.3149,3.5556,3.774,3.9367,4.2626,4.6044,4.9215,5.1116,5.2425,5.3119,5.472,5.6071,5.6939,5.6947,5.7293,5.8154,5.7362,5.692,5.692,5.692,5.6513,5.5703,5.5703,5.5511,5.5124,5.5105,5.4676,5.3865,5.3829,5.3597,0.0,5.3206,5.3206,5.3206,5.3206,5.3427,5.3842,5.4329,5.4759,5.5124,5.5491,5.5162,5.4586,0.0,0.0,0.0,0.0,0.0,0.0,0.0,0.0,0.0,0.0,0.0,1.2536,1.2946,1.4136,0.0,0.0,0.0,0.0,0.0,0.0,0.0,0.0,0.0,0.0,0.0,0.0,0.0,1.8301,2.0762,2.1953,2.1894,2.1383,0.0,0.0,0.0,0.0,0.0,0.0,0.0,0.0,0.0,0.0,0.0,0.0,0.0,0.0,2.3026,2.4053,0.0,0.0,0.0,0.0,0.0,0.0,0.0,0.0,2.5765,2.5967,2.7024,0.0,3.0447,3.0147,2.9625,2.8877,0.0,2.7036,2.6352,2.5486,2.6516,2.8048,2.9534,3.1306,3.3487,3.6383,3.8644,4.0349,4.1245,4.5457,4.9122,5.1099,5.339,5.4372,5.3313,5.472,5.6071,5.6939,5.6376,5.6395,5.7247,5.6475,5.6013,5.6013,5.6013,5.5895,5.5703,5.5703,5.5645,5.5568,5.5261,5.4837,5.4337,5.3963,5.3597,5.3206,5.3206,5.3206,5.3206,5.3206,5.3427,5.3842,5.4329,5.4759,5.5066,5.4855,5.5047,5.5318,0.0,0.0,0.0,0.0,0.0,0.0,0.0,0.0,0.0,0.0,0.0,0.0,0.0,0.0,0.0,0.0,0.0,0.0,0.0,0.0,0.0,0.0,0.0,0.0,0.0,0.0,0.0,0.0,0.0,2.2168,0.0,0.0,0.0,0.0,0.0,0.0,0.0,0.0,0.0,0.0,1.9858,0.0,0.0,0.0,0.0,0.0,2.34,2.4216,0.0,2.5409,2.5385,2.5326,0.0,0.0,0.0,0.0,2.5447,2.5409,2.5447,2.6454,2.7483,2.7424,2.7399,2.7268,2.6718,2.6294,2.5861,2.5409,2.6381,2.7826,2.9484,3.0963,3.3146,3.6929,3.878,4.0843,4.3962,4.705,4.9865,5.2214,5.3704,5.4495,5.4374,5.5162,5.5895,5.6359,5.5974,5.5895,5.6379,5.5974,5.5703,5.5703,5.5703,5.5703,5.5703,5.5703,5.5703,5.5703,5.5491,5.5143,5.4754,5.4314,5.3897,5.3445,5.328,5.3206,5.3206,5.3206,5.3579,5.4151,5.439,5.4634,5.4797,5.4586,5.4507,5.4489,0.0,0.0,0.0,0.0,0.0,0.0,0.0,0.0,0.0,0.0,0.0,0.0,0.0,0.0,0.0,0.0,0.0,0.0,0.0,0.0,0.0,0.0,0.0,0.0,0.0,0.0,0.0,0.0,0.0,0.0,0.0,0.0,2.1297,0.0,0.0,0.0,0.0,0.0,0.0,0.0,1.9635,0.0,0.0,0.0,0.0,0.0,0.0,0.0,0.0,2.5466,2.5424,2.5365,2.5557,0.0,0.0,0.0,0.0,0.0,2.5543,2.6352,2.7026,2.6593,2.6583,2.6631,2.6429,2.5919,2.5505,2.5505,2.64,2.7691,2.9387,3.0642,3.2728,3.671,3.8539,4.1467,4.7178,4.8644,5.0136,5.2873,5.3417,5.4034,5.5203,5.5549,5.5703,5.5703,5.5703,5.5703,5.5703,5.5703,5.5703,5.5703,5.5703,5.5703,5.5703,5.5703,5.5703,5.5703,5.5703,5.5472,5.5006,5.4664,5.4186,5.3689,0.0,0.0,5.3206,5.3054,5.3427,5.4123,5.4097,5.4169,5.4276,5.4163,5.3757,5.3315,0.0,0.0,0.0,0.0,0.0,0.0,0.0,0.0,0.0,0.0,0.0,0.0,0.0,0.0,0.0,0.0,0.0,0.0,0.0,0.0,0.0,0.0,0.0,0.0,0.0,0.0,0.0,0.0,0.0,0.0,2.2129,2.3207,2.2925,0.0,0.0,0.0,0.0,0.0,0.0,0.0,2.0905,0.0,0.0,0.0,0.0,0.0,0.0,0.0,0.0,2.5466,2.5482,2.5483,2.5635,0.0,0.0,0.0,0.0,0.0,2.6217,2.7566,2.8242,2.6063,2.6069,2.642,2.5658,2.5957,2.64,2.64,2.8222,3.0365,3.2162,3.4404,3.6647,3.87,4.2294,4.6385,5.0894,5.2254,5.2894,5.3165,5.4458,5.4858,5.3697,5.4874,5.5703,5.5703,5.5703,5.5703,5.5703,5.5703,5.5703,5.5703,5.5703,5.5703,5.5703,5.5703,5.5703,5.5703,5.5703,5.5318,5.4583,5.4518,5.4056,5.3298,0.0,5.3206,5.317,5.248,5.2254,5.239,5.237,5.2809,5.3313,5.2568,5.2916,5.3783,0.0,0.0,0.0,0.0,0.0,0.0,0.0,0.0,0.0,0.0,0.0,0.0,0.0,0.0,0.0,0.0,0.0,0.0,0.0,0.0,0.0,0.0,0.0,0.0,0.0,0.0,0.0,0.0,0.0,2.3613,2.3203,2.3424,2.2571,2.0847,0.0,0.0,0.0,0.0,0.0,0.0,0.0,0.0,0.0,0.0,0.0,0.0,0.0,0.0,0.0,0.0,2.5227,2.4823,2.4966,0.0,0.0,0.0,0.0,0.0,2.5842,2.6872,2.7701,2.6983,2.8096,2.9137,2.8251,2.8377,2.8656,2.8643,3.0351,3.2378,3.4122,3.6619,3.9545,4.3043,4.6487,4.9345,5.1241,5.1832,5.2373,5.3109,5.3877,5.4391,5.4547,5.5261,5.5703,5.5703,5.5703,5.5703,5.5703,5.5299,5.5261,5.5684,5.528,5.5261,5.5703,5.5703,5.5703,5.5703,5.5703,5.5395,5.4814,5.46,5.4147,5.3524,0.0,5.2944,5.2535,5.2163,5.188,5.1701,5.2146,5.241,5.2568,5.2589,5.2858,5.3243,0.0,0.0,0.0,0.0,0.0,0.0,0.0,0.0,0.0,0.0,0.0,0.0,0.0,0.0,0.0,0.0,0.0,0.0,0.0,0.0,0.0,0.0,0.0,0.0,0.0,0.0,2.0898,2.1484,2.3437,2.4431,2.4525,2.3422,2.2171,0.0,0.0,0.0,0.0,0.0,0.0,0.0,0.0,0.0,0.0,0.0,0.0,0.0,0.0,0.0,0.0,0.0,0.0,0.0,0.0,0.0,0.0,2.4697,2.4966,2.5505,2.5659,2.64,2.7313,2.8179,2.9447,3.0606,3.0962,3.0865,3.094,3.1711,3.3294,3.4899,3.5988,3.855,4.2101,4.7002,4.9782,5.1407,5.1664,5.187,5.2427,5.3646,5.3797,5.4295,5.5588,5.5703,5.5703,5.5703,5.5703,5.5703,5.5703,5.5105,5.5068,5.5688,5.5107,5.5066,5.5684,5.5703,5.5703,5.5703,5.5703,5.5338,5.4658,5.4555,5.4026,5.3206,5.2999,5.2517,5.1828,5.154,5.1268,5.1043,5.1525,5.1603,5.1495,5.2235,5.2219,5.1935,0.0,0.0,0.0,0.0,0.0,0.0,0.0,0.0,0.0,0.0,0.0,0.0,0.0,0.0,0.0,0.0,0.0,0.0,0.0,0.0,0.0,0.0,0.0,0.0,0.0,2.0918,2.1758,2.4121,2.4258,2.4645,2.5283,2.3662,2.2794,2.2543,0.0,0.0,2.0312,2.0312,2.0723,0.0,0.0,0.0,0.0,0.0,0.0,0.0,0.0,0.0,0.0,0.0,0.0,0.0,0.0,0.0,2.5493,2.5418,2.5409,2.5582,2.64,2.7287,2.821,2.9021,2.8141,2.8088,3.2006,3.2223,3.2486,3.5617,3.7635,3.8656,3.804,4.0768,4.4552,4.8907,5.1067,5.2724,5.4201,5.5047,5.553,5.5511,5.5511,5.5568,5.5684,5.5703,5.5703,5.5703,5.5703,5.5703,5.5703,5.5645,5.563,5.5712,5.563,5.5645,5.5703,5.5703,5.5703,5.5703,5.5703,5.4874,5.3366,5.4146,5.339,5.1511,5.1901,5.1828,5.1274,5.0218,4.9783,4.9691,4.9321,4.9407,4.9722,5.0221,5.0112,4.9857,0.0,0.0,0.0,0.0,0.0,0.0,0.0,0.0,0.0,0.0,0.0,0.0,0.0,0.0,0.0,0.0,0.0,0.0,0.0,0.0,0.0,0.0,0.0,1.9707,2.1855,2.2109,2.2676,2.3594,2.4538,2.4868,2.463,2.34,0.0,0.0,0.0,0.0,2.1039,2.1039,2.1536,2.2381,0.0,0.0,0.0,0.0,0.0,0.0,0.0,0.0,0.0,0.0,2.5312,2.4883,2.4883,2.5161,2.5395,2.485,2.5024,2.5486,2.5842,2.7025,2.8381,2.927,2.9372,3.0203,3.3838,3.5185,3.6307,3.8607,4.0899,4.2775,4.3621,4.5682,4.8145,5.0796,5.2605,5.407,5.5184,5.5588,5.5761,5.5703,5.5703,5.5703,5.5703,5.5703,5.5703,5.5703,5.5703,5.5491,5.497,5.4951,5.4953,5.4956,5.4953,5.4951,5.4951,5.4951,5.4682,5.4161,5.443,5.4237,5.3539,5.2885,5.2265,5.1669,5.1593,5.119,5.0512,5.0115,4.945,4.8822,4.9211,4.9871,5.0685,5.0583,5.0282,4.9958,0.0,0.0,0.0,0.0,0.0,0.0,0.0,0.0,0.0,0.0,0.0,0.0,0.0,0.0,0.0,0.0,0.0,0.0,0.0,0.0,0.0,0.0,0.0,1.9922,2.1465,2.2324,2.2984,2.3472,2.4776,2.4851,2.3755,0.0,0.0,0.0,0.0,0.0,2.1872,2.1342,2.1927,2.3242,2.3573,2.4053,0.0,0.0,0.0,0.0,0.0,0.0,0.0,0.0,2.5293,2.4805,2.4805,2.5137,2.5385,2.4791,2.4985,2.5409,2.5486,2.6622,2.8086,2.9297,3.0625,3.2602,3.6376,3.7901,3.9332,4.2294,4.417,4.5645,4.6891,4.8047,4.9433,5.1375,5.3087,5.4511,5.5549,5.5703,5.5703,5.5703,5.5703,5.5703,5.5703,5.5703,5.559,5.5341,5.5322,5.4974,5.4122,5.4086,5.4086,5.4084,5.4084,5.4084,5.4084,5.4086,5.3799,5.3201,5.3124,5.3066,5.2973,5.2152,5.1635,5.1323,5.1173,5.0727,5.0099,4.9843,4.9136,4.8361,4.897,4.9691,5.0394,5.0098,4.982,4.9617,0.0,0.0,0.0,0.0,0.0,0.0,0.0,0.0,0.0,0.0,0.0,0.0,0.0,0.0,0.0,0.0,0.0,0.0,0.0,0.0,0.0,0.0,0.0,1.9648,2.0586,2.1406,2.2627,2.4293,2.5034,2.4514,2.2825,2.3698,0.0,0.0,0.0,0.0,2.2697,2.1043,2.179,2.4034,2.316,2.3861,2.5409,0.0,0.0,0.0,0.0,0.0,0.0,0.0,2.5703,2.5703,2.5703,2.5605,2.5502,2.5502,2.5447,2.5409,2.5486,2.6189,2.7344,2.916,3.1523,3.4716,3.9672,4.0112,4.1089,4.6916,4.7492,4.6972,4.7026,4.7101,4.795,5.0414,5.2279,5.3953,5.5472,5.5684,5.5684,5.5684,5.5703,5.5703,5.5684,5.5684,5.536,5.4554,5.4497,5.411,5.3236,5.3204,5.3205,5.3198,5.3217,5.3217,5.3198,5.3205,5.3186,5.3167,5.1896,5.1281,5.1342,5.2171,5.1661,5.0139,5.0501,5.0452,5.0026,4.9239,4.8675,4.8324,4.8306,4.8306,4.8306,4.8306,4.8306,4.8398,0.0,0.0,0.0,0.0,0.0,0.0,0.0,0.0,0.0,0.0,0.0,0.0,0.0,0.0,0.0,0.0,0.0,0.0,0.0,0.0,0.0,0.0,0.0,0.0,0.0,0.0,2.2868,2.3323,2.4666,2.4782,0.0,0.0,0.0,2.3688,0.0,0.0,2.2813,2.2911,2.3409,2.4135,2.4428,2.4908,2.5409,0.0,0.0,0.0,0.0,0.0,0.0,0.0,0.0,0.0,2.5554,2.5496,2.5443,2.5486,2.5447,2.5428,2.5543,2.6674,2.8254,3.0054,3.2812,3.6258,4.0704,4.1971,4.3673,4.8873,4.9739,4.9567,4.9605,5.0086,5.0721,5.1452,5.2529,5.3837,5.5472,5.5203,5.4857,5.4855,5.5376,5.5491,5.4912,5.4855,5.4761,5.4513,5.3937,5.3224,5.2335,5.2876,5.2915,5.2299,5.2877,5.2896,5.2279,5.23,5.1992,5.1414,5.0433,5.0577,5.1656,5.0195,4.9884,5.0462,4.9695,4.9644,5.0026,4.9239,4.8822,4.8693,4.8398,4.8306,4.8306,4.8306,4.8306,4.8324,0.0,0.0,0.0,0.0,0.0,0.0,0.0,0.0,0.0,0.0,1.5509,1.5727,0.0,0.0,0.0,0.0,0.0,0.0,0.0,0.0,0.0,0.0,0.0,0.0,0.0,2.2158,2.2772,0.0,0.0,0.0,0.0,0.0,0.0,2.4072,0.0,2.3314,2.3319,2.3139,2.3475,2.4107,2.4245,2.4726,2.537,0.0,0.0,0.0,0.0,0.0,0.0,0.0,0.0,0.0,2.5495,2.5468,2.5447,2.5486,2.5474,2.5534,2.5986,2.7383,2.9306,3.1729,3.4858,3.853,4.3019,4.5208,4.7126,5.0102,5.07,5.0606,5.0317,5.0625,5.1029,5.1394,5.2144,5.3164,5.4511,5.4299,5.3991,5.399,5.4414,5.4511,5.4028,5.3968,5.3855,5.3492,5.2993,5.2319,5.1471,5.1933,5.1952,5.1433,5.1934,5.1953,5.1414,5.1087,5.0664,5.0183,4.9298,4.9394,5.0336,4.8837,4.8702,4.9624,4.8856,4.8721,4.9027,4.8739,4.8438,4.8139,4.8269,4.8287,4.8272,4.8471,4.8643,4.8748,0.0,0.0,0.0,0.0,0.0,0.0,0.0,0.0,0.0,0.0,1.6104,1.6617,0.0,0.0,0.0,0.0,0.0,0.0,0.0,0.0,0.0,0.0,0.0,0.0,0.0,0.0,0.0,0.0,0.0,0.0,0.0,0.0,2.4908,2.4216,0.0,2.4178,2.4005,2.2483,2.2714,2.4053,2.3323,2.3938,2.5321,2.5311,0.0,0.0,0.0,0.0,0.0,0.0,0.0,0.0,2.5486,2.5486,2.5486,2.5505,2.5499,2.5723,2.6749,2.8298,3.0459,3.3883,3.7529,4.1437,4.5956,4.8779,5.051,5.0662,5.0837,5.0702,4.995,4.9779,5.001,5.0759,5.1471,5.2202,5.3087,5.3126,5.3087,5.3086,5.3145,5.3165,5.3087,5.3084,5.2719,5.1857,5.1722,5.1318,5.051,5.0452,5.0452,5.0452,5.0452,5.0491,5.0567,4.9721,4.9317,4.9394,4.8433,4.7991,4.7985,4.7991,4.7991,4.7985,4.8068,4.7953,4.7703,4.801,4.7753,4.7238,4.7905,4.8119,4.8081,4.8567,4.8935,4.9177,0.0,0.0,0.0,0.0,0.0,0.0,0.0,0.0,0.0,0.0,0.0,0.0,0.0,0.0,0.0,0.0,0.0,0.0,0.0,0.0,0.0,0.0,0.0,0.0,0.0,0.0,0.0,0.0,0.0,0.0,0.0,0.0,0.0,2.5043,0.0,2.4687,2.412,2.4364,2.4331,2.4133,2.4582,2.5005,2.538,2.5382,2.5422,0.0,0.0,0.0,0.0,0.0,0.0,0.0,2.5341,2.539,2.5428,2.5486,2.5543,2.5925,2.7557,2.9262,3.157,3.555,4.055,4.4917,4.655,4.7818,4.9048,5.0432,5.174,5.2395,5.1567,5.1932,5.2222,5.174,5.1798,5.2202,5.3087,5.2606,5.2183,5.2163,5.2778,5.2932,5.2239,5.2178,5.1851,5.1008,5.0317,4.9567,4.8702,4.8664,4.8664,4.8664,4.8664,4.8991,4.9683,4.8817,4.8721,4.939,4.7873,4.716,4.7159,4.716,4.716,4.7197,4.7833,4.843,4.8929,4.8025,4.7946,4.8329,4.7572,4.7091,4.6818,4.7261,4.7248,4.7112,0.0,0.0,0.0,0.0,0.0,0.0,0.0,0.0,0.0,0.0,0.0,0.0,0.0,0.0,0.0,0.0,0.0,0.0,0.0,0.0,0.0,0.0,0.0,0.0,0.0,0.0,0.0,0.0,0.0,0.0,0.0,0.0,0.0,2.5303,0.0,2.4851,2.414,2.4552,2.4473,2.4137,2.4553,2.4985,2.5341,2.5341,2.537,2.5409,2.537,0.0,0.0,0.0,0.0,0.0,0.0,0.0,2.5418,2.5473,2.5829,2.6524,2.7926,3.043,3.3805,3.8787,4.319,4.6431,4.6797,4.7528,4.8356,4.926,5.0471,5.1241,5.0798,5.1414,5.1722,5.0837,5.1048,5.1337,5.1375,5.1356,5.1164,5.076,5.1106,5.1029,5.0183,5.0066,4.9912,4.9489,4.9029,4.8586,4.8125,4.8105,4.8105,4.8105,4.8105,4.8317,4.8759,4.7934,4.7741,4.8195,4.6889,4.6294,4.6294,4.6294,4.6294,4.6313,4.6718,4.7082,4.7313,4.6874,4.6721,4.6778,4.674,4.6557,4.6428,4.7008,4.7138,4.6972,0.0,0.0,0.0,0.0,0.0,0.0,0.0,0.0,0.0,0.0,0.0,0.0,0.0,0.0,0.0,0.0,0.0,0.0,0.0,0.0,0.0,0.0,0.0,0.0,0.0,0.0,0.0,0.0,0.0,0.0,2.5303,0.0,0.0,2.5303,0.0,2.4928,2.4312,2.4312,2.4312,2.4312,2.4312,2.4706,2.5303,2.5303,2.5303,2.5303,2.5303,2.5303,2.5303,2.5303,0.0,0.0,0.0,0.0,2.5406,2.5464,2.6052,2.6913,2.7993,3.1636,3.644,4.1855,4.4953,4.6679,4.6679,4.72,4.7664,4.7664,4.8471,4.9183,4.9183,4.976,5.001,4.9298,4.9913,5.0164,4.9298,4.9933,5.0144,4.9279,4.9183,4.8875,4.8163,4.8105,4.8029,4.7895,4.7892,4.7831,4.7677,4.7677,4.7677,4.7677,4.7677,4.7735,4.7889,4.7069,4.6761,4.6889,4.6026,4.5586,4.5586,4.5586,4.5586,4.5586,4.5586,4.549,4.5337,4.5587,4.5311,4.4898,4.5819,4.611,4.609,4.6817,4.707,4.7016,0.0,0.0,0.0,0.0,0.0,0.0,0.0,0.0,0.0,0.0,1.9873,2.0131,0.0,0.0,0.0,0.0,0.0,0.0,0.0,0.0,0.0,0.0,0.0,0.0,0.0,0.0,0.0,0.0,0.0,2.461,2.5303,2.5303,2.5303,2.5303,0.0,2.5245,2.5149,2.5149,2.5149,2.5149,2.5149,2.5207,2.5303,2.5303,0.0,2.5303,2.5303,2.5303,2.5303,2.5303,2.5303,0.0,0.0,0.0,2.5399,2.5406,2.558,2.6121,2.7769,3.2864,3.8597,4.2268,4.4493,4.5776,4.5776,4.5855,4.5932,4.5932,4.7181,4.8278,4.826,4.8375,4.8413,4.8298,4.899,4.926,4.8394,4.9029,4.924,4.8375,4.8278,4.822,4.8105,4.8102,4.7813,4.7122,4.7045,4.6718,4.5969,4.593,4.593,4.593,4.593,4.6313,4.7062,4.62,4.6161,4.6889,4.6026,4.5586,4.5586,4.5586,4.5586,4.5586,4.5586,4.5815,4.6088,4.5482,4.5366,4.5635,4.5379,4.5096,4.4878,4.5266,4.5243,4.5041,0.0,0.0,0.0,0.0,0.0,0.0,0.0,0.0,0.0,0.0,0.0,2.0312,0.0,0.0,0.0,0.0,0.0,0.0,0.0,0.0,0.0,0.0,0.0,0.0,0.0,0.0,0.0,0.0,2.4582,2.4947,2.5303,2.5803,2.5765,2.5303,2.5303,2.5303,2.5303,2.5303,2.5303,2.5303,2.5303,2.5303,2.5303,0.0,0.0,0.0,0.0,0.0,2.5303,2.5303,2.5303,2.5303,2.5303,0.0,0.0,0.0,2.579,2.7,3.0635,3.3775,3.7156,4.1944,4.3688,4.4435,4.5393,4.5586,4.5586,4.5586,4.62,4.6854,4.7355,4.7798,4.7951,4.7509,4.8125,4.8375,4.7548,4.8144,4.8355,4.7528,4.7432,4.7239,4.6758,4.6698,4.6544,4.62,4.6161,4.6007,4.5605,4.5586,4.5586,4.5586,4.5586,4.5776,4.6161,4.5796,4.5796,4.6161,4.5776,4.5586,4.5586,4.5586,4.5586,4.5586,4.5586,4.5605,4.5591,4.5025,4.4828,4.481,4.4828,4.472,4.4645,4.4972,4.4889,4.462,0.0,0.0,0.0,0.0,0.0,0.0,0.0,0.0,0.0,0.0,0.0,0.0,0.0,0.0,0.0,0.0,0.0,0.0,0.0,0.0,0.0,0.0,0.0,0.0,0.0,0.0,0.0,2.4999,2.4774,2.4889,2.5303,2.5957,2.6043,2.5618,2.563,2.5505,2.5303,2.5303,2.5303,2.5303,2.5303,2.5303,2.5303,0.0,0.0,0.0,0.0,0.0,2.5303,2.5303,2.5303,2.5303,2.5303,2.5303,0.0,0.0,0.0,2.7306,3.1549,3.3158,3.487,3.9922,4.1805,4.2879,4.4587,4.5124,4.5334,4.5547,4.5586,4.5797,4.6451,4.7066,4.7277,4.6663,4.7259,4.7509,4.6701,4.7278,4.749,4.6663,4.6567,4.6317,4.5663,4.5586,4.5586,4.5586,4.5586,4.5586,4.5586,4.5586,4.5586,4.5586,4.5586,4.5586,4.5586,4.5586,4.5586,4.5586,4.5586,4.5586,4.5586,4.5586,4.5586,4.5586,4.5586,4.5413,4.5071,4.4734,4.435,4.4026,4.4336,4.4448,4.4474,4.4741,4.4656,4.4428,0.0,0.0,0.0,0.0,0.0,0.0,0.0,0.0,0.0,0.0,0.0,0.0,0.0,0.0,0.0,2.2719,0.0,0.0,0.0,0.0,0.0,0.0,0.0,0.0,0.0,0.0,0.0,2.4159,2.3323,2.3736,2.5303,2.5341,2.5791,2.6519,2.6533,2.6083,2.5303,2.5303,2.5303,2.5303,2.5303,2.5303,2.5303,0.0,0.0,0.0,0.0,0.0,2.5303,2.5303,2.5303,2.5303,2.5303,2.5303,2.5303,0.0,0.0,0.0,2.7813,3.009,3.2577,3.5224,3.8272,4.1097,4.2823,4.3818,4.4603,4.5413,4.5586,4.5605,4.5663,4.5701,4.572,4.5663,4.6394,4.6663,4.5778,4.6413,4.6644,4.5759,4.5663,4.5643,4.5586,4.5586,4.5586,4.5586,4.5586,4.5586,4.5586,4.5586,4.5586,4.5586,4.5586,4.5586,4.5586,4.5586,4.5586,4.5586,4.5586,4.5586,4.5586,4.5586,4.5586,4.5586,4.5586,4.5413,4.5068,4.4746,4.4348,4.4007,4.4026,4.4026,4.4032,4.4051,4.4064,4.4026,0.0,0.0,0.0,0.0,0.0,0.0,0.0,0.0,0.0,0.0,0.0,0.0,0.0,0.0,2.3486,2.3621,2.4389,0.0,0.0,0.0,0.0,0.0,0.0,0.0,0.0,0.0,2.3755,2.4866,2.4562,2.4706,2.5303,2.5861,2.5995,2.5761,2.563,2.5784,2.6102,2.5409,2.5187,2.5303,2.5303,2.5303,2.5303,2.5303,0.0,0.0,0.0,2.5303,2.5303,2.5303,2.5303,2.5303,2.5303,2.5303,2.5303,2.5303,2.5322,2.5707,2.7456,2.8593,3.0155,3.3775,3.5996,3.7873,4.015,4.2148,4.3628,4.3936,4.4857,4.5586,4.5586,4.5586,4.5586,4.5586,4.5855,4.5951,4.5624,4.5874,4.5951,4.5624,4.5586,4.5586,4.5586,4.5586,4.5586,4.5586,4.5586,4.5586,4.5586,4.5586,4.5586,4.5586,4.5586,4.5586,4.5586,4.5586,4.5586,4.5586,4.5586,4.5586,4.5586,4.5586,4.5586,4.5586,4.5586,4.5528,4.5393,4.5049,4.4711,4.4373,4.4373,4.4406,4.4336,4.4112,4.4147,4.4318,0.0,0.0,0.0,0.0,0.0,0.0,0.0,0.0,0.0,0.0,0.0,0.0,0.0,0.0,2.4351,2.4495,2.4985,2.5322,2.537,2.537,0.0,0.0,0.0,0.0,0.0,0.0,0.0,0.0,0.0,2.5043,2.5303,2.588,2.5996,2.5707,2.5168,2.5343,2.6022,2.5308,2.5091,2.5207,2.5264,2.5485,2.5761,2.6066,2.6165,2.6178,2.6169,2.6159,2.613,2.5841,2.5745,2.5736,0.0,2.5534,2.5303,2.5303,2.5303,2.5553,2.6717,2.7237,2.8336,3.2016,3.359,3.5032,3.8151,4.0399,4.1995,4.2554,4.3991,4.5066,4.4816,4.497,4.5163,4.5163,4.5163,4.5163,4.5163,4.5163,4.5259,4.5566,4.5336,4.5278,4.5566,4.5586,4.5586,4.5586,4.5586,0.0,4.5586,4.5586,4.547,4.5182,4.4895,4.4761,4.4761,4.4761,4.4761,4.4761,4.503,4.5163,4.5182,4.547,4.5586,4.5586,4.547,4.549,4.5566,4.5124,4.4808,4.4597,4.4317,4.4299,4.4349,4.396,4.4061,4.4318,0.0,0.0,0.0,0.0,0.0,0.0,0.0,0.0,0.0,0.0,0.0,0.0,0.0,0.0,0.0,2.5303,2.5303,2.5303,2.5303,2.5303,0.0,0.0,0.0,0.0,0.0,0.0,0.0,0.0,0.0,0.0,0.0,2.5303,2.5746,2.6516,2.5322,2.4872,2.4986,2.4994,2.5014,2.5053,2.5226,2.5819,2.6699,2.7529,2.7854,2.7881,2.7923,2.793,2.78,2.6954,2.6657,2.661,0.0,0.0,0.0,0.0,0.0,0.0,0.0,0.0,0.0,2.9655,3.0953,3.2679,3.6839,3.8488,3.9619,4.1296,4.2989,4.3968,4.3203,4.3701,4.4239,4.4224,4.4241,4.4278,4.4301,4.428,4.4586,4.5451,4.4778,4.4605,4.5432,4.5547,4.5547,4.5547,4.5566,4.5586,4.5586,4.5566,4.5163,4.4282,4.3515,4.3094,4.3094,4.3094,4.3094,4.3113,4.3897,4.4282,4.432,4.5182,4.5566,4.5566,4.5259,4.528,4.5531,4.4858,4.4589,4.4499,4.3793,4.3716,4.3989,4.3621,4.3718,4.397,0.0,0.0,0.0,0.0,0.0,0.0,0.0,0.0,0.0,0.0,0.0,0.0,0.0,0.0,0.0,2.5303,2.5303,2.5303,2.5303,2.5303,2.5303,2.5303,2.5303,0.0,0.0,0.0,0.0,0.0,0.0,0.0,0.0,0.0,0.0,2.562,2.5072,2.4834,2.4855,2.4704,2.5139,2.588,2.5207,2.561,2.6619,2.6699,2.6833,2.711,2.8338,2.8631,2.845,2.827,2.7769,2.7166,2.6732,0.0,0.0,0.0,0.0,0.0,2.5303,0.0,0.0,0.0,0.0,0.0,3.1955,3.4116,3.6092,3.7762,3.9946,4.1674,4.2085,4.2354,4.2489,4.2492,4.3028,4.3643,4.422,4.3797,4.3737,4.4559,4.3929,4.3528,4.3758,4.4316,4.4586,0.0,4.5124,4.5586,4.5586,4.4989,4.4278,4.3467,4.322,4.3104,4.3115,4.3115,4.3115,4.3115,4.3327,4.3737,4.4301,4.4549,4.4991,4.5566,4.5259,4.5151,4.5207,4.4781,4.4417,4.414,4.3937,4.4081,4.4354,4.3738,4.3888,4.4336,0.0,0.0,0.0,0.0,0.0,0.0,0.0,0.0,0.0,0.0,0.0,0.0,0.0,0.0,0.0,2.5284,2.5226,2.5207,2.5284,2.5303,2.5303,2.5303,2.5303,2.5303,0.0,0.0,0.0,0.0,0.0,0.0,0.0,0.0,0.0,0.0,2.4947,2.4801,2.48,2.4577,2.4959,2.5625,2.5096,2.5715,2.6991,2.7157,2.7703,2.8512,2.9503,2.9962,3.0059,2.9785,2.9165,2.8364,2.7316,0.0,0.0,0.0,0.0,0.0,0.0,0.0,0.0,2.6832,0.0,0.0,3.0379,3.2095,3.3635,3.5315,3.7387,3.8979,3.9142,3.945,3.9681,3.9681,4.0104,4.1085,4.2989,4.2854,4.2871,4.3695,4.3063,4.2701,4.3066,4.3528,4.3835,4.3893,4.4316,4.4547,4.4547,4.3835,4.3159,4.2582,4.22,4.2024,4.2017,4.2017,4.2017,4.2017,4.2379,4.3002,4.3803,4.3797,4.4208,4.4861,4.4153,4.3753,4.3618,4.3286,4.3465,4.4007,4.4007,4.4262,4.4554,4.3928,4.4083,4.4499,0.0,0.0,0.0,0.0,0.0,0.0,0.0,0.0,0.0,0.0,0.0,0.0,0.0,0.0,0.0,0.0,2.509,2.5091,2.5245,2.5245,0.0,0.0,2.5264,2.5284,2.5303,0.0,0.0,0.0,0.0,0.0,0.0,0.0,0.0,0.0,0.0,0.0,2.4744,2.4577,2.4616,2.4781,2.491,2.5962,2.7531,2.8199,2.9413,3.0788,3.1073,3.1619,3.2052,3.1161,3.0494,2.9775,2.8153,2.7797,0.0,0.0,2.6813,0.0,0.0,0.0,0.0,0.0,2.7601,0.0,3.066,3.1506,3.2102,3.3487,3.5103,3.6103,3.5468,3.6103,3.668,3.6584,3.6719,3.7969,4.12,4.1585,4.1873,4.2835,4.2181,4.197,4.2742,4.2912,4.3104,4.3489,4.3258,4.3028,4.2816,4.2489,4.2085,4.1681,4.0893,4.0489,4.0489,4.0489,4.0489,4.0508,4.1289,4.2104,4.2958,4.2919,4.3216,4.3677,4.2543,4.1876,4.1549,4.1241,4.2184,4.3789,4.3826,4.418,4.4556,4.4164,4.4234,4.4499,0.0,0.0,0.0,0.0,0.0,0.0,0.0,0.0,0.0,0.0,0.0,0.0,0.0,0.0,0.0,0.0,0.0,2.5024,2.5072,0.0,0.0,2.5053,2.5072,2.513,2.5303,2.5303,0.0,0.0,0.0,0.0,0.0,0.0,0.0,0.0,0.0,2.4707,2.4559,2.4522,2.4522,2.4557,2.4588,2.5674,2.7324,2.7938,2.8883,3.0125,3.2179,3.2879,3.2583,3.1096,3.0534,3.0259,2.8966,2.8578,2.8626,2.8606,0.0,0.0,0.0,0.0,0.0,0.0,2.9794,0.0,2.8967,3.0237,3.1583,3.1218,3.2468,3.3814,3.4353,3.568,3.6488,3.5853,3.6873,3.845,4.0469,4.02,4.035,4.1867,4.1274,4.0816,4.0989,4.1643,4.18,4.1207,4.2374,4.2505,4.1091,4.222,4.2255,4.0796,4.0585,4.0489,4.0489,4.0489,4.0489,4.0489,4.0677,4.1216,4.2047,4.1755,4.21,4.2806,4.204,4.1646,4.1575,4.1248,4.1709,4.2642,4.2915,4.3679,4.4553,4.4153,4.4234,4.4499,0.0,0.0,0.0,0.0,0.0,0.0,0.0,0.0,0.0,0.0,0.0,0.0,0.0,0.0,0.0,0.0,0.0,0.0,0.0,0.0,2.4865,2.4993,2.5,2.5091,2.5303,2.5303,0.0,0.0,0.0,0.0,0.0,0.0,0.0,0.0,0.0,2.4578,2.4504,2.4504,2.4667,2.4955,2.5049,2.5893,2.7118,2.771,2.8767,3.0126,3.18,3.2839,3.3148,3.15,3.1335,3.1573,3.0313,3.0228,3.0538,2.992,2.9467,2.9044,0.0,0.0,0.0,2.9544,2.9775,0.0,0.0,3.0102,3.0641,3.1468,3.1295,3.1391,3.2699,3.2929,3.3064,3.3526,3.3949,3.5103,3.7642,3.8373,3.8796,3.9215,3.9253,3.9084,3.865,3.9377,3.9704,3.93,4.0835,4.1162,3.9727,4.1008,4.1408,4.0527,4.0489,4.0489,4.0489,4.0489,4.0312,3.9923,4.0312,4.0735,4.1158,4.0971,4.1203,4.1676,4.0495,4.0067,4.0111,3.9534,4.0005,4.1222,4.2347,4.3183,4.3726,4.3918,4.4121,4.4226,2.4245,0.0,0.0,0.0,0.0,0.0,0.0,0.0,0.0,0.0,0.0,0.0,0.0,0.0,0.0,0.0,0.0,0.0,0.0,0.0,0.0,2.4892,2.4942,2.5053,2.5245,2.5284,2.5303,0.0,0.0,0.0,0.0,0.0,0.0,0.0,2.4717,2.465,2.4904,2.4737,2.5054,2.5667,2.5981,2.65,2.713,2.7779,2.9047,3.0555,3.151,3.2687,3.3587,3.2122,3.2207,3.2739,3.1523,3.1765,3.227,3.1333,3.1085,3.0871,2.9698,0.0,0.0,0.0,0.0,2.9871,0.0,0.0,0.0,3.1852,3.066,2.9775,3.1198,3.0294,2.9756,3.1006,3.1025,3.1737,3.4166,3.6103,3.7123,3.6757,3.6844,3.6887,3.6714,3.7204,3.7584,3.7738,3.9061,3.9657,3.9142,3.9681,4.0065,4.0162,4.0162,4.02,4.0277,4.0412,4.0069,3.9234,3.9931,4.0162,3.9945,3.9931,4.0024,4.0098,3.885,3.8366,3.8438,3.7937,3.8493,3.9847,4.1625,4.2529,4.2884,4.3516,4.3871,4.3952,2.443,2.4653,0.0,0.0,0.0,0.0,0.0,0.0,0.0,0.0,0.0,0.0,0.0,2.4504,2.5078,2.6525,0.0,0.0,2.658,0.0,0.0,0.0,2.472,2.4889,2.5024,2.5207,2.5303,2.5303,0.0,0.0,0.0,0.0,0.0,2.5838,2.4912,2.5173,2.6291,2.5602,2.5754,2.6521,2.7259,2.762,2.7789,2.8567,2.9876,3.1463,3.2978,3.3642,3.366,0.0,3.2555,3.2551,3.192,3.1953,3.2391,3.3184,3.3576,3.3891,3.4487,3.5161,0.0,0.0,3.418,3.4584,3.0352,0.0,3.191,2.9929,0.0,3.0314,3.0513,0.0,0.0,2.9486,3.1218,3.2237,3.1129,3.3083,3.5141,3.6546,3.4644,3.4136,3.6459,3.6128,3.6084,3.6796,3.7305,3.8378,4.0207,3.9022,3.8488,3.8969,3.8977,3.915,3.9419,4.0142,3.9976,3.8952,3.9276,3.8904,3.7927,3.7864,3.7726,3.7558,3.7821,3.7833,3.7686,3.8297,3.867,3.8977,4.0191,4.1562,4.2797,4.2904,4.3391,4.3952,2.4319,2.4485,2.4684,0.0,0.0,0.0,0.0,0.0,0.0,0.0,0.0,0.0,2.658,2.6487,2.6692,2.7362,2.637,2.6004,2.6691,0.0,0.0,0.0,2.4954,2.4864,2.5005,2.5207,2.5303,2.5303,2.5303,0.0,0.0,0.0,0.0,2.5113,2.4556,2.4899,2.5871,2.5534,2.6136,2.7319,2.7644,2.8077,2.8526,2.8883,3.0002,3.1499,3.2172,3.3314,3.4293,0.0,3.3227,0.0,0.0,0.0,3.3513,3.4334,3.4273,3.4193,3.5229,0.0,0.0,0.0,0.0,0.0,3.1795,0.0,3.1429,3.1314,0.0,0.0,0.0,0.0,0.0,0.0,2.9602,2.991,2.9679,2.9294,3.039,3.4064,3.3473,3.3229,3.4378,3.4093,3.4021,3.4455,3.5559,3.6617,3.7541,3.8768,3.8979,3.7896,3.8477,3.8862,3.9008,3.9335,3.9627,3.9814,3.8223,3.6953,3.6079,3.6925,3.7162,3.6881,3.7125,3.7322,3.7528,3.7863,3.8279,3.8744,3.9228,4.0399,4.1852,4.2362,4.3023,4.3697,2.419,2.4356,2.4541,2.4682,2.4728,0.0,0.0,0.0,0.0,0.0,0.0,2.7604,2.7992,2.8278,2.8627,2.9098,2.8379,2.7822,2.7604,2.6073,2.5237,2.528,2.5336,2.5316,2.5197,2.5428,2.5659,2.59,0.0,0.0,0.0,0.0,0.0,0.0,2.4623,2.509,2.6058,2.6071,2.6854,2.8132,2.8132,2.8474,2.9053,2.9485,3.0369,3.1477,3.19,3.3177,3.4495,3.3321,3.3715,0.0,3.3519,3.3682,3.4348,3.5097,3.5091,3.504,3.5931,0.0,0.0,0.0,0.0,0.0,0.0,0.0,0.0,0.0,3.166,0.0,0.0,0.0,0.0,0.0,0.0,2.8533,2.8365,2.7176,2.7772,3.1655,3.2267,3.2249,0.0,3.1923,3.2144,3.2735,3.3615,3.4507,3.5449,3.7357,3.7998,3.7089,3.7824,3.8223,3.8214,3.8618,3.901,3.9395,3.7831,3.6198,3.463,3.5873,3.6408,3.6366,3.6461,3.6842,3.7406,3.7717,3.8169,3.8707,3.8707,3.9694,4.1151,4.176,4.2606,4.3497,2.419,2.4356,2.4485,2.4505,2.4506,2.4712,0.0,2.541,2.5704,2.6462,2.6617,2.6953,2.7728,2.9203,3.0757,3.2318,3.1722,3.0924,3.0151,2.8566,2.6651,2.4355,2.5911,2.6467,2.5687,2.5996,2.6574,2.7422,2.5803,0.0,0.0,0.0,0.0,0.0,2.5447,2.6245,2.7716,2.7714,2.8187,2.8962,2.8962,2.8998,2.9163,3.0729,3.1348,3.1602,3.3162,0.0,0.0,3.378,3.379,0.0,0.0,0.0,0.0,0.0,0.0,0.0,0.0,0.0,0.0,3.5257,0.0,0.0,0.0,0.0,3.3622,0.0,0.0,0.0,0.0,0.0,0.0,0.0,0.0,0.0,0.0,2.7888,2.9255,3.0004,3.0677,3.064,2.9603,2.9874,3.0761,3.2381,3.1295,3.2018,3.5316,3.4,3.425,3.665,3.6738,3.6776,3.6776,3.8118,3.8084,3.6761,3.8594,3.7489,3.386,3.4297,3.488,3.5576,3.5891,3.6423,3.7198,3.8242,3.8689,3.8707,3.8707,3.9694,4.1095,4.1126,4.215,4.3497,2.419,2.4245,2.4337,2.4485,2.4391,2.4733,2.6005,2.7106,2.8507,3.0582,3.1145,3.2141,3.4199,3.4766,3.5247,3.5802,3.4593,3.3433,3.2631,3.008,2.8223,2.7402,2.7056,2.6767,2.6507,2.673,2.6997,2.7306,2.6724,0.0,0.0,0.0,0.0,0.0,2.6227,2.6796,2.7791,2.7785,2.8265,2.8994,2.8994,2.9655,3.0595,0.0,3.0943,3.1539,3.2601,3.3698,0.0,3.3973,3.4138,3.4504,3.3972,3.4236,3.4855,3.545,3.6406,0.0,0.0,0.0,3.9219,3.7219,0.0,0.0,0.0,0.0,0.0,0.0,0.0,0.0,0.0,0.0,0.0,0.0,0.0,0.0,0.0,2.6817,2.7125,2.7316,2.8643,2.914,2.81,2.8264,2.8654,2.9208,2.9442,3.0294,3.2038,3.316,3.4173,3.502,3.6122,3.6319,3.5509,3.5974,3.5932,3.536,3.5622,3.5082,3.3842,3.471,3.4855,3.446,3.604,3.647,3.6091,3.6817,3.7734,3.8707,3.8707,3.9694,4.1095,4.1107,4.2132,4.3497,2.419,2.419,2.4226,2.4374,2.4744,2.55,2.6829,2.8874,3.0998,3.3013,3.4097,3.545,3.7479,3.8079,3.8352,3.8341,3.7645,3.6321,3.4355,3.2582,3.0958,2.9485,2.883,2.8363,2.8077,2.772,2.767,2.7989,2.738,2.7171,0.0,0.0,0.0,0.0,2.6901,2.7313,2.7812,2.8114,2.8526,2.9012,2.9315,3.0051,3.0969,0.0,3.1554,3.2283,0.0,3.3451,3.4504,3.3972,3.4137,3.4486,3.3972,3.4174,3.4687,3.5318,3.6194,3.7212,3.836,3.9242,0.0,3.8539,3.7693,0.0,3.4326,0.0,3.5449,0.0,0.0,0.0,0.0,0.0,0.0,0.0,0.0,0.0,0.0,2.5857,2.5622,2.5567,2.7016,2.8018,2.8045,2.7695,2.7861,2.8831,2.8771,2.9313,3.0775,3.2122,3.3256,3.416,3.5257,3.5541,3.499,3.4807,3.4679,3.4596,3.4032,3.3821,3.3799,3.455,3.4633,3.4284,3.5441,3.5983,3.6127,3.6846,3.7757,3.8695,3.8689,3.9694,4.1095,4.1107,4.2132,4.3497,2.4208,2.4245,2.4319,2.4319,2.5577,2.6927,2.7839,3.0611,3.297,3.3924,3.5472,3.6805,3.7698,3.9152,4.0088,4.0088,4.0721,3.9483,3.5543,3.6001,3.467,3.0733,3.1209,3.1191,3.0388,2.8975,2.8659,2.9448,2.7793,2.7401,2.8132,2.7154,2.6726,2.6745,2.751,2.7848,2.7926,2.8695,2.9012,2.9127,2.9863,3.0236,3.0525,3.1968,3.3085,3.3752,3.2948,3.314,3.3807,3.3807,3.3807,3.3807,3.3807,3.3825,3.4071,3.5101,3.6044,3.6982,3.7957,3.9458,4.0434,3.9144,3.9375,0.0,0.0,0.0,3.8627,0.0,0.0,0.0,0.0,0.0,0.0,0.0,0.0,0.0,0.0,2.5256,2.5082,2.4946,2.5931,2.7311,2.9001,2.7974,2.8282,3.0864,2.913,2.9025,3.1448,3.0871,3.159,3.4032,3.4147,3.4453,3.5051,3.4615,3.4376,3.4386,3.3985,3.3802,3.3807,3.3862,3.4302,3.499,3.4265,3.5127,3.7106,3.8251,3.8722,3.8704,3.8713,3.9682,4.1101,4.1199,4.2205,4.3497,2.4319,2.517,2.5967,2.5967,2.632,2.7498,3.0086,3.1681,3.3771,3.702,3.8347,3.9763,4.1734,4.2315,4.2569,4.2569,4.2223,4.1296,3.9628,3.8612,3.735,3.5695,3.4619,3.3707,3.2901,3.1353,3.0369,2.9991,2.8957,2.8562,2.875,2.8507,2.8375,2.8393,2.8599,2.8695,2.8714,2.892,2.9352,2.9863,2.9485,3.0748,3.2761,0.0,3.2684,3.4586,3.3788,3.3615,3.3807,3.3807,3.3807,3.3807,3.3807,3.4209,3.4631,3.4326,3.5832,3.7517,3.7218,3.8484,3.9821,3.9475,3.9044,3.8618,0.0,0.0,0.0,0.0,0.0,0.0,0.0,0.0,0.0,0.0,0.0,0.0,0.0,2.7056,2.6905,2.6885,2.7028,2.6759,2.5854,2.6801,2.7513,2.7592,2.833,2.9083,2.9717,0.0,3.1847,3.2913,3.3563,3.4068,3.4427,3.4314,3.4149,3.3939,3.3854,3.3802,3.3825,3.4679,3.5174,3.5395,3.6001,3.6119,3.6054,3.7916,3.8722,3.8704,3.8713,3.9671,4.1235,4.2457,4.3151,4.3497,2.4818,2.6301,2.7862,2.8592,2.9296,3.0369,3.2182,3.3456,3.5318,3.8319,3.9692,4.0937,4.2297,4.3078,4.3497,4.3497,4.3096,4.2315,4.1172,4.057,3.9737,3.8601,3.6975,3.5721,3.4905,3.2261,3.0656,3.0199,2.9053,2.8677,2.8994,2.8994,2.8994,2.8994,2.8994,2.9182,2.9522,2.9522,2.9892,3.0441,3.0145,3.111,0.0,3.2262,3.2985,3.4191,3.388,3.3807,3.3807,3.3807,3.3807,3.3862,3.4211,3.4385,3.4549,3.4825,3.6001,3.7177,3.7089,3.834,3.976,3.9895,3.9852,3.9664,3.9431,3.96,3.9583,0.0,3.8527,3.8246,0.0,0.0,0.0,3.0968,0.0,0.0,0.0,2.7804,2.7694,2.7612,2.7499,2.6873,2.5416,2.6697,2.7434,2.7036,2.8653,2.9506,2.9121,3.0756,3.1955,3.2476,3.3661,3.4245,3.42,3.4921,3.4791,3.3807,3.3807,3.3807,3.3825,3.4449,3.477,3.4844,3.6434,3.6626,3.6017,3.7897,3.8681,3.8725,3.9081,3.979,4.072,4.2001,4.2896,4.3497,2.5852,2.7823,2.9879,3.1182,3.2921,3.4189,3.4402,3.5769,3.7298,3.8828,4.0437,4.14,4.1407,4.2642,4.3497,4.3497,4.3497,4.2896,4.1499,4.2061,4.1807,4.0413,3.8828,3.7543,3.6619,3.2728,3.0567,3.0346,2.8737,2.832,2.8994,2.8994,2.8994,2.8994,2.8994,2.9365,2.9958,2.9921,3.0214,3.0732,3.0975,3.122,3.1614,3.3009,3.3405,3.325,3.3616,3.3762,3.3807,3.3807,3.3807,3.3917,3.4633,3.4367,3.4092,3.555,3.6048,3.6297,3.7121,3.8437,3.9681,4.0067,4.0784,4.1175,4.0331,3.9924,3.9675,3.9572,3.8546,3.7962,0.0,0.0,0.0,2.9948,0.0,0.0,0.0,2.8448,2.8326,2.8167,2.8154,0.0,2.6753,2.7217,2.7644,2.7725,2.9179,2.9794,2.9121,0.0,3.1678,3.2409,3.3786,3.4485,3.4481,3.5683,3.5573,3.4119,3.3899,3.3807,3.3807,3.3917,3.3972,3.4082,3.6211,3.689,3.656,3.8063,3.8707,3.8762,3.9479,3.9804,3.9976,4.0687,4.1891,4.3201,2.8368,3.032,3.1845,3.1476,3.386,3.6325,3.7626,3.8664,3.9617,4.056,4.21,4.3074,4.3091,4.3332,4.3497,4.3497,4.3497,4.3387,4.3096,4.3206,4.3151,4.2878,4.1334,3.9786,3.8297,3.4926,3.2515,3.1202,2.9588,2.8865,2.8994,2.8994,2.8994,2.8994,2.8994,2.8901,2.8693,2.8414,2.907,3.0239,2.9668,3.0554,3.2282,3.2175,3.2592,3.3208,3.3291,3.3522,3.3807,3.3807,3.3807,3.3825,3.3972,3.3918,3.3842,3.4138,3.4706,3.5423,3.6277,3.7179,3.8096,3.8835,3.9602,4.0221,4.0307,4.0259,4.0314,4.0842,3.9681,3.8497,3.827,0.0,0.0,0.0,0.0,0.0,0.0,3.1448,3.1013,3.0989,3.0989,3.0355,2.876,2.8001,2.7395,2.6879,2.7775,2.8563,2.9063,0.0,3.0183,0.0,3.2272,3.3501,0.0,0.0,3.4816,3.5844,3.4468,3.3807,3.3825,3.4504,3.477,3.4908,3.6652,3.7367,3.7349,3.8315,3.8689,3.8707,3.8854,3.932,3.9915,4.0068,4.0707,4.1617,3.1954,3.304,3.4,3.4483,3.6556,3.8561,3.9756,4.0974,4.1614,4.1151,4.1792,4.2253,4.2258,4.2768,4.3096,4.3096,4.2805,4.2606,4.2606,4.2896,4.3096,4.3096,4.1789,4.0544,3.9357,3.5284,3.2803,3.2035,0.0,0.0,0.0,0.0,2.8994,2.9012,2.9448,2.9654,2.9671,2.9483,0.0,3.0437,3.0264,3.0853,3.186,3.2073,3.2283,3.2533,3.3045,3.3332,3.3522,3.3734,3.3807,3.3862,3.4302,3.4128,3.3991,3.4844,3.5368,3.5864,3.6699,3.7503,3.8224,3.8585,3.9001,3.9363,3.9677,3.9927,4.0151,4.0352,4.0103,3.9448,3.8235,3.5911,0.0,0.0,0.0,0.0,0.0,3.2218,3.1698,3.1698,3.1295,3.0525,2.9217,2.866,2.8073,2.7332,2.8044,2.8679,2.9083,0.0,3.038,0.0,0.0,0.0,3.4981,0.0,3.5275,3.5624,3.4816,3.4431,3.4468,3.5285,3.5432,3.5082,3.6758,3.7503,3.7551,3.8377,3.8707,3.8707,3.8707,3.894,3.9283,3.9283,3.9516,4.0081,3.5502,3.5795,3.6196,3.7506,3.9101,4.0355,4.1003,4.2351,4.2915,4.1752,4.1499,4.1444,4.1444,4.2061,4.2521,4.25,4.2082,4.1809,4.1809,4.2372,4.2686,4.2697,4.1679,4.0741,3.9915,3.5373,3.2871,0.0,0.0,0.0,0.0,0.0,2.9163,2.9012,2.9751,0.0,0.0,0.0,3.0331,3.0387,3.0858,3.1123,3.1286,3.1958,3.2037,3.1882,3.2627,3.2983,3.3105,3.3419,3.3634,3.3917,3.4559,3.4321,3.4082,3.5597,3.6019,3.624,3.7232,3.7973,3.8493,3.867,3.8707,3.8762,3.8961,3.9464,3.9804,3.9552,4.0037,4.0,3.8233,3.6396,0.0,0.0,0.0,0.0,0.0,0.0,3.216,3.1987,3.1352,3.0525,2.9486,2.9198,2.8909,2.8467,2.8679,2.8832,2.8832,0.0,0.0,0.0,0.0,3.4223,3.4321,0.0,3.5697,3.5532,3.5018,3.4825,3.5009,3.5717,3.5634,3.5082,3.6765,3.7601,3.779,3.8432,3.8707,3.8707,3.8707,3.8707,3.8707,3.8707,3.8799,3.9246,3.8187,3.8328,3.8405,3.8544,3.9927,4.1022,4.1081,4.2043,4.2896,4.3224,4.2842,4.2551,4.2551,4.2168,4.1895,4.1881,4.1808,4.1791,4.1791,4.2368,4.2687,4.2717,4.1679,4.0741,3.9915,3.6182,3.3688,0.0,0.0,2.9991,0.0,0.0,0.0,0.0,0.0,0.0,0.0,2.8483,2.8829,2.922,2.9934,3.0594,3.119,3.1286,3.1524,3.179,3.1915,3.2196,3.2583,3.2616,3.3166,3.3807,3.3899,3.3862,3.3981,3.487,3.5119,3.5469,3.7074,3.7558,3.7778,3.8511,3.8707,3.8707,3.8719,3.935,3.9748,3.9266,3.9464,3.9274,3.7813,3.8002,3.771,0.0,0.0,0.0,0.0,0.0,3.366,3.2872,3.2718,3.2045,3.0429,2.9563,2.939,3.0121,2.8832,2.8005,0.0,0.0,0.0,3.2072,3.2788,3.4074,3.6046,3.4706,3.511,3.7221,3.4981,3.4302,3.499,3.5092,3.5092,3.5082,3.678,3.7918,3.8597,3.867,3.8707,3.8707,3.8707,3.8707,3.8707,3.8707,3.9173,3.9915,4.0099,3.9745,3.9867,4.1341,4.1317,4.148,0.0,4.3114,4.3141,4.2536,4.2294,4.2341,4.2774,4.1886,4.1429,4.1951,4.1239,4.0798,4.0798,4.129,4.1642,4.1628,4.0937,4.0291,3.9663,3.6206,3.3908,0.0,0.0,0.0,0.0,0.0,0.0,0.0,0.0,2.9349,2.8947,2.9493,2.9708,2.9705,3.0454,3.0926,3.119,3.119,3.1291,3.147,3.1716,3.1915,3.2127,3.2417,3.2925,3.3441,3.3455,3.3925,3.4679,3.5551,3.6138,3.6758,3.7918,3.8218,3.8297,3.8634,3.8707,3.8707,3.8707,3.9706,4.0283,3.9084,3.909,3.9183,3.8823,3.8222,3.7696,3.7502,0.0,0.0,0.0,0.0,3.3295,3.2949,3.2006,3.1141,3.0456,3.0083,3.0025,3.0359,2.8852,2.8332,0.0,0.0,0.0,3.2288,0.0,3.3765,3.5043,3.522,3.5789,3.6762,3.5771,3.5716,3.6505,3.6505,3.6762,3.7276,3.7936,3.812,3.7985,3.7985,3.7985,3.7985,3.7985,3.8591,3.9405,3.943,3.9915,4.0732,4.1503,0.0,4.0702,0.0,4.2083,4.174,4.3061,4.3104,4.2583,4.1665,4.1393,4.1552,4.2255,4.1359,4.0916,4.1477,4.0646,4.007,4.007,4.0612,4.0913,4.0899,4.0324,0.0,3.9504,3.6332,3.4196,3.3269,3.218,0.0,0.0,0.0,0.0,0.0,2.9725,2.9597,2.9608,3.0213,3.0302,3.0141,3.0892,3.1094,3.0908,3.1106,3.1072,3.0925,3.1422,3.1623,3.166,3.2021,3.2581,3.317,3.3283,3.4014,3.5031,3.6091,3.6938,3.7661,3.8487,3.8707,3.8762,3.897,3.8891,3.8836,3.9313,4.0079,4.0436,3.927,3.9021,3.9063,3.9389,3.8493,3.7834,3.8229,0.0,0.0,0.0,3.4462,3.3094,3.2929,3.166,3.0679,3.0417,3.0398,3.0398,3.0398,2.9294,0.0,0.0,0.0,0.0,0.0,0.0,0.0,3.4591,3.5717,3.6303,3.6303,3.6303,3.6597,3.7147,3.7397,3.7808,3.8358,3.8597,3.8377,3.7856,3.7856,3.7856,3.7856,3.7856,3.8683,3.9895,3.9908,4.0554,4.1514,4.2514,4.157,4.0864,4.1679,4.1796,4.1793,4.1827,4.1305,4.0933,4.0918,4.0469,4.0324,4.0849,4.0438,4.0121,4.0104,4.0087,4.007,4.007,4.0612,4.0916,0.0,0.0,3.9494,3.9522,3.6741,3.4746,3.3606,0.0,0.0,2.9611,0.0,3.0028,3.0757,2.9933,2.9571,2.9515,2.9917,3.009,3.0141,3.0892,3.0755,3.0187,3.0925,3.0751,3.0226,3.0937,3.119,3.119,3.123,3.1992,3.3054,3.3481,3.3983,3.4715,3.6263,3.7066,3.7661,3.8487,3.8707,3.8909,3.9703,3.9282,3.9129,4.0726,4.0478,3.9896,3.9878,3.9265,3.8773,3.9063,3.908,3.8651,3.7329,0.0,0.0,0.0,3.4342,0.0,3.2961,3.2179,3.1352,3.0475,3.0398,3.0398,3.0398,0.0,0.0,0.0,0.0,0.0,3.2515,3.468,0.0,3.5485,3.6039,3.6303,3.6303,3.6303,3.6303,3.634,3.7129,3.7526,3.7581,3.8358,3.8689,3.8689,3.8689,3.8689,3.8689,3.8689,3.9191,3.9884,3.9877,4.0914,4.2292,4.2018,4.1723,4.167,4.2454,4.2149,4.1864,4.203,4.185,4.1393,4.0473,4.0629,4.0696,4.0391,4.0222,4.0288,0.0,4.0391,4.007,0.0,4.0256,4.0375,4.0375,3.943,3.8743,3.8438,3.638,3.484,3.3878,0.0,0.0,0.0,3.1334,3.0758,2.9933,3.016,3.0137,2.9951,3.0578,3.0858,3.0875,3.1123,3.1077,3.0896,3.1096,3.104,3.0886,3.1106,3.119,3.119,3.119,3.1765,3.2608,3.3242,3.4387,3.5578,3.645,3.7207,3.7907,3.8523,3.9093,3.957,3.9845,4.0139,4.0487,4.1001,4.0483,3.989,3.9896,3.9265,3.8719,3.8833,3.8815,3.8571,3.7766,3.6718,0.0,3.4945,0.0,3.2237,3.2656,3.2115,3.1583,3.1314,3.1295,3.1295,0.0,0.0,0.0,0.0,0.0,0.0,0.0,3.4756,0.0,3.5769,3.6665,3.6835,3.6285,3.5697,3.5734,3.634,3.7698,3.8322,3.8322,3.8597,3.8395,3.7863,3.7863,3.7863,3.7863,3.7893,3.9044,4.0712,4.0725,4.1738,4.3137,4.1452,4.129,4.1307,4.1834,4.1494,4.1222,4.1409,4.1392,4.1052,4.0206,4.0476,4.0612,4.0172,4.007,0.0,4.0764,4.0375,4.007,4.007,4.007,3.9968,3.9688,3.8814,3.8081,3.7518,3.6101,0.0,3.4175,3.3812,3.3389,3.2835,3.1905,3.1072,3.0382,3.0378,3.0594,3.0926,3.114,3.1348,3.1613,3.1314,3.1026,3.0815,3.1079,3.1023,3.0806,3.1089,3.1376,3.1562,3.1275,3.2053,3.3152,3.3339,3.45,3.5883,3.6447,3.7077,3.772,3.805,3.8715,3.942,3.9899,4.0397,4.0826,4.106,4.0708,4.0244,3.9945,3.9252,3.8707,3.8707,3.8707,3.8394,3.747,3.62,3.5021,3.417,0.0,3.1419,3.2473,0.0,0.0,0.0,3.216,3.2025,0.0,0.0,0.0,0.0,0.0,0.0,3.3192,3.5211,3.6415,3.6644,3.7507,3.7386,3.6285,3.544,3.5789,3.7221,3.7936,3.8414,3.8707,3.8707,3.8414,3.7936,3.7936,3.7936,3.7936,3.7948,3.9258,4.1088,4.1108,4.212,4.3497,4.0832,4.0442,4.007,4.007,4.007,4.007,4.007,4.007,4.007,4.007,4.007,4.007,4.007,4.007,4.007,4.007,0.0,0.0,4.007,4.007,3.9793,3.9129,3.8384,3.762,3.6911,3.6084,3.5296,3.4482,3.3478,3.3184,3.3468,3.1583,3.105,3.1698,3.0667,3.0926,3.2173,3.1501,3.1585,3.2156,3.1489,3.0798,3.0267,3.0946,3.0755,3.0289,3.1026,3.1715,3.2188,3.1562,3.2747,3.437,3.3694,3.4455,3.5722,3.6243,3.6759,3.7135,3.7173,3.7757,3.8614,3.9912,4.0291,4.0492,4.0994,4.113,4.0937,4.0097,3.9294,3.8781,3.8707,3.8652,3.8083,3.6468,3.5459,3.4373,3.3013,3.1533,3.1089,3.2406,0.0,0.0,3.2897,3.2949,3.2602,0.0,0.0,0.0,0.0,0.0,3.4242,3.3798,3.6001,3.7413,3.7891,3.839,3.7808,3.6193,3.5459,3.6321,3.8505,3.7808,3.7936,3.8707,3.8707,3.8707,3.8707,3.8707,3.8707,3.8707,3.8762,3.9731,4.1089,4.1163,4.2161,4.3497,0.0,0.0,4.007,4.007,4.007,4.007,4.007,4.007,4.007,4.007,4.007,4.007,4.007,4.007,4.007,4.007,4.007,4.007,4.007,4.007,4.0035,3.9846,3.9152,3.8368,3.7631,3.6876,3.5853,3.4482,3.4058,3.3376,3.2591,3.1862,3.1455,3.1331,3.105,3.114,3.1467,3.1264,3.1324,3.1455,3.128,3.1111,3.0963,3.1145,3.1072,3.106,3.1793,3.2148,3.2341,3.2747,3.3592,3.4455,3.4286,3.4878,3.5694,3.6256,3.6504,3.6684,3.7114,3.7757,3.8575,3.9455,4.0897,4.1941,4.1269,4.1589,4.1622,4.0175,3.9753,3.9423,3.8817,3.8193,3.7239,3.5587,3.4119,3.264,3.1078,3.0713,3.1009,0.0,3.2849,3.3391,3.3859,3.3295,3.3103,0.0,0.0,3.4026,3.3622,3.5576,3.6112,3.4748,3.6854,3.7981,3.7891,3.7819,3.6945,3.5302,3.5771,3.6303,3.6872,3.7294,3.7936,3.8707,3.8707,3.8707,3.8707,3.8707,3.8707,3.8762,3.9375,4.0204,4.1182,4.1787,4.2671,4.3497,4.007,4.007,4.007,4.007,4.007,4.007,4.007,3.98,3.9665,4.0037,3.9783,3.9665,4.0054,4.007,4.007,4.007,4.007,4.007,4.007,4.007,3.9969,3.9615,3.9234,3.8503,3.7408,3.7012,3.6214,3.4987,3.4515,3.3948,3.3271,3.2445,3.1947,3.1681,3.1365,3.1438,3.1698,3.1341,3.139,3.1664,3.1331,3.119,3.119,3.119,3.119,3.1309,3.2039,3.2536,3.2848,3.3271,3.4117,3.4945,3.4607,3.5013,3.5667,3.5941,3.6011,3.6097,3.6399,3.7314,3.8554,4.0147,4.1618,4.2591,4.2276,4.2249,4.2047,4.1185,4.0396,3.9772,3.9331,3.8285,3.6945,3.5265,3.3972,3.2596,3.0962,3.0867,3.1504,3.2927,3.3636,3.4396,3.5432,3.5223,3.5055,3.5151,3.5643,0.0,3.5353,3.7077,3.7262,3.542,3.7149,3.8171,3.8266,3.7761,3.7221,3.6707,3.6431,3.6688,3.7404,3.7459,3.7936,3.8707,3.8707,3.8707,3.8707,3.8707,3.8927,3.9282,3.9737,4.0633,4.1691,4.2145,4.2805,4.3497,4.007,4.007,4.007,4.007,4.0003,3.9935,3.9935,3.9228,3.8992,3.964,3.9158,3.9043,3.9817,3.9935,3.9986,4.007,4.007,4.007,4.007,4.007,3.9817,3.9194,3.9177,3.8488,3.6997,3.6734,3.6265,3.5622,3.4864,3.4387,3.4172,3.2844,3.2141,3.1993,3.1325,3.1331,3.1822,3.1297,3.1438,3.1964,3.1438,3.128,3.1365,3.1365,3.1365,3.1484,3.2317,3.2959,3.3415,3.3677,3.4573,3.5504,3.4861,3.5115,3.5622,3.5622,3.5622,3.5639,3.5757,3.6907,3.8628,4.0875,4.1984,4.2696,4.321,4.2873,4.2451,4.2323,4.1203,4.0175,3.9937,3.8469,3.6835,3.544,3.4211,3.2999,3.1751,0.0,3.2354,3.4003,3.4423,3.5226,3.6945,3.7182,3.7091,3.6709,3.745,3.7655,3.7045,3.8344,3.8245,3.6374,3.7468,3.8294,3.8707,3.801,3.7955,3.8505,3.7129,3.7202,3.8505,3.7808,3.7936,3.8707,3.8707,3.8707,3.8707,3.8836,3.9263,3.9923,4.0178,4.1089,4.2294,4.2441,4.2896,4.3497,4.007,4.007,4.007,4.007,3.9564,3.9076,3.9076,3.8455,3.8027,3.8152,3.8066,3.8254,3.9009,3.9076,3.9379,4.0037,4.007,4.007,4.007,4.007,4.0037,3.9952,3.9952,3.9261,3.777,3.6464,3.5723,3.5622,3.4857,3.3872,3.2701,3.1933,3.1246,3.0682,2.9999,2.9761,2.9861,3.0264,3.0527,3.0651,3.1033,3.1557,3.2139,3.2139,3.2139,3.231,3.3666,3.3821,3.3599,3.4851,3.5436,3.5605,3.5487,3.552,3.5622,3.5622,3.5622,3.5757,3.6417,3.7686,3.8973,3.9663,4.092,4.2024,4.2391,4.291,4.3112,4.2433,4.2103,4.1515,4.0139,3.8028,3.6395,3.6138,3.366,3.1916,3.2357,0.0,3.3626,3.4134,3.5442,3.6534,3.7058,3.6484,3.6704,3.829,3.7888,3.7829,3.844,3.9762,3.9914,3.8614,3.8801,3.8832,3.8707,3.8579,3.823,3.7661,3.7422,3.7422,3.7661,3.7581,3.7936,3.8707,3.8707,3.8707,3.8762,3.9423,3.979,4.0029,4.1411,4.2073,4.2371,4.3039,4.3387,4.3497,4.007,3.9767,3.9446,3.9446,3.8824,3.8295,3.8309,3.7648,3.7301,3.7769,3.7449,3.76,3.875,3.89,3.9211,4.002,4.007,4.007,4.007,4.007,4.007,4.007,4.007,3.9628,3.8503,3.6595,3.581,3.6248,3.4695,3.3812,3.355,3.2111,3.144,3.1505,3.0791,3.0275,2.9945,3.0229,3.032,3.037,3.1033,3.1698,3.2344,3.2756,3.29,3.301,3.4103,3.426,3.4141,3.5222,3.5893,3.6248,3.6248,3.6518,3.6772,3.6366,3.6248,3.6417,3.7178,3.8176,3.9214,4.0043,4.0806,4.1481,4.1938,4.2574,4.2959,4.2596,4.2408,4.1937,4.0763,3.856,3.6798,3.6358,3.4266,0.0,3.3762,3.4229,3.5,3.6454,3.7304,3.8173,3.9147,3.904,3.9108,3.9561,3.9138,3.9145,3.9835,4.0019,3.999,3.976,3.96,3.9257,3.8707,3.8707,3.8363,3.7703,3.8028,3.7979,3.7735,3.801,3.834,3.8726,3.9166,3.9093,3.8762,3.957,4.0157,4.0616,4.135,4.2173,4.2996,4.3367,4.3497,4.3497,3.9851,3.9345,3.8839,3.8649,3.8002,3.7536,3.7492,3.6823,3.6591,3.7166,3.6763,3.6949,3.8484,3.8464,3.8824,4.0003,3.9952,3.9885,4.007,4.007,4.007,4.007,3.9952,3.9657,3.9254,3.7215,3.6354,3.6791,3.4936,3.4047,3.4103,3.2268,3.1688,3.1982,3.1313,3.0609,2.9979,3.0123,3.0085,2.998,3.0975,3.1772,3.2442,3.3305,3.3656,3.3773,3.4472,3.4626,3.4641,3.5571,3.6282,3.6806,3.6992,3.7432,3.7787,3.7212,3.7161,3.7415,3.8007,3.8684,3.9491,4.0642,4.0938,4.1139,4.1682,4.2162,4.2519,4.2655,4.2541,4.2187,4.1501,3.9405,3.7624,3.7202,0.0,3.4504,3.5669,3.5852,3.6652,3.8726,3.9148,3.9753,4.1001,4.1342,4.1237,4.0654,4.0263,4.0333,4.0942,4.0334,4.0124,4.0484,3.9909,3.9405,3.8982,3.8799,3.8433,3.7893,3.8318,3.83,3.7893,3.8201,3.8483,3.8744,3.942,3.942,3.9056,4.0047,4.0818,4.1405,4.1592,4.2399,4.3497,4.3497,4.3497,4.3497,3.916,3.8959,3.8685,3.7966,3.721,3.6679,3.6702,3.6029,3.5629,3.5659,3.5644,3.6155,3.7682,3.7199,3.7669,3.9935,3.9413,3.9278,4.0037,4.007,4.007,4.007,3.9446,3.9404,4.0023,3.8514,3.7431,3.6791,3.5921,3.4595,3.2741,3.1965,3.123,3.0611,3.0001,2.9381,2.8773,2.9327,2.9223,2.8765,3.0667,3.1858,3.2646,3.3913,3.4432,3.4544,3.5256,3.5076,3.474,3.6219,3.6738,3.6907,3.7601,3.7872,3.7889,3.7838,3.8294,3.8836,3.8903,3.9445,4.0186,4.0763,4.0903,4.1041,4.1664,4.1835,4.2021,4.2559,4.2696,4.2575,4.2292,4.0249,3.8836,3.9515,0.0,0.0,3.8102,3.8432,3.8781,3.9698,4.0469,4.0983,4.1111,4.1111,4.1248,4.1481,4.0747,4.0635,4.1511,4.1464,4.1308,4.1034,3.957,3.9129,3.979,3.9074,3.8433,3.7893,3.7946,3.7946,3.7911,3.747,3.7826,3.8713,3.9018,3.9413,3.9918,4.1479,4.2158,4.2286,4.302,4.3387,4.3497,4.3497,4.3497,4.3428,3.8975,3.8121,3.7385,3.7097,3.6436,3.5954,3.5954,3.5674,3.5504,3.5504,3.5504,3.611,3.7636,3.752,3.8068,3.9919,3.9351,3.9026,3.9362,3.9379,3.9581,4.007,3.9396,3.9126,3.9401,3.7519,3.6423,3.6121,3.4565,3.3373,3.2576,3.1865,3.1407,3.1127,3.0878,3.0431,2.9809,2.9887,3.0104,3.0382,3.064,3.1932,3.3834,3.4807,3.5166,3.5256,3.6064,3.6164,3.6088,3.7138,3.779,3.8193,3.8481,3.8886,3.9242,3.9242,3.914,3.9089,3.9546,3.9868,4.0171,4.0368,4.0417,4.0449,4.0672,4.1013,4.1313,4.1534,4.1895,4.2034,4.1796,4.058,3.9831,4.0514,0.0,3.7973,3.9937,3.9772,3.9918,4.1222,4.1662,4.2047,4.2543,4.2598,4.2426,4.2073,4.192,4.1895,4.205,4.2018,4.2044,4.2105,4.0507,3.9563,3.9345,3.9088,3.8528,3.7629,3.7554,3.7534,3.7668,3.8183,3.8833,3.969,4.0664,4.0924,4.0726,4.1846,4.2304,4.2289,4.2231,4.2522,4.2973,4.2559,4.2432,4.2412,3.8226,3.7306,3.6511,3.631,3.5829,3.5504,3.5504,3.5504,3.5504,3.5504,3.5504,3.5984,3.7292,3.7199,3.7695,3.9214,3.8652,3.8299,3.8521,3.838,3.8807,4.0037,3.9615,3.916,3.869,3.7202,3.5976,3.5053,3.365,3.271,3.2264,3.1732,3.1482,3.1482,3.1482,3.107,3.0395,3.0253,3.0418,3.0717,3.1018,3.2237,3.4013,3.5166,3.5622,3.5695,3.6248,3.6586,3.69,3.7663,3.8415,3.9039,3.9259,3.9681,4.007,4.007,3.9715,3.9445,3.9935,4.007,4.007,4.007,4.007,4.007,4.007,4.0368,4.0703,4.0874,4.1223,4.1531,4.1533,4.0991,4.0709,4.1136,4.0207,3.9937,4.1295,4.1001,4.1148,4.2525,4.2671,4.2892,4.3442,4.3497,4.3259,4.2708,4.2678,4.2543,4.2304,4.2388,4.2377,4.2296,4.1258,4.0224,3.921,3.8974,3.8383,3.7482,3.7358,3.7393,3.7542,3.8496,3.9423,4.0257,4.1504,4.1714,4.1244,4.2087,4.2315,4.2104,4.1665,4.1902,4.2364,4.1931,4.1805,4.1789,3.6735,3.6622,3.634,3.5644,3.5504,3.5504,3.5504,3.5504,3.5504,3.5504,3.5504,3.5799,3.6496,3.5975,3.614,3.7652,3.7052,3.6928,3.7738,3.7142,3.7769,3.9986,4.0054,3.9413,3.8037,3.7976,3.6588,3.3725,3.3667,3.292,3.1482,3.1482,3.1482,3.1482,3.1482,3.1025,3.022,3.022,2.9724,2.9158,3.1895,3.285,3.2817,3.4824,3.5622,3.5622,3.5639,3.6111,3.692,3.7663,3.8396,3.9123,3.9851,4.007,4.007,4.007,4.007,4.007,4.007,4.007,4.007,4.007,4.007,4.007,4.007,4.007,4.0237,4.078,4.0903,4.1087,4.1664,4.1564,4.1393,4.143,4.1265,4.1405,4.2194,4.2304,4.2598,4.3406,4.3497,4.3497,4.3497,4.3497,4.3497,4.3497,4.2763,4.2304,4.2304,4.2559,4.2314,4.1411,4.1635,4.1121,3.9721,3.8772,3.8041,3.7499,3.7499,3.7499,3.7534,3.8365,3.9271,4.0238,4.1121,4.147,4.1449,4.2347,4.2341,4.1819,4.1801,4.1777,4.181,4.181,4.181,4.1707,3.6645,3.617,3.5784,3.5534,3.5504,3.5504,3.5504,3.5504,3.5504,3.5504,3.5504,3.5799,3.6496,3.6414,3.6689,3.7726,3.6597,3.583,3.5614,3.6337,3.6829,3.7046,3.7541,3.7836,3.792,3.6482,3.5007,3.3621,3.3127,3.2412,3.1482,3.1983,3.1968,3.1482,3.1482,3.1334,3.1127,3.1127,3.1252,3.1647,3.3265,3.3966,3.4125,3.5183,3.5622,3.5757,3.684,3.7388,3.7748,3.9006,3.958,3.9783,4.0003,4.007,4.007,4.007,4.007,4.007,4.007,4.007,4.007,4.007,4.007,4.007,4.007,4.007,4.0171,4.0286,4.0319,4.0642,4.1639,4.1724,4.1948,4.2741,4.2842,4.2873,4.3112,4.313,4.3222,4.3461,4.3497,4.3497,4.3497,4.3497,4.3497,4.3497,4.3277,4.2973,4.2595,4.2662,4.2177,4.1078,4.1128,4.077,4.0012,3.9576,3.9091,3.8564,3.8052,3.8069,3.8581,3.9652,4.032,4.077,4.1863,4.2087,4.1717,4.1952,4.1967,4.1736,4.1341,4.1165,4.1133,4.0767,4.0594,4.0594,3.6155,3.5814,3.5504,3.5504,3.5504,3.5504,3.5504,3.5504,3.5504,3.5504,3.5504,3.5674,3.614,3.6155,3.634,3.6823,3.5821,3.5009,3.4658,3.5145,3.5422,3.5363,3.5444,3.5714,3.6204,3.5242,3.4053,3.2755,3.2309,3.1871,3.1526,3.1915,3.188,3.1482,3.1482,3.1482,3.1482,3.1482,3.1569,3.1817,3.3357,3.3775,3.3544,3.4662,3.511,3.526,3.6569,3.7035,3.7268,3.8739,3.9446,3.9649,3.9649,3.9851,4.007,4.007,4.007,4.007,4.007,4.007,4.007,4.007,4.007,4.007,4.007,4.007,4.007,4.007,4.007,4.0286,4.0984,4.1508,4.2021,4.2734,4.3196,4.3497,4.3497,4.3497,4.3497,4.3497,4.3497,4.3497,4.3497,4.3497,4.3497,4.3497,4.3497,4.325,4.275,4.2711,4.2162,4.0949,4.0903,4.0655,4.0138,3.9973,3.9597,3.8988,3.8548,3.8565,3.9054,4.0242,4.0823,4.0965,4.1926,4.1991,4.1443,4.1454,4.1337,4.1103,4.0733,4.0586,4.0528,4.0204,4.007,4.007,3.5504,3.5504,3.5504,3.5504,3.5504,3.5504,3.5504,3.5504,3.5504,3.5504,3.5504,3.5504,3.5504,3.5504,3.5504,3.5504,3.4866,3.4469,3.4303,3.3834,3.3873,3.4485,3.3941,3.3567,3.3598,3.418,3.358,3.1599,3.1584,3.1543,3.1475,3.1559,3.1569,3.1482,3.1482,3.1482,3.1482,3.1482,3.104,3.0498,3.2695,3.2792,3.1895,3.3629,3.4233,3.4278,3.5289,3.5636,3.5904,3.7484,3.842,3.9026,3.9026,3.9514,4.007,4.0003,4.002,4.007,4.007,4.007,4.007,4.007,4.007,4.007,4.007,4.007,4.007,4.007,4.007,4.0121,4.0171,4.103,4.175,4.1853,4.2734,4.3444,4.3479,4.3497,4.3497,4.3497,4.3497,4.3497,4.3497,4.3497,4.3497,4.3497,4.3497,4.325,4.275,4.2711,4.2162,4.1041,4.0949,4.0655,4.0171,4.0121,3.9749,3.9089,3.9089,3.9089,3.9156,4.0345,4.0863,4.0878,4.1472,4.1381,4.0835,4.0834,4.0561,4.007,4.007,4.007,4.007,4.007,4.007,4.007,3.5504,3.5504,3.5504,3.5504,3.5504,3.5504,3.5504,3.5504,3.5504,3.5504,3.5504,3.5504,3.5504,3.5504,3.5504,3.5504,3.4872,3.4038,3.2991,3.3793,3.3916,3.299,3.3887,3.3862,3.2764,3.2967,3.2829,3.2324,3.2309,3.2017,3.1531,3.2017,3.1998,3.1482,3.1482,3.1482,3.1482,3.1482,3.1407,3.1319,3.2561,3.2859,3.2726,3.3878,3.3836,3.3326,3.4502,3.524,3.5995,3.8034,3.8831,3.8988,3.8988,3.9495,3.9969,3.9394,3.9631,4.007,4.007,4.007,4.007,4.007,4.007,4.007,4.007,4.007,4.007,4.007,4.007,4.0254,4.0655,4.0903,4.1402,4.2342,4.2693,4.3014,4.3444,4.3497,4.3497,4.3497,4.3497,4.3497,4.3497,4.3497,4.3497,4.3497,4.3497,4.325,4.275,4.2711,4.2342,4.1621,4.1133,4.0856,4.075,4.0336,4.0003,3.9834,3.9834,3.9834,3.9901,4.0586,4.0685,4.03,4.0866,4.0806,4.0259,4.0269,4.0206,4.007,4.007,4.007,4.007,4.007,4.007,4.007,3.5504,3.5504,3.5504,3.5504,3.5504,3.5504,3.5504,3.5504,3.5504,3.5504,3.5504,3.5504,3.5504,3.5504,3.5504,3.5504,3.4887,3.4215,3.349,3.4102,3.3924,3.2551,3.3487,3.3442,3.2043,3.2043,3.2101,3.2101,3.2028,3.185,3.1482,3.1865,3.185,3.1467,3.1172,3.1187,3.1452,3.0863,3.0761,3.107,3.1895,3.1983,3.1715,3.2607,3.2671,3.2394,3.3755,3.509,3.6296,3.6726,3.7573,3.8487,3.8487,3.8974,3.9562,3.9512,3.9783,4.007,4.007,4.007,4.007,4.007,4.007,4.007,4.007,4.007,4.007,4.007,4.007,4.0221,4.0449,4.075,4.1223,4.2121,4.2519,4.2902,4.341,4.3497,4.3497,4.3497,4.3497,4.3497,4.3497,4.3497,4.3497,4.3497,4.3497,4.325,4.275,4.2939,4.2675,4.1853,4.149,4.1178,4.0903,4.0368,4.007,4.007,4.007,4.007,4.0121,4.0368,4.0368,4.0121,4.0384,4.0371,4.007,4.007,4.007,4.007,4.007,4.007,4.007,4.007,4.007,4.007,3.5504,3.5504,3.5504,3.5504,3.5504,3.5504,3.5504,3.5504,3.5504,3.5504,3.5504,3.5504,3.5504,3.5504,3.5504,3.5504,3.4887,3.4468,3.4496,3.4493,3.3955,3.2717,3.3171,3.2936,3.1732,3.1569,3.1482,3.1482,3.1482,3.1482,3.1482,3.1482,3.1482,3.1467,3.0908,3.1006,3.1453,3.0393,3.0218,3.0693,3.1273,3.1055,3.0498,3.1202,3.1479,3.1643,3.2863,3.4578,3.6086,3.5255,3.6245,3.7902,3.787,3.8487,3.9257,3.9782,3.9986,4.007,4.007,4.007,4.007,4.007,4.007,4.007,4.007,4.007,4.007,4.007,4.007,4.007,4.007,4.0449,4.0967,4.1534,4.208,4.2637,4.3286,4.3356,4.341,4.3497,4.3497,4.3497,4.3497,4.3497,4.3444,4.3375,4.3444,4.325,4.275,4.3142,4.294,4.1979,4.175,4.1402,4.0903,4.0368,4.007,4.007,4.007,4.007,4.007,4.007,4.007,4.007,4.007,4.007,4.007,4.007,4.007,4.007,4.007,4.007,4.007,4.007,4.007,4.007,3.5504,3.5504,3.5504,3.5504,3.5504,3.5504,3.5504,3.5504,3.5504,3.5504,3.5504,3.5504,3.5504,3.5504,3.5504,3.5504,3.4887,3.4475,3.452,3.4505,3.4194,3.3383,3.3456,3.312,3.2412,3.182,3.1482,3.1482,3.1482,3.1482,3.1482,3.1482,3.1482,3.1482,3.1422,3.1405,3.1477,3.1298,3.1298,3.1363,3.146,3.1437,3.1319,3.1452,3.148,3.1534,3.1757,3.2703,3.4216,3.5803,3.7009,3.7809,3.7804,3.8787,3.9867,3.9292,3.958,4.007,4.007,4.007,4.007,4.007,4.007,4.007,4.007,4.007,4.007,4.007,4.007,4.007,4.007,4.0171,4.0368,4.0949,4.1087,4.1534,4.2637,4.2826,4.2976,4.3444,4.3497,4.3497,4.3497,4.3497,4.3304,4.2864,4.325,4.325,4.275,4.2788,4.275,4.2559,4.1578,4.0995,4.0903,4.0368,4.007,4.007,4.007,4.007,4.007,4.007,4.007,4.007,4.007,4.007,4.007,4.007,4.007,4.007,4.007,4.007,4.007,4.007,4.007,4.007,3.5504,3.5504,3.5504,3.5504,3.5504,3.5504,3.5504,3.5504,3.5504,3.5504,3.518,3.4916,3.4916,3.4916,3.507,3.5489,3.5225,3.5056,3.5056,3.5056,3.4569,3.3546,3.3513,3.3008,3.1983,3.1267,3.0881,3.075,3.1243,3.1482,3.1482,3.1482,3.1482,3.1467,3.1127,3.1159,3.1472,3.0768,3.0866,3.1448,3.1091,3.1172,3.1482,3.1482,3.1482,3.1482,3.1482,3.2661,3.4226,3.4678,3.5912,3.7198,3.7194,3.7945,3.8824,3.8938,3.9479,4.007,4.007,4.007,4.007,4.007,4.007,4.007,4.007,4.007,4.007,4.007,4.007,4.007,4.007,4.007,4.0286,4.0827,4.0903,4.1206,4.2062,4.2203,4.2284,4.2523,4.2562,4.2562,4.2562,4.2562,4.2444,4.2203,4.2404,4.2444,4.2203,4.2203,4.2203,4.2203,4.1358,4.0903,4.0903,4.0368,4.007,4.007,4.007,4.007,4.007,4.007,4.007,4.007,4.007,4.007,4.007,4.007,4.007,4.007,4.007,4.007,4.007,4.007,4.007,4.007]},{"header":{"parameterUnit":"m.s-1","parameterCategory":1,"la1":30.6,"la2":28.766,"lo1":-90.7593,"lo2":-88.6598,"dy":0.0162,"dx":0.0183,"nx":116,"ny":114,"refTime":"2023-11-04T00:00:00:Z","depth":0,"parameterNumber":3,"parameterNumberName":"V-component_of_WINDS"},"data":[0.0,0.0,0.0,0.0,0.0,0.0,0.0,0.0,0.0,0.0,0.0,0.0,0.0,0.0,0.0,0.0,0.0,0.0,0.0,0.0,0.0,0.0,0.0,0.0,0.0,0.0,0.0,0.0,0.0,0.0,0.0,0.0,0.0,0.0,0.0,0.0,0.0,0.0,0.0,0.0,0.0,0.0,0.0,0.0,0.0,0.0,0.0,0.0,0.0,0.0,0.0,0.0,0.0,0.0,0.0,0.0,0.0,0.0,0.0,0.0,0.0,0.0,0.0,0.0,0.0,0.0,0.0,0.0,0.0,0.0,0.0,0.0,0.0,0.0,0.0,0.0,0.0,0.0,0.0,0.0,0.0,0.0,0.0,0.0,0.0,0.0,0.0,0.0,0.0,0.0,0.0,0.0,0.0,0.0,0.0,0.0,0.0,0.0,0.0,0.0,0.0,0.0,0.0,0.0,0.0,0.0,0.0,0.0,0.0,0.0,0.0,0.0,0.0,0.0,0.0,0.0,0.0,0.0,0.0,0.0,0.0,0.0,0.0,0.0,0.0,0.0,0.0,0.0,0.0,0.0,0.0,0.0,0.0,0.0,0.0,0.0,0.0,0.0,0.0,0.0,0.0,0.0,0.0,0.0,0.0,0.0,0.0,0.0,0.0,0.0,0.0,0.0,0.0,0.0,0.0,0.0,0.0,0.0,0.0,0.0,0.0,0.0,0.0,0.0,0.0,0.0,0.0,0.0,0.0,0.0,0.0,0.0,0.0,0.0,0.0,0.0,0.0,0.0,0.0,0.0,0.0,0.0,0.0,0.0,0.0,0.0,0.0,0.0,0.0,0.0,0.0,0.0,0.0,0.0,0.0,0.0,0.0,0.0,0.0,0.0,0.0,0.0,0.0,0.0,0.0,0.0,0.0,0.0,0.0,0.0,0.0,0.0,0.0,0.0,0.0,0.0,0.0,0.0,0.0,0.0,0.0,0.0,0.0,0.0,0.0,0.0,0.0,0.0,0.0,0.0,0.0,0.0,0.0,0.0,0.0,0.0,0.0,0.0,0.0,0.0,0.0,0.0,0.0,0.0,0.0,0.0,0.0,0.0,0.0,0.0,0.0,0.0,0.0,0.0,0.0,0.0,0.0,0.0,0.0,0.0,0.0,0.0,0.0,0.0,0.0,0.0,0.0,0.0,0.0,0.0,0.0,0.0,0.0,0.0,0.0,0.0,0.0,0.0,0.0,0.0,0.0,0.0,0.0,0.0,0.0,0.0,0.0,0.0,0.0,0.0,0.0,0.0,0.0,0.0,0.0,0.0,0.0,0.0,0.0,0.0,0.0,0.0,0.0,0.0,0.0,0.0,0.0,0.0,0.0,0.0,0.0,0.0,0.0,0.0,0.0,0.0,0.0,0.0,0.0,0.0,0.0,0.0,0.0,0.0,0.0,0.0,0.0,0.0,0.0,0.0,0.0,0.0,0.0,0.0,0.0,0.0,0.0,0.0,0.0,0.0,0.0,0.0,0.0,0.0,0.0,0.0,0.0,0.0,0.0,0.0,0.0,0.0,0.0,0.0,0.0,0.0,0.0,0.0,0.0,0.0,0.0,0.0,0.0,0.0,0.0,0.0,0.0,0.0,0.0,0.0,0.0,0.0,0.0,0.0,0.0,0.0,0.0,0.0,0.0,0.0,0.0,0.0,0.0,0.0,0.0,0.0,0.0,0.0,0.0,0.0,0.0,0.0,0.0,0.0,0.0,0.0,0.0,0.0,0.0,0.0,0.0,0.0,0.0,0.0,0.0,0.0,0.0,0.0,0.0,0.0,0.0,0.0,0.0,0.0,0.0,0.0,0.0,0.0,0.0,0.0,0.0,0.0,0.0,0.0,0.0,0.0,0.0,0.0,0.0,0.0,0.0,0.0,0.0,0.0,0.0,0.0,0.0,0.0,0.0,0.0,0.0,0.0,0.0,0.0,0.0,0.0,0.0,0.0,0.0,0.0,0.0,0.0,0.0,0.0,0.0,0.0,0.0,0.0,0.0,0.0,0.0,0.0,0.0,0.0,0.0,0.0,0.0,0.0,0.0,0.0,0.0,0.0,0.0,0.0,0.0,0.0,0.0,0.0,0.0,0.0,0.0,0.0,0.0,0.0,0.0,0.0,0.0,0.0,0.0,0.0,0.0,0.0,0.0,0.0,0.0,0.0,0.0,0.0,0.0,0.0,0.0,0.0,0.0,0.0,0.0,0.0,0.0,0.0,0.0,0.0,0.0,0.0,0.0,0.0,0.0,0.0,0.0,0.0,0.0,0.0,0.0,0.0,0.0,0.0,0.0,0.0,0.0,0.0,0.0,0.0,0.0,0.0,0.0,0.0,0.0,0.0,0.0,0.0,0.0,0.0,0.0,0.0,0.0,0.0,0.0,0.0,0.0,0.0,0.0,0.0,0.0,0.0,0.0,0.0,0.0,0.0,0.0,0.0,0.0,0.0,0.0,0.0,0.0,0.0,0.0,0.0,0.0,0.0,0.0,0.0,0.0,0.0,0.0,0.0,0.0,0.0,0.0,0.0,0.0,0.0,0.0,0.0,0.0,0.0,0.0,0.0,0.0,0.0,0.0,0.0,0.0,0.0,0.0,0.0,0.0,0.0,0.0,0.0,0.0,0.0,0.0,0.0,0.0,0.0,0.0,0.0,0.0,0.0,0.0,0.0,0.0,0.0,0.0,0.0,0.0,0.0,0.0,0.0,0.0,0.0,0.0,0.0,0.0,0.0,0.0,0.0,0.0,0.0,0.0,0.0,0.0,0.0,0.0,0.0,0.0,0.0,0.0,0.0,0.0,0.0,0.0,0.0,0.0,0.0,0.0,0.0,0.0,0.0,0.0,0.0,0.0,0.0,0.0,0.0,0.0,0.0,0.0,0.0,0.0,0.0,0.0,0.0,0.0,0.0,0.0,0.0,0.0,0.0,0.0,0.0,0.0,0.0,0.0,0.0,0.0,0.0,0.0,0.0,0.0,0.0,0.0,0.0,0.0,0.0,0.0,0.0,0.0,0.0,0.0,0.0,0.0,0.0,0.0,0.0,0.0,0.0,0.0,0.0,0.0,0.0,0.0,0.0,0.0,0.0,0.0,0.0,0.0,0.0,0.0,0.0,0.0,0.0,0.0,0.0,0.0,0.0,0.0,0.0,0.0,0.0,0.0,0.0,0.0,0.0,0.0,0.0,0.0,0.0,0.0,0.0,0.0,0.0,0.0,0.0,0.0,0.0,0.0,0.0,0.0,0.0,0.0,0.0,0.0,0.0,0.0,0.0,0.0,0.0,0.0,0.0,0.0,0.0,0.0,0.0,0.0,0.0,0.0,0.0,0.0,0.0,0.0,0.0,0.0,0.0,0.0,0.0,0.0,0.0,0.0,0.0,0.0,0.0,0.0,0.0,0.0,0.0,0.0,0.0,0.0,0.0,0.0,0.0,0.0,0.0,0.0,0.0,0.0,0.0,0.0,0.0,0.0,0.0,0.0,0.0,0.0,0.0,0.0,0.0,0.0,0.0,0.0,0.0,0.0,0.0,0.0,0.0,0.0,0.0,0.0,0.0,0.0,0.0,0.0,0.0,0.0,0.0,0.0,0.0,0.0,0.0,0.0,0.0,0.0,0.0,0.0,0.0,0.0,0.0,0.0,0.0,0.0,0.0,0.0,0.0,0.0,0.0,0.0,0.0,0.0,0.0,0.0,0.0,0.0,0.0,0.0,0.0,0.0,0.0,0.0,0.0,0.0,0.0,0.0,0.0,0.0,0.0,0.0,0.0,0.0,0.0,0.0,0.0,0.0,0.0,0.0,0.0,0.0,0.0,0.0,0.0,0.0,0.0,0.0,0.0,0.0,0.0,0.0,0.0,0.0,0.0,0.0,0.0,0.0,0.0,0.0,0.0,0.0,0.0,0.0,0.0,0.0,0.0,0.0,0.0,0.0,0.0,0.0,0.0,0.0,0.0,0.0,0.0,0.0,0.0,0.0,0.0,0.0,0.0,0.0,0.0,0.0,0.0,0.0,0.0,0.0,0.0,0.0,0.0,0.0,0.0,0.0,0.0,0.0,0.0,0.0,0.0,0.0,0.0,0.0,0.0,0.0,0.0,0.0,0.0,0.0,0.0,0.0,0.0,0.0,0.0,0.0,0.0,0.0,0.0,0.0,0.0,0.0,0.0,0.0,0.0,0.0,0.0,0.0,0.0,0.0,0.0,0.0,0.0,0.0,0.0,0.0,0.0,0.0,0.0,0.0,0.0,0.0,0.0,0.0,0.0,0.0,0.0,0.0,0.0,0.0,0.0,0.0,0.0,0.0,0.0,0.0,0.0,0.0,0.0,0.0,0.0,0.0,0.0,0.0,0.0,0.0,0.0,0.0,0.0,0.0,0.0,0.0,0.0,0.0,0.0,0.0,0.0,0.0,0.0,0.0,0.0,0.0,0.0,0.0,0.0,0.0,0.0,0.0,0.0,0.0,0.0,0.0,0.0,0.0,0.0,0.0,0.0,0.0,0.0,0.0,0.0,0.0,0.0,0.0,0.0,0.0,0.0,0.0,0.0,0.0,0.0,0.0,0.0,0.0,0.0,0.0,0.0,0.0,0.0,0.0,0.0,0.0,0.0,0.0,0.0,0.0,0.0,0.0,0.0,0.0,0.0,0.0,0.0,0.0,0.0,0.0,0.0,0.0,0.0,0.0,0.0,0.0,0.0,0.0,0.0,0.0,0.0,0.0,0.0,0.0,0.0,0.0,0.0,0.0,0.0,0.0,0.0,0.0,0.0,0.0,0.0,0.0,0.0,0.0,0.0,0.0,0.0,0.0,0.0,0.0,0.0,0.0,0.0,0.0,0.0,0.0,0.0,0.0,0.0,0.0,0.0,0.0,0.0,0.0,0.0,0.0,0.0,0.0,0.0,0.0,0.0,0.0,0.0,0.0,0.0,0.0,0.0,0.0,0.0,0.0,0.0,0.0,0.0,0.0,0.0,0.0,0.0,0.0,0.0,0.0,0.0,0.0,0.0,0.0,0.0,0.0,0.0,0.0,0.0,0.0,0.0,0.0,0.0,0.0,0.0,0.0,0.0,0.0,0.0,0.0,0.0,0.0,0.0,0.0,0.0,0.0,0.0,0.0,0.0,0.0,0.0,0.0,0.0,0.0,0.0,0.0,0.0,0.0,0.0,0.0,0.0,0.0,0.0,0.0,0.0,0.0,0.0,0.0,0.0,0.0,0.0,0.0,0.0,0.0,0.0,0.0,0.0,0.0,0.0,0.0,0.0,0.0,0.0,0.0,0.0,0.0,0.0,0.0,0.0,0.0,0.0,0.0,0.0,0.0,0.0,0.0,0.0,0.0,0.0,0.0,0.0,0.0,0.0,0.0,0.0,0.0,0.0,0.0,0.0,0.0,0.0,0.0,0.0,0.0,0.0,0.0,0.0,0.0,0.0,0.0,0.0,0.0,0.0,0.0,0.0,0.0,0.0,0.0,0.0,0.0,0.0,0.0,0.0,0.0,0.0,0.0,0.0,0.0,0.0,0.0,0.0,0.0,0.0,0.0,0.0,0.0,0.0,0.0,0.0,0.0,0.0,0.0,0.0,0.0,0.0,0.0,0.0,0.0,0.0,0.0,0.0,0.0,0.0,0.0,0.0,0.0,0.0,0.0,0.0,0.0,0.0,0.0,0.0,0.0,0.0,0.0,0.0,0.0,0.0,0.0,0.0,0.0,0.0,0.0,0.0,0.0,0.0,0.0,0.0,0.0,0.0,0.0,0.0,0.0,0.0,0.0,0.0,0.0,0.0,0.0,0.0,0.0,0.0,0.0,0.0,0.0,0.0,0.0,0.0,0.0,0.0,0.0,0.0,0.0,0.0,0.0,0.0,0.0,0.0,0.0,0.0,0.0,0.0,0.0,0.0,0.0,0.0,0.0,0.0,0.0,0.0,0.0,0.0,0.0,0.0,0.0,0.0,0.0,0.0,0.0,0.0,0.0,0.0,0.0,0.0,0.0,0.0,0.0,0.0,0.0,0.0,0.0,0.0,0.0,0.0,0.0,0.0,0.0,0.0,0.0,0.0,0.0,0.0,0.0,0.0,0.4505,0.0,0.0,0.0,0.0,0.0,0.0,0.0,0.0,0.0,0.0,0.0,0.0,0.0,0.0,0.0,0.0,0.0,0.0,0.0,0.0,0.0,0.0,0.0,0.0,0.0,0.0,0.0,0.0,0.0,0.0,0.0,0.0,0.0,0.0,0.0,0.0,0.0,0.0,0.0,0.4043,0.4378,0.5027,0.6116,0.6944,0.7513,0.0,0.0,0.0,0.0,0.0,0.0,0.0,0.0,0.0,0.0,0.0,0.0,0.0,0.0,0.0,0.0,0.0,0.0,0.0,0.0,0.0,0.0,0.0,0.0,0.0,0.0,0.0,0.0,0.0,0.0,0.0,0.0,0.0,0.0,0.0,0.0,0.0,0.0,0.0,0.0,0.0,0.0,0.0,0.0,0.0,0.0,0.0,0.0,0.0,0.0,0.0,0.0,0.0,0.0,0.0,0.0,0.0,0.0,0.0,0.0,0.0,0.0,0.0,0.0,0.0,0.0,0.0,0.0,0.0,0.0,0.0,0.4507,0.0,0.0,0.0,0.0,0.0,0.0,0.0,0.0,0.0,0.0,0.0,0.0,0.0,0.0,0.0,0.0,0.0,0.0,0.0,0.0,0.0,0.0,0.0,0.0,0.0,0.0,0.0,0.0,0.0,0.0,0.0,0.0,0.0,0.0,0.0,0.0,0.0,0.0,0.3603,0.3946,0.4785,0.607,0.6947,0.7405,0.7597,0.0,0.0,0.0,0.0,0.0,0.0,0.0,0.0,0.0,0.0,0.0,0.0,0.0,0.0,0.0,0.0,0.0,0.0,0.0,0.0,0.0,0.0,0.0,0.0,0.0,0.0,0.0,0.0,0.0,0.0,0.0,0.0,0.0,0.0,0.0,0.0,0.0,0.0,0.0,0.0,0.0,0.0,0.0,0.0,0.0,0.0,0.0,0.0,0.0,0.0,0.0,0.0,0.0,0.0,0.0,0.0,0.0,0.0,0.0,0.0,0.0,0.0,0.0,0.3714,0.5201,0.5705,0.5731,0.5683,0.5686,0.5183,0.4885,0.4777,0.4596,0.0,0.0,0.0,0.0,0.0,0.0,0.0,0.0,0.0,0.0,0.0,0.0,0.0,0.0,0.0,0.0,0.0,0.0,0.0,0.0,0.0,0.0,0.1858,0.1967,0.2093,0.0,0.0,0.0,0.0,0.0,0.0,0.0,0.0,0.3204,0.3282,0.3229,0.3912,0.4514,0.5056,0.5791,0.6399,0.7042,0.7899,0.8844,0.9766,0.0,0.0,0.0,0.0,0.0,0.0,0.0,0.0,0.0,0.0,0.0,0.0,0.0,0.0,0.0,0.0,0.0,0.0,0.0,0.0,0.0,0.0,0.0,0.0,0.0,0.0,0.0,0.0,0.0,0.0,0.0,0.0,0.0,0.0,0.0,0.0,0.0,0.0,0.0,0.0,0.0,0.0789,0.2856,0.0,0.0,0.0,0.0,0.0,0.0,0.0,0.0,0.0,0.0,0.0,0.0,0.0,0.0,0.0,0.0,0.1819,0.546,0.6325,0.6805,0.6882,0.6859,0.6912,0.6867,0.6805,0.0,0.597,0.4948,0.0,0.0,0.0,0.0,0.0,0.0,0.0,0.0,0.0,0.0,0.0,0.0,0.0,0.0,0.0,0.0,0.0,0.0,0.0,0.0,0.0,0.2084,0.2211,0.228,0.271,0.2876,0.0,0.0,0.0,0.0,0.0,0.0,0.2924,0.3082,0.3269,0.3497,0.423,0.4728,0.4882,0.5809,0.638,0.6652,0.7485,0.8322,0.9038,0.8919,0.0,0.0,0.0,0.0,0.0,0.0,0.0,0.0,0.0,0.0,0.0,0.0,0.0,0.0,0.0,0.0,0.0,0.0,0.0,0.0,0.0,0.0,0.0,0.0,0.0,0.0,0.0,0.0,0.0,0.0,0.0,0.0,0.0,0.0,0.0,0.0,0.0,0.0,0.0,0.0,0.0386,0.1462,0.3319,0.4502,0.0,0.0,0.0,0.0,0.0,0.0,0.0,0.0,0.0,0.0,0.0,0.1414,0.4491,0.4494,0.5385,0.7293,0.7505,0.7613,0.7562,0.7631,0.7613,0.7587,0.7587,0.7483,0.7134,0.5993,0.5087,0.4512,0.0,0.0,0.0,0.0,0.5189,0.5369,0.0,0.0,0.0,0.0,0.0,0.0,0.0,0.0,0.0,0.0,0.0,0.0,0.2103,0.2421,0.2634,0.2709,0.32,0.3273,0.2822,0.0,0.0,0.0,0.0,0.2842,0.2983,0.3139,0.3268,0.3263,0.4378,0.4907,0.4996,0.5903,0.6402,0.6405,0.7198,0.7868,0.8375,0.8777,0.8959,0.8989,0.0,0.0,0.0,0.0,0.0,0.0,0.0,0.0,0.0,0.0,0.0,0.0,0.0,0.0,0.0,0.0,0.0,0.0,0.0,0.0,0.0,0.0,0.0,0.0,0.0,0.0,0.0,0.0,0.0,0.0,0.0,0.0,0.0,0.0,0.0,0.0,0.0,-0.0507,0.0,0.0,0.1994,0.3607,0.0,0.0,0.0,0.0,0.0,0.0,0.0,0.0,0.0,0.0,0.133,0.3334,0.5924,0.7339,0.8012,0.7956,0.7973,0.7991,0.8009,0.8009,0.8009,0.8009,0.8009,0.8037,0.7962,0.7083,0.6054,0.4991,0.5438,0.5692,0.5825,0.5809,0.5806,0.5851,0.0,0.0,0.0,0.0,0.0,0.0,0.0,0.0,0.0,0.0,0.0,0.211,0.2427,0.2703,0.2998,0.332,0.3205,0.313,0.31,0.2856,0.2737,0.2716,0.2818,0.2831,0.2733,0.3271,0.3046,0.1914,0.4038,0.5284,0.5641,0.6084,0.629,0.6374,0.7368,0.8147,0.8719,0.8425,0.8763,0.9581,0.9021,0.0,0.0,0.0,0.0,0.0,0.0,0.0,0.0,0.0,0.0,0.0,0.0,0.0,0.0,0.0,0.0,0.0,0.0,0.0,0.0,0.0,0.0,0.0,0.0,0.0,0.0,0.0,0.0,0.0,0.0,0.0,0.0,0.0,0.0,0.0,0.0,0.0,0.0,0.0,0.0117,0.0,0.0,0.0,0.0,0.0466,0.0069,0.0,0.0,0.0,0.0,0.0,0.4953,0.5247,0.0468,0.5458,0.7984,0.7997,0.8004,0.8011,0.8018,0.8018,0.8018,0.8018,0.8018,0.8014,0.795,0.7942,0.724,0.6232,0.6212,0.6596,0.6987,0.7001,0.7008,0.7098,0.0,0.0,0.0,0.0,0.0,0.0,0.0,0.0,0.0,0.1803,0.185,0.196,0.2206,0.2714,0.3262,0.3872,0.3865,0.372,0.3571,0.3368,0.3259,0.3259,0.2969,0.2455,0.1831,0.2994,0.3078,0.2049,0.3245,0.4589,0.6122,0.6285,0.6451,0.6546,0.6919,0.72,0.7509,0.8004,0.8156,0.8057,0.8154,0.8177,0.0,0.0,0.0,0.0,0.0,0.0,0.0,0.0,0.0,0.0,0.0,0.0,0.0,0.0,0.0,0.0,0.0,0.0,0.0,0.0,0.0,0.0,0.0,0.0,0.0,0.0,0.0,0.0,0.0,0.0,0.0,0.0,0.0,0.0,0.0,0.0,0.0,0.0,0.0,0.0,0.1167,0.3242,0.3262,0.0223,0.0,0.0,0.0,0.0,0.159,0.4999,0.6992,0.7075,0.5196,0.7087,0.7955,0.8038,0.8038,0.8038,0.8038,0.8038,0.8038,0.8038,0.8038,0.8038,0.8018,0.7955,0.7726,0.7434,0.7404,0.7534,0.769,0.7706,0.7709,0.77,0.0,0.0,0.0,0.0,0.0,0.0,0.0,0.0,0.0,0.1801,0.1798,0.1758,0.1698,0.2193,0.2775,0.3445,0.3978,0.4158,0.3751,0.3537,0.3402,0.3354,0.2639,0.2104,0.178,0.2151,0.2082,0.147,0.2674,0.4353,0.6441,0.6566,0.6705,0.6851,0.6902,0.6926,0.6987,0.7609,0.7509,0.6865,0.7536,0.768,0.7554,0.0,0.0,0.0,0.0,0.0,0.0,0.0,0.0,0.0,0.0,0.0,0.0,0.0,0.0,0.0,0.0,0.0,0.0,0.0,0.0,0.0,0.0,0.0,0.0,0.0,0.0,0.0,0.0,0.0,0.0,0.0,0.0,0.0,0.0,-0.1928,0.0,0.0,0.0,0.0,0.0,0.1808,0.2163,0.0164,0.0,0.0,0.0,0.1762,0.4371,0.787,0.7979,0.7994,0.8012,0.7979,0.7979,0.8016,0.7962,0.8038,0.8038,0.8038,0.8038,0.8038,0.8038,0.8038,0.8038,0.8038,0.7957,0.8011,0.8048,0.7983,0.7998,0.8006,0.8007,0.799,0.0,0.0,0.0,0.0,0.0,0.0,0.0,0.0,0.1815,0.1816,0.1817,0.1562,0.0974,0.1118,0.153,0.2098,0.3537,0.4167,0.3636,0.3303,0.3021,0.2904,0.1928,0.1772,0.2599,0.0868,0.0,0.0,0.2401,0.4663,0.6676,0.6875,0.7007,0.7153,0.7305,0.7373,0.738,0.738,0.7024,0.643,0.7183,0.7451,0.7319,0.0,0.0,0.0,0.0,0.0,0.0,0.0,0.0,0.0,0.0,0.0,0.0,0.0,0.0,0.0,0.0,0.0,0.0,0.0,0.0,0.0,0.0,0.0,0.0,0.0,0.0,0.0,0.0,0.0,0.0,0.0,0.0,0.0,-0.4352,-0.1889,-0.0078,-0.0,0.0,0.0,0.0,0.0,0.0088,0.0269,0.0274,0.0188,0.0,0.5096,0.8045,0.7969,0.7952,0.8012,0.7952,0.8016,0.8016,0.7952,0.8012,0.8041,0.8045,0.8045,0.8048,0.7952,0.7952,0.8048,0.8045,0.7952,0.8032,0.8037,0.7995,0.8041,0.8045,0.8041,0.8038,0.8038,0.0,0.0,0.0,0.0,0.0,0.0,0.0,0.0,0.2008,0.2006,0.1898,0.1733,0.1594,0.0834,0.0674,0.1462,0.1934,0.2645,0.3764,0.3298,0.2988,0.3058,0.3403,0.2695,0.077,0.0279,0.0,0.0,0.2422,0.4768,0.7008,0.6926,0.7065,0.7309,0.7353,0.7434,0.7536,0.7536,0.7351,0.7126,0.6935,0.6915,0.6954,0.0,0.0,0.0,0.0,0.0,0.0,0.0,0.0,0.0,0.0,0.0,0.0,0.0,0.0,0.0,0.0,0.0,0.0,0.0,0.0,0.0,0.0,0.0,0.0,0.0,0.0,0.0,0.0,0.0,0.0,0.0,-0.4474,-0.3713,-0.1525,-0.2427,-0.2434,-0.0262,0.0,0.0,0.0,0.0,0.1616,0.5485,0.5764,0.4144,0.0199,0.5085,0.8031,0.8048,0.8041,0.8012,0.7952,0.8428,0.8428,0.7952,0.8012,0.7995,0.7998,0.7998,0.8051,0.804,0.804,0.7984,0.8004,0.8001,0.8047,0.7995,0.7955,0.8006,0.7985,0.7979,0.8038,0.8038,0.0,0.0,0.0,0.0,0.0,0.0,0.0,0.0,0.1999,0.1656,0.1268,0.1051,0.1033,0.0423,0.0387,0.1409,0.1528,0.2038,0.3319,0.3105,0.2822,0.259,0.3566,0.2845,0.0071,0.0,0.0,0.0,0.2436,0.4822,0.7075,0.7102,0.7241,0.7468,0.7529,0.7641,0.7784,0.7784,0.7682,0.7585,0.7323,0.7163,0.7028,0.6492,0.635,0.641,0.5637,0.5712,0.6015,0.5255,0.0,0.0,0.0,0.0,0.0,0.0,0.0,0.0,0.0,0.0,0.0,0.0,0.0,0.0,0.0,0.0,0.0,0.0,0.0,0.0,0.0,0.0,0.0,0.0,-0.2643,-0.198,-0.0251,0.0433,0.1353,0.3115,0.1349,0.0,0.0,0.0,0.2273,0.7585,0.5909,0.4312,0.3401,0.6276,0.8049,0.8032,0.7985,0.7984,0.802,0.8618,0.8618,0.802,0.7981,0.7955,0.8037,0.825,0.8404,0.8374,0.8374,0.8327,0.8364,0.8125,0.8099,0.0,0.0,0.0,0.0,0.0,0.8038,0.8038,0.0,0.0,0.0,0.0,0.0,0.0,0.0,0.0,0.1909,0.1045,0.0404,0.0,0.0,0.0,0.0422,0.1483,0.1822,0.2196,0.2677,0.295,0.274,0.1919,0.2713,0.222,0.0076,0.0,0.0,0.0,0.2172,0.4575,0.7221,0.7322,0.7461,0.7631,0.7756,0.7896,0.8038,0.8038,0.8038,0.8028,0.7993,0.7771,0.7422,0.6902,0.6805,0.6858,0.6302,0.6492,0.6791,0.5869,0.0,0.0,0.0,0.0,0.0,0.0,0.0,0.0,0.0,0.0,0.0,0.0,0.0,0.0,0.0,0.0,0.0,0.0,0.0,0.0,0.0,0.0,0.0,0.0,0.0,0.0,0.0,0.4624,0.8,0.8014,0.3781,0.0902,0.0902,0.0902,0.2908,0.7666,0.3618,0.3013,0.7762,0.0,0.0,0.0,0.0,0.812,0.8154,0.8666,0.8666,0.8154,0.812,0.8059,0.8075,0.8618,0.8952,0.886,0.886,0.8853,0.8836,0.8309,0.8395,0.8942,0.8895,0.8539,0.7965,0.7965,0.7952,0.8038,0.0,0.0,0.0,0.0,0.0,0.0,0.0,0.0,0.1964,0.1309,0.0497,0.0,0.0,0.0,0.0099,0.0305,0.2125,0.3083,0.2711,0.3188,0.3194,0.2581,0.1358,0.0447,0.0,0.0,0.0,0.0,0.044,0.3138,0.7851,0.7563,0.7609,0.7873,0.7801,0.7896,0.8038,0.8038,0.8038,0.8038,0.8007,0.7997,0.787,0.7372,0.7085,0.6898,0.6658,0.6867,0.7242,0.652,0.6458,0.6607,0.5932,0.5811,0.0,0.0,0.0,0.0,0.0,0.0,0.0,0.0,0.0,0.0,0.0,0.0,0.0,0.0,0.0,0.0,0.0,0.0,0.0,0.0,0.0,0.0,0.0,0.4645,0.7965,0.7992,0.7062,0.645,0.645,0.6422,0.685,0.7892,0.7021,0.6869,0.7929,0.805,0.8226,0.8762,0.8685,0.8772,0.871,0.8885,0.8885,0.871,0.0,0.0,0.8776,0.8887,0.8848,0.8852,0.8852,0.8893,0.8897,0.8801,0.8756,0.8879,0.8949,0.8486,0.8014,0.8014,0.8042,0.8038,0.0,0.0,0.0,0.0,0.0,0.0,0.0,0.2141,0.1789,0.1175,0.0453,0.0,0.0,0.0,0.0,0.0,0.1103,0.1939,0.2249,0.2838,0.3295,0.3606,0.1291,0.0,0.0,0.0,0.1137,0.3539,0.2401,0.3792,0.77,0.7605,0.7648,0.7914,0.7892,0.7967,0.8038,0.8038,0.8038,0.8038,0.8038,0.7953,0.8011,0.7736,0.7614,0.7465,0.7312,0.7356,0.7417,0.6959,0.681,0.6736,0.6285,0.6118,0.5866,0.0,0.0,0.0,0.0,0.0,0.0,0.0,0.0,0.0,0.0,0.0,0.0,0.0,0.0,0.0,0.0,0.0,0.0,0.0,0.0,0.0,0.0,0.459,0.7956,0.8014,0.7985,0.8001,0.7965,0.7965,0.8173,0.8395,0.8193,0.8131,0.8391,0.8411,0.8594,0.8924,0.889,0.8862,0.8937,0.8862,0.8862,0.8934,0.8935,0.8939,0.8934,0.89,0.8944,0.894,0.894,0.8896,0.8941,0.8906,0.894,0.8933,0.8855,0.8689,0.8367,0.8114,0.8011,0.8039,0.0,0.0,0.0,0.0,0.0,0.0,0.0,0.0,0.0,0.0972,0.0378,0.0,0.0,0.0,0.0,0.0,-0.0529,-0.021,0.1344,0.1929,0.2638,0.3567,0.1271,0.0,0.0,0.0,0.2399,0.7275,0.535,0.5496,0.7482,0.7668,0.7691,0.7862,0.7984,0.8038,0.8038,0.8038,0.8038,0.8038,0.8038,0.8038,0.8038,0.8038,0.8038,0.8021,0.7865,0.7682,0.7482,0.7292,0.7014,0.6712,0.6532,0.6247,0.5881,0.5403,0.5132,0.0,0.0,0.0,0.0,0.0,0.0,0.0,0.0,0.0,0.0,0.0,0.0,0.0,0.0,0.0,0.0,0.0,0.0,0.0,0.0,0.4689,0.8206,0.8173,0.812,0.8037,0.804,0.8086,0.8391,0.8905,0.8428,0.8342,0.8853,0.8918,0.8896,0.8869,0.8903,0.8856,0.894,0.894,0.894,0.894,0.891,0.9482,1.0544,0.9368,0.891,0.894,0.894,0.894,0.894,0.894,0.894,0.894,0.894,0.8866,0.8834,0.8347,0.8123,0.7978,0.0,0.0,0.0,0.0,0.0,0.0,0.0,0.0,0.0,0.0981,0.0381,0.0,0.0,0.0,0.0,0.0,-0.2435,-0.2815,0.0,0.0292,0.0391,0.049,0.0157,0.0,0.0,0.0,0.2577,0.7908,0.7643,0.7648,0.7934,0.798,0.7979,0.8014,0.8031,0.8038,0.8038,0.8038,0.8038,0.8038,0.8038,0.8038,0.8038,0.8038,0.8038,0.8021,0.7865,0.7543,0.7227,0.7468,0.7261,0.6943,0.7173,0.6949,0.6401,0.5898,0.5167,0.4612,0.4631,0.4736,0.4748,0.4546,0.448,0.3682,0.0,0.0,0.0,0.0,0.0,0.0,0.0,0.0,0.0,0.0,0.0,0.0,0.0,0.505,0.8821,0.8779,0.8322,0.803,0.8046,0.8481,0.8831,0.8923,0.8845,0.8828,0.8915,0.895,0.8927,0.8916,0.8937,0.895,0.894,0.894,0.894,0.894,0.8943,1.1617,1.6477,1.1276,0.8933,0.894,0.894,0.894,0.894,0.894,0.894,0.894,0.894,0.893,0.8893,0.8834,0.8464,0.8023,0.0,0.0,0.0,0.0,0.0,0.0,0.0,0.0,0.0,0.0,0.0,0.0,0.0,0.0,0.0,0.0,-0.2135,-0.3221,-0.2661,-0.0972,0.0,0.0,0.0,0.0,0.0,0.0,0.1848,0.5647,0.724,0.7934,0.7859,0.7885,0.7878,0.8038,0.8038,0.8038,0.8038,0.8038,0.8038,0.8038,0.8038,0.8038,0.8021,0.7848,0.7953,0.8055,0.7533,0.7248,0.0,0.6959,0.6878,0.6803,0.6837,0.6661,0.6325,0.5722,0.5335,0.5166,0.5257,0.4279,0.3558,0.4702,0.3441,0.1535,0.0326,0.0,0.0,0.0,0.0,0.0,0.0,0.0,0.0,0.0,0.0,0.1202,0.4696,0.7322,0.8852,0.8935,0.8683,0.855,0.8507,0.8755,0.8952,0.8852,0.8869,0.8947,0.8853,0.8854,0.9051,0.9429,0.9134,0.8863,0.8947,0.8947,0.8947,0.8943,0.8883,1.0324,1.2999,1.0175,0.8897,0.8957,0.8871,0.8881,0.8954,0.8868,0.8884,0.895,0.8868,0.8947,0.892,0.891,0.8779,0.8491,0.0,0.0,0.0,0.0,0.0,0.0,0.0,0.0,0.0,0.0,0.0,0.0,0.0,0.0,0.0,0.0,-0.1183,-0.2607,-0.4156,-0.2356,-0.0865,-0.007,0.0,0.0,0.0,0.0,0.129,0.3996,0.6721,0.7911,0.7828,0.7868,0.7939,0.8038,0.8038,0.8038,0.8038,0.8038,0.8038,0.8038,0.8038,0.7991,0.7885,0.7771,0.7875,0.7971,0.7211,0.684,0.6711,0.641,0.6305,0.6335,0.6346,0.6281,0.6095,0.5576,0.5447,0.5477,0.5672,0.4574,0.3685,0.4747,0.2484,0.0,0.0,0.0,0.0,0.0,0.0,0.0,0.0,0.0,0.0,0.0,0.1326,0.4019,0.8291,0.8948,0.8841,0.871,0.8649,0.8652,0.8623,0.8786,0.8876,0.892,0.894,0.887,0.8858,0.9054,0.9363,0.9792,0.9357,0.9188,0.9154,0.9034,0.8917,0.8917,0.9079,0.9284,0.9494,0.9308,0.9184,0.9191,0.9198,0.9097,0.8954,0.9104,0.9134,0.9106,0.9131,0.9097,0.8947,0.8927,0.892,0.8872,0.0,0.0,0.0,0.0,0.0,0.0,0.0,0.0,0.0,0.0,0.0,0.0,0.0,0.0,0.0,0.0,-0.0037,-0.1099,-0.3471,-0.4082,-0.3058,-0.0129,0.0,0.0,0.0,0.0,0.1281,0.3984,0.671,0.8031,0.8031,0.8035,0.8038,0.8038,0.8038,0.8038,0.8038,0.8038,0.8038,0.8038,0.8038,0.7868,0.767,0.8068,0.7966,0.7517,0.6809,0.6463,0.6376,0.5937,0.5633,0.5477,0.5908,0.604,0.5976,0.5674,0.5382,0.5196,0.5617,0.6149,0.6159,0.4431,0.2015,0.0,0.0,0.0,0.0,0.0,0.0,0.0,0.0,0.0,0.0,0.0,0.4863,0.8745,0.886,0.8934,0.871,0.8047,0.8023,0.8073,0.8025,0.8595,0.8882,0.8927,0.894,0.894,0.8947,0.9453,0.9784,0.9752,0.9777,0.9781,0.9738,0.9154,0.8917,0.8921,0.9449,0.9513,0.8904,0.954,0.9817,0.9745,0.9738,0.9391,0.8931,0.9478,0.9749,0.976,0.9824,0.9374,0.8878,0.8847,0.8933,0.8933,0.0,0.0,0.0,0.0,0.0,0.0,0.0,0.0,0.0,0.0,0.0,0.0,0.0,0.0,0.0,0.0,0.0,-0.0337,-0.1153,-0.2547,-0.2307,-0.0121,0.0,0.0,0.0,0.0,0.1211,0.3737,0.6453,0.774,0.7836,0.7835,0.7943,0.8038,0.8038,0.8038,0.8038,0.8038,0.8314,0.868,0.8562,0.8675,0.8905,0.8519,0.844,0.8387,0.0,0.6967,0.6904,0.6087,0.6113,0.6391,0.5564,0.5614,0.5933,0.5415,0.5287,0.5252,0.5107,0.5741,0.6471,0.6619,0.5958,0.4425,0.0812,0.0,0.0,0.0,0.0,0.0,0.0,0.0,0.1343,0.5222,0.7624,0.8931,0.8913,0.8862,0.8638,0.8118,0.8011,0.7991,0.7982,0.8525,0.8892,0.8913,0.8845,0.8916,0.8866,0.9089,0.9329,0.9836,0.9772,0.9602,0.9215,0.8974,0.9069,0.9494,0.9658,0.9652,0.9624,1.4127,1.6183,1.6132,1.6206,1.6102,1.5876,1.6124,1.3669,0.9856,0.9824,0.9693,0.9442,0.9459,0.9273,0.8853,0.0,0.0,0.0,0.0,0.0,0.0,0.0,0.0,0.0,0.0,0.0,0.0,0.0,0.0,0.0,0.0,0.0,0.0,0.0,-0.1073,-0.1591,-0.1312,-0.043,0.0,0.0,0.0,0.0779,0.2331,0.5434,0.7166,0.7482,0.738,0.7444,0.7641,0.7641,0.7672,0.7709,0.7882,0.8176,0.867,0.8837,0.916,0.9428,0.9283,0.9103,0.0,0.8317,0.7959,0.7651,0.6492,0.6435,0.6721,0.5506,0.5359,0.5559,0.5279,0.5305,0.5397,0.5511,0.6162,0.687,0.6594,0.7418,0.722,0.3671,0.136,0.0,0.0,0.1569,0.2711,0.2316,0.2423,0.3846,0.7916,0.8723,0.8874,0.8911,0.8665,0.8471,0.8334,0.8105,0.7998,0.7998,0.832,0.8547,0.861,0.8752,0.888,0.8928,0.9162,0.9426,0.9741,0.9747,0.958,0.9245,0.9242,1.0576,1.3277,1.3191,1.3244,1.3325,1.7539,1.9443,1.9391,1.9446,1.9356,1.9391,1.9376,1.6944,1.3272,1.324,1.1858,0.9756,0.9838,0.9575,0.9225,0.0,0.0,0.0,0.0,0.0,0.0,0.0,0.0,0.0,0.0,0.0,0.0,0.0,0.0,0.0,0.0,0.0,0.0,0.0,0.0,-0.1005,-0.3325,-0.1214,0.0,0.0,0.0,0.0,0.0,0.3776,0.5976,0.669,0.6507,0.6583,0.6881,0.6881,0.6959,0.7162,0.7625,0.7804,0.7996,0.8985,0.9285,0.9165,1.0149,0.998,0.922,0.9606,0.9309,0.8533,0.7128,0.6608,0.6475,0.5762,0.5235,0.4967,0.5321,0.5416,0.5612,0.6582,0.738,0.7329,0.4725,0.6043,0.8081,0.8043,0.413,0.0416,0.0394,0.4411,0.7616,0.6502,0.674,0.7207,0.7797,0.8477,0.8845,0.8869,0.8378,0.8236,0.8807,0.8393,0.8062,0.8059,0.8062,0.8065,0.8065,0.0,0.8917,0.894,0.9452,0.9856,0.9744,0.9744,0.9744,0.9744,0.9856,1.3007,1.9367,1.9357,1.945,1.9435,1.9435,1.9369,1.9366,1.9366,1.9366,1.9379,1.9382,1.9435,1.9449,1.9358,1.5618,1.0303,1.0249,1.0226,1.0091,0.0,0.0,0.0,0.0,0.0,0.0,0.0,0.0,0.0,0.0,0.0,0.0,0.0,0.0,0.0,0.0,0.0,0.0,0.0034,0.0,-0.0255,-0.087,-0.0342,0.0,0.0,0.0,0.0,0.0,0.188,0.373,0.5522,0.5772,0.594,0.6257,0.6257,0.657,0.7263,0.7415,0.8053,0.9073,0.906,0.9403,0.9794,0.9649,0.9396,0.9174,0.9085,0.858,0.7937,0.7563,0.6909,0.6311,0.6204,0.5733,0.5343,0.5899,0.605,0.6275,0.7188,0.7839,0.7706,0.4736,0.3061,0.3302,0.763,0.7315,0.5939,0.5978,0.64,0.6675,0.6326,0.6412,0.6593,0.6669,0.761,0.8233,0.8236,0.8526,0.8686,0.8845,0.8789,0.8883,0.9347,0.8974,0.8693,0.8693,0.8782,0.9137,0.9597,0.9689,0.9782,0.9768,0.9768,0.9768,0.9768,0.9786,1.2976,1.9357,1.9358,1.9452,1.9419,1.9419,1.9399,1.9366,1.9366,1.9366,1.9372,1.9406,1.9419,1.9426,1.9449,1.845,1.6891,1.6985,1.638,1.5751,0.0,0.0,0.0,0.0,0.0,0.0,0.0,0.0,0.0,0.0,0.0,0.0,0.0,0.0,0.0,0.0,0.0,0.0,0.0,0.0,0.0,0.0,0.0,0.0478,0.1547,0.1573,0.1325,0.0795,0.2086,0.3383,0.4686,0.5015,0.528,0.5545,0.5606,0.6028,0.6734,0.6923,0.7607,0.0,0.0,0.9433,0.9813,0.9857,0.9724,0.9388,0.8944,0.8184,0.7429,0.7328,0.6807,0.6302,0.6503,0.6159,0.5811,0.6493,0.6786,0.686,0.6891,0.7861,0.8479,0.6589,0.5125,0.4951,0.8147,0.8674,0.8193,0.74,0.6495,0.5972,0.6264,0.6318,0.6427,0.6995,0.7851,0.8416,0.8438,0.8686,0.9045,0.9238,0.9329,0.9415,0.9734,0.9502,0.9351,0.9351,0.9279,0.9463,0.9839,0.9792,0.9741,0.9819,0.9822,0.9822,0.9822,0.9803,1.3081,1.9424,1.9389,1.9366,1.9366,1.9366,1.9366,1.9366,0.0,1.9366,1.9366,1.9366,1.9366,1.9372,1.9446,1.9362,1.9356,1.9446,1.8992,1.851,0.0,0.0,0.0,0.0,0.0,0.0,0.0,0.0,0.0,0.0,0.0,0.0,0.0,0.0,0.0,0.0,0.0,0.0,0.0,0.0,0.0,0.0,0.0,0.1136,0.3559,0.3581,0.3069,0.2025,0.3254,0.3965,0.412,0.4325,0.4506,0.4806,0.4928,0.5297,0.5785,0.6298,0.6809,0.7384,0.8634,0.9178,0.9305,0.0,0.0,0.9386,0.8567,0.7677,0.6818,0.6589,0.6547,0.6635,0.679,0.6508,0.6365,0.7021,0.7527,0.762,0.6636,0.7929,0.9408,0.9017,0.9089,0.9131,0.8524,0.8475,0.8018,0.6531,0.5752,0.5613,0.6172,0.6197,0.6569,0.7842,0.8406,0.8847,0.8876,0.8986,0.9195,0.9736,0.979,0.9829,0.9813,0.9804,0.9761,0.9761,0.9761,0.9761,0.9761,0.9754,0.9822,0.9822,0.9822,0.9822,0.9822,0.9803,1.3081,1.9424,1.9389,1.9366,1.9366,1.9366,1.9366,1.9366,1.9366,1.9366,1.9366,1.9366,1.9366,1.9366,1.9366,1.9366,1.9455,1.9347,1.9401,1.9421,0.0,0.0,0.0,0.0,0.0,0.0,0.0,0.0,0.0,0.0,0.0,0.0,0.0,0.0,0.0,0.0,0.0,0.0,0.0,0.0,0.0,0.0,0.0,0.1136,0.3559,0.3581,0.3484,0.3269,0.3552,0.3666,0.3697,0.3736,0.3907,0.4178,0.431,0.4428,0.457,0.5619,0.6468,0.7181,0.7698,0.8119,0.842,0.0,0.0,0.0,0.6445,0.586,0.5622,0.5645,0.6467,0.75,0.6976,0.705,0.7422,0.7709,0.8233,0.8669,0.8495,0.9033,0.962,0.9087,0.894,0.8417,0.6505,0.6044,0.5928,0.5639,0.5479,0.5581,0.6172,0.5877,0.6086,0.776,0.807,0.8375,0.8798,0.937,0.9699,0.9776,0.982,0.9774,0.9747,0.9771,0.9785,0.9785,0.9785,0.9785,0.9785,0.9808,0.9822,0.9822,0.9822,0.9822,0.9822,0.9803,1.3081,1.9424,1.9389,1.9366,1.9366,1.9366,1.9366,1.9366,1.9366,0.0,1.9366,1.9366,1.9366,1.9366,1.9366,1.9366,1.9359,1.9435,1.9448,1.9352,0.0,0.0,0.0,0.0,0.0,0.0,0.0,0.0,0.0,0.0,0.2388,0.2129,0.0,0.0,0.0,0.0,0.0,0.0,0.0,0.0,0.0,0.0,0.0,0.0,0.172,0.297,0.3615,0.3609,0.0,0.3585,0.3581,0.3592,0.369,0.382,0.4209,0.4277,0.4245,0.5191,0.5916,0.6532,0.7056,0.7158,0.0,0.0,0.0,0.0,0.569,0.5341,0.5227,0.55,0.6359,0.7392,0.7027,0.7306,0.7891,0.8319,0.8934,0.9345,0.9211,0.9503,0.9693,0.9449,0.9388,0.8706,0.5967,0.5365,0.5397,0.5387,0.5424,0.5518,0.5776,0.5832,0.6124,0.7014,0.7627,0.8122,0.8377,0.9269,0.9809,0.979,0.9858,0.9822,0.9822,0.9822,0.9822,0.9822,0.9822,0.9822,0.9822,0.9822,0.9856,0.9811,0.9814,0.9814,0.9814,1.3081,1.639,1.9424,1.9389,1.9366,1.9366,1.9366,1.9366,1.9366,1.9366,1.9366,1.9366,1.9366,1.9366,1.9366,1.9366,1.9366,1.9366,1.9366,1.9412,1.9349,0.0,0.0,0.0,0.0,0.0,0.0,0.0,0.2414,0.2434,0.2878,0.2701,0.2504,0.2373,0.253,0.0,0.0,0.0,0.0,0.0,0.0,0.0,0.0,0.0,0.0,0.0,0.0,0.0,0.3198,0.32,0.0,0.0,0.0,0.0,0.0,0.4253,0.4437,0.4297,0.4906,0.5237,0.0,0.0,0.6073,0.0,0.0,0.0,0.0,0.0,0.5076,0.4914,0.5284,0.5906,0.6539,0.6793,0.7346,0.8206,0.8659,0.9322,0.9806,0.9527,0.959,0.9744,0.9775,0.9597,0.8737,0.62,0.5518,0.5476,0.5405,0.5428,0.5372,0.5403,0.5762,0.6162,0.6305,0.701,0.7559,0.7434,0.8741,0.9697,0.9766,0.9858,0.9822,0.9822,0.9822,0.9822,0.9822,0.9849,0.9856,0.9822,0.9822,0.989,1.0042,1.0049,0.9925,0.9921,1.4809,1.8004,1.9424,1.9409,1.9392,1.9366,1.9366,1.9366,1.9366,1.9366,1.9366,1.9366,1.9366,1.9366,1.9366,1.9366,1.9366,1.9372,1.9399,1.9356,1.9187,0.0,0.0,0.0,0.0,0.0,0.0,0.0,0.2114,0.2076,0.2642,0.271,0.2747,0.2924,0.2676,0.0,0.0,0.0,0.0,0.0,0.0,0.0,0.0,0.0,0.0,0.0,0.0,0.0,0.1965,0.1966,0.0,0.0,0.0,0.0,0.0,0.0,0.451,0.449,0.4542,0.0,0.0,0.0,0.0,0.0,0.0,0.0,0.0,0.0,0.4357,0.4069,0.4496,0.4657,0.4882,0.5656,0.6985,0.8275,0.8511,0.9154,0.9806,0.9769,0.9837,0.984,0.9756,0.894,0.7799,0.6486,0.6053,0.5822,0.5491,0.5428,0.5403,0.5401,0.5438,0.5686,0.6225,0.6389,0.6245,0.5672,0.7539,0.9147,0.9776,0.9858,0.9822,0.9822,0.9822,0.9822,0.9822,0.9821,0.9841,0.9829,0.9822,1.0019,1.056,1.0568,1.044,1.0305,1.0486,1.3634,1.9424,1.9384,1.9362,1.9366,1.9366,1.9366,1.9366,1.9366,1.9366,0.0,1.9366,1.9366,1.9366,1.9366,1.9366,1.9379,1.9382,1.9435,1.8548,0.0,0.0,0.0,0.0,0.0,0.0,0.0,0.2047,0.2315,0.314,0.3071,0.3063,0.3427,0.2961,0.2533,0.0,0.0,0.0,0.0,0.0,0.0,0.0,0.0,0.0,0.0,0.0,0.0238,0.0732,0.0726,0.0,0.0,0.0,0.0,0.0,0.0,0.3936,0.3986,0.4326,0.0,0.0,0.0,0.0,0.0,0.0,0.0,0.0,0.0,0.0,0.4284,0.4458,0.4491,0.457,0.5094,0.6211,0.7407,0.7977,0.8856,0.9641,0.9792,0.9768,0.9837,0.9853,0.8573,0.7277,0.65,0.6083,0.5796,0.5437,0.5397,0.537,0.5416,0.5427,0.5561,0.6193,0.6325,0.6344,0.6444,0.787,0.9173,0.9684,0.9809,0.9769,0.9795,0.9822,0.9822,0.9822,0.9834,0.9898,1.0345,0.9961,0.9901,1.0181,1.01,1.0053,1.0049,1.1132,1.2386,1.3674,1.7587,1.9415,1.9362,1.9406,1.9366,1.9366,1.9366,1.9366,0.0,1.9366,1.9366,1.9366,1.9366,1.9419,1.9376,1.9422,1.6938,1.3237,0.0,0.0,0.0,0.0,0.0,0.0,0.2214,0.2063,0.2388,0.3236,0.3131,0.3111,0.345,0.301,0.2652,0.2502,0.0,0.0,0.0,0.0,0.0,0.0,0.0,0.0,0.0,0.0,0.0,0.0,0.0,0.0,0.0,0.0,0.2917,0.3595,0.0,0.0,0.0,0.0,0.0,0.0,0.0,0.0,0.0,0.0,0.0,0.0,0.0,0.0,0.0,0.0,0.0,0.4524,0.4749,0.535,0.6136,0.702,0.8103,0.9123,0.946,0.9729,0.9836,0.9836,0.8683,0.7419,0.6492,0.6106,0.5844,0.5353,0.5346,0.5385,0.5401,0.5428,0.5581,0.6172,0.6291,0.6481,0.6981,0.7818,0.8508,0.8973,0.9475,0.9766,0.9829,0.9744,0.9839,0.9761,0.9777,1.0009,1.0699,1.027,1.0039,0.9755,0.9787,0.984,0.9921,1.141,1.1397,0.981,1.442,1.7509,1.9382,1.9412,1.9366,1.9366,1.9366,1.9366,0.0,1.9366,1.9366,1.9372,1.9412,1.9362,1.9194,1.7309,1.3732,0.984,0.0,0.0,0.0,0.0,0.0,0.0,0.0,0.2183,0.2013,0.2625,0.2718,0.2721,0.2706,0.2694,0.2696,0.2699,0.0,0.0,0.0,0.0,0.0,0.0,0.0,0.0,0.0,0.0,0.0,0.0,0.0,0.0,0.0,0.0045,0.1294,0.3581,0.0,0.0,0.0,0.0,0.0,0.0,0.0,0.0,0.0,0.0,0.0,0.0,0.0,0.0,0.0,0.0,0.0,0.0,0.0,0.4525,0.4648,0.5281,0.6649,0.822,0.8954,0.9527,0.9784,0.9851,0.932,0.8453,0.6685,0.6325,0.6022,0.5082,0.5165,0.5392,0.5396,0.543,0.5581,0.6172,0.6305,0.6457,0.7007,0.714,0.7119,0.7088,0.8751,0.9847,0.9829,0.9804,0.9761,0.9781,0.98,0.0,1.0613,1.0749,1.041,0.9758,0.9755,0.9943,1.0053,1.0177,1.0029,0.9856,0.9856,1.3226,1.9372,1.9366,1.9366,1.9366,1.9366,1.9366,0.0,1.9366,1.9366,1.9379,1.9389,1.9442,1.8685,1.2269,0.9837,0.9847,0.0,0.0,0.0,0.0,0.0,0.0,0.0,0.1926,0.1874,0.2071,0.2072,0.2073,0.21,0.2443,0.269,0.2709,0.0,0.0,0.0,0.0,0.0,0.0,0.0,0.0,0.0,0.0,0.0,0.0,0.0,0.0,0.0,0.0,0.1303,0.3588,0.3605,0.3588,0.0,0.0,0.0,0.0,0.0,0.0,0.0,0.0,0.0,0.0,0.0,0.0,0.0,0.0,0.0,0.0,0.0,0.0,0.0,0.4706,0.4572,0.4543,0.5433,0.756,0.957,0.9736,0.9345,0.8296,0.6173,0.5989,0.6077,0.5413,0.5016,0.4889,0.5311,0.5372,0.559,0.6238,0.629,0.649,0.7024,0.7143,0.7051,0.709,0.8003,0.8902,0.9724,0.9741,0.9761,0.9784,1.0225,1.0451,1.0732,1.07,1.0541,1.0149,0.9945,0.9818,0.9893,0.9893,0.9849,0.9754,0.9779,1.3177,1.941,1.9452,1.9366,1.9366,1.9366,1.9366,1.9366,1.9366,1.9419,1.8985,1.4529,1.2876,1.2631,1.0565,0.9747,0.9791,0.0,0.0,0.0,0.0,0.0,0.0,0.0,0.1789,0.1799,0.1796,0.1798,0.1888,0.2121,0.2471,0.2683,0.2709,0.0,0.0,0.0,0.0,0.0,0.0,0.0,0.0,0.0,0.0,0.0,0.0,0.0,0.0,0.0,0.0,0.1805,0.3271,0.3517,0.3584,0.0,0.0,0.0,0.0,0.0,0.0,0.3595,0.0,0.0,0.0,0.0,0.0,0.0,0.0,0.0,0.0,0.0,0.0,0.0,0.0,0.3939,0.3266,0.2662,0.4167,0.6415,0.8858,0.8522,0.7208,0.5749,0.5491,0.5491,0.5144,0.4733,0.4689,0.5282,0.5382,0.5752,0.6749,0.698,0.7024,0.74,0.7217,0.7397,0.8072,0.8461,0.8982,0.9772,0.9758,0.9761,0.9784,1.0308,1.0635,1.04,1.0355,1.0321,1.0066,0.9881,0.9754,0.9822,0.9822,0.9808,0.9781,0.9816,1.3218,1.9338,1.9402,1.9412,1.9366,1.9366,1.9366,0.0,1.9366,1.9446,1.879,1.2338,0.9853,0.984,0.9747,0.9751,0.9744,0.0,0.0,0.0,0.0,0.0,0.0,0.0,0.0,0.0,0.0,0.184,0.2077,0.265,0.2706,0.2686,0.0,0.0,0.0,0.0,0.0,0.0,0.0,0.0,0.0,0.0,0.0,0.0,0.0,0.0,0.0,0.0048,0.0,0.0,0.2784,0.3354,0.0,0.0,0.0,0.0,0.0,0.0,0.0,0.0,0.0,0.0,0.0,0.0,0.0,0.0,0.0,0.0,0.0,0.0,0.0,0.0,0.0,0.0,0.0,0.0,0.0153,0.1307,0.6914,0.6765,0.5316,0.5312,0.4927,0.0,0.4494,0.4475,0.4696,0.5236,0.5392,0.5927,0.7577,0.7639,0.7593,0.792,0.7612,0.7912,0.9567,0.982,0.9835,0.9845,0.9772,0.9761,0.9784,1.0298,1.036,0.9862,0.9857,0.9781,0.9781,0.9781,0.9838,0.9822,0.9822,0.9788,0.9844,0.984,1.2875,1.8679,1.9194,1.9376,0.0,1.9366,1.9366,1.9366,1.9366,1.9446,1.8803,1.2294,0.9779,0.9844,0.9785,0.9851,0.9748,0.0,0.0,0.0,0.0,0.0,0.0,0.0,0.0,0.0,0.0,0.0,0.2551,0.2693,0.2716,0.0,0.0,0.0,0.0,0.0,0.0,0.0,0.0,0.0,0.0,0.0,0.0,0.0,0.0,0.0,0.0,0.0,0.042,0.0,0.0,0.0,0.0,0.0,0.0,0.0,0.0,0.0,0.0,0.0,0.0,0.0,0.0,0.4268,0.4512,0.0,0.0,0.0,0.0,0.0,0.0,0.0,0.0,0.4485,0.4345,0.3618,0.0,0.0332,0.1712,0.3441,0.4703,0.0,0.4585,0.4528,0.4494,0.4497,0.4568,0.4678,0.5099,0.5679,0.6579,0.3976,0.3353,0.7458,0.863,0.9326,0.9701,0.9775,0.9832,0.9761,0.9772,0.9761,0.9784,0.9941,0.9944,0.9837,0.9831,0.9751,0.9751,0.9751,0.9856,0.9822,0.9822,0.9812,0.9798,0.9744,1.0535,1.2171,1.7144,1.9376,1.9366,1.9366,1.9366,1.9366,1.9366,1.9446,1.8803,1.2294,0.9779,0.9834,0.9796,0.983,0.9754,0.0,0.0,0.0,0.0,0.0,0.0,0.0,0.0,0.0,0.0,0.0,0.0,0.0,0.0,0.0,0.0,0.0,0.0,0.0,0.0,0.0,0.0,0.0,0.0,0.0,0.0,0.0,0.0,0.0,0.0,0.0,0.0,0.0,0.0,0.0,0.0,0.0,0.0,0.0,0.0,0.3457,0.0,0.0,0.0,0.0,0.0,0.4284,0.4488,0.0,0.448,0.25,0.0553,0.0,0.0,0.0,0.0,0.4487,0.448,0.4487,0.3307,0.2042,0.2038,0.3304,0.4502,0.4471,0.4518,0.4502,0.448,0.4474,0.4594,0.4868,0.5599,0.6143,0.5932,0.399,0.3753,0.7455,0.9039,0.9806,0.9795,0.9349,0.9242,0.971,0.9851,0.9856,0.9811,0.9744,0.9856,0.9814,0.9744,0.9822,0.9822,0.9822,0.9822,0.9822,0.9822,0.9822,0.9822,0.9785,0.9847,1.0025,1.6476,1.9351,1.9452,1.9392,1.9366,1.9366,1.9366,1.9369,1.9043,1.5596,1.2362,0.9786,0.9748,0.9856,0.9731,0.0,0.0,0.0,0.0,0.0,0.0,0.0,0.0,0.0,0.0,0.0,0.0,0.0,0.0,0.0,0.0,0.0,0.0,0.0,0.0,0.0,0.0,0.0,0.0,0.0,0.0,0.0,0.0,0.0,0.0,0.0,0.0,0.3612,0.0,0.0,0.0,0.0,0.0,0.0,0.0,0.3595,0.0,0.0,0.0,0.0,0.0,0.0,0.0,0.0,0.449,0.2504,0.0553,0.3535,0.0,0.0,0.0,0.0,0.0,0.4504,0.4528,0.4523,0.451,0.4568,0.4636,0.4541,0.4512,0.4497,0.4497,0.4477,0.4696,0.5314,0.6234,0.6659,0.5814,0.5331,0.5828,0.8001,0.9125,0.9745,0.9561,0.8819,0.8679,0.9734,0.9795,0.9822,0.9822,0.9822,0.9822,0.9822,0.9822,0.9822,0.9822,0.9822,0.9822,0.9822,0.9822,0.9822,0.9822,0.9822,0.9781,0.9947,1.5417,1.8526,1.9409,0.0,0.0,1.9366,1.9441,1.9446,1.9299,1.8363,1.4641,0.9815,0.9672,0.9721,0.9641,0.0,0.0,0.0,0.0,0.0,0.0,0.0,0.0,0.0,0.0,0.0,0.0,0.0,0.0,0.0,0.0,0.0,0.0,0.0,0.0,0.0,0.0,0.0,0.0,0.0,0.0,0.0,0.0,0.0,0.0,0.0048,0.249,0.358,0.0,0.0,0.0,0.0,0.0,0.0,0.0,0.3592,0.0,0.0,0.0,0.0,0.0,0.0,0.0,0.0,0.449,0.251,0.05,0.3546,0.0,0.0,0.0,0.0,0.0,0.4505,0.4489,0.4473,0.4478,0.489,0.5135,0.464,0.4519,0.4477,0.4477,0.447,0.4674,0.531,0.5989,0.6544,0.6824,0.4912,0.4875,0.8974,0.9685,0.9446,0.8421,0.8991,0.955,0.9831,0.9799,0.9822,0.9822,0.9822,0.9822,0.9822,0.9822,0.9822,0.9822,0.9822,0.9822,0.9822,0.9822,0.9822,0.9822,0.9822,0.9754,0.987,1.0844,1.4232,1.9399,0.0,1.9366,1.9352,1.9361,1.9407,1.881,1.3422,1.0624,0.9761,0.9269,0.9093,0.9121,0.0,0.0,0.0,0.0,0.0,0.0,0.0,0.0,0.0,0.0,0.0,0.0,0.0,0.0,0.0,0.0,0.0,0.0,0.0,0.0,0.0,0.0,0.0,0.0,0.0,0.0,0.0,0.0,0.0,0.0,0.0051,0.2824,0.3929,0.3582,0.0,0.0,0.0,0.0,0.0,0.0,0.0,0.0,0.0,0.0,0.0,0.0,0.0,0.0,0.0,0.0,0.1157,0.0217,0.1636,0.0,0.0,0.0,0.0,0.0,0.4498,0.4497,0.4636,0.5306,0.5207,0.481,0.4538,0.4494,0.4603,0.4922,0.5011,0.5201,0.5787,0.7118,0.8315,0.8562,0.6017,0.5295,0.892,0.9606,0.9471,0.8768,0.9379,0.9836,0.9741,0.9744,0.9822,0.9822,0.9822,0.9822,0.9822,0.9751,0.9744,0.9819,0.9747,0.9744,0.9822,0.9822,0.9822,0.9822,0.9822,0.9768,0.9912,1.3361,1.6554,1.9349,0.0,1.9401,1.9381,1.9373,1.9011,1.8181,1.5199,1.21,0.9269,0.9036,1.0874,1.3152,0.0,0.0,0.0,0.0,0.0,0.0,0.0,0.0,0.0,0.0,0.0,0.0,0.0,0.0,0.0,0.0,0.0,0.0,0.0,0.0,0.0,0.0,0.0,0.0,0.0,0.0,0.0,0.0,0.0,0.0373,0.1124,0.3292,0.4059,0.0,0.0,0.0,0.0,0.0,0.0,0.0,0.0,0.0,0.0,0.0,0.0,0.0,0.0,0.0,0.0,0.0,0.0,0.0,0.0,0.0,0.0,0.4466,0.4515,0.4497,0.4524,0.4477,0.4816,0.599,0.5524,0.4779,0.4904,0.4889,0.5039,0.552,0.5646,0.5762,0.6346,0.8018,0.943,0.9776,0.7551,0.6654,0.8994,0.9614,0.9717,0.9339,0.9607,0.9818,0.9802,0.9822,0.9822,0.9822,0.9822,0.9822,0.9822,0.984,0.971,0.9569,0.9717,0.9834,0.9819,0.9822,0.9822,0.9822,0.9822,0.9758,1.0007,1.6419,1.9397,1.9366,1.9421,1.9374,1.9378,1.9142,1.8407,1.7576,1.7616,1.5041,1.1181,0.9681,1.2899,1.7377,0.0,0.0,0.0,0.0,0.0,0.0,0.0,0.0,0.0,0.0,0.0,0.0,0.0,0.0,0.0,0.0,0.0,0.0,0.0,0.0,0.0,0.0,0.0,0.0,0.0,0.0,0.0,0.0,0.0,0.1453,0.4174,0.3801,0.3661,0.3621,0.0,0.0,0.3581,0.3581,0.3608,0.0,0.0,0.0,0.0,0.0,0.0,0.0,0.0,0.0,0.0,0.0,0.0,0.0,0.0,0.0,0.4095,0.4425,0.448,0.4511,0.4477,0.4505,0.4784,0.597,0.5789,0.546,0.6077,0.6191,0.6168,0.62,0.6214,0.6382,0.6964,0.7464,0.8157,0.9617,0.9119,0.8823,0.9679,0.983,0.9791,0.9788,0.9788,0.9798,0.9819,0.9822,0.9822,0.9822,0.9822,0.9822,0.9822,0.9812,0.9559,0.8948,0.9559,0.9812,0.9822,0.9822,0.9822,0.9822,0.9822,0.9799,1.0011,1.6425,1.9432,1.9387,1.9405,1.9378,1.9298,1.8154,1.7629,1.7597,1.7587,1.7983,1.7975,1.1941,1.378,1.9014,0.0,0.0,0.0,0.0,0.0,0.0,0.0,0.0,0.0,0.0,0.0,0.0,0.0,0.0,0.0,0.0,0.0,0.0,0.0,0.0,0.0,0.0,0.0,0.0,0.0,0.0,0.0,0.0,0.1877,0.3384,0.4509,0.4284,0.0,0.0,0.0,0.0,0.3615,0.3615,0.3604,0.3645,0.0,0.0,0.0,0.0,0.0,0.0,0.0,0.0,0.0,0.0,0.0,0.0,0.0,0.1319,0.3118,0.4158,0.4525,0.4494,0.4498,0.3139,0.1798,0.2239,0.2183,0.2576,0.468,0.6283,0.7387,0.733,0.7396,0.7446,0.7594,0.8055,0.8598,0.93,0.9394,0.9412,0.973,0.9802,0.9832,0.9822,0.9822,0.9822,0.9822,0.9822,0.9822,0.9822,0.9822,0.9785,0.9816,0.9813,0.969,0.9443,0.969,0.9813,0.9813,0.9813,0.9765,0.9794,0.9842,0.9808,1.0044,1.5665,1.8636,1.919,1.4794,1.4921,1.826,1.7746,1.7633,1.7649,1.7547,1.7906,1.7949,1.5586,1.6216,1.8183,0.0,0.0,0.0,0.0,0.0,0.0,0.0,0.0,0.0,0.0,0.0,0.0,0.0,0.0,0.0,0.0,0.0,0.0,0.0,0.0,0.0,0.0,0.0,0.0,0.0,0.0,0.0451,0.1436,0.3482,0.4494,0.451,0.0,0.0,0.0,0.0,0.0,0.3611,0.3811,0.3866,0.3942,0.4316,0.4512,0.0,0.0,0.0,0.0,0.0,0.0,0.0,0.0,0.0,0.0,0.0,0.0988,0.25,0.4037,0.4518,0.448,0.4494,0.2271,0.0,0.0,0.0,0.0996,0.4708,0.6854,0.8092,0.8221,0.8186,0.8151,0.8057,0.8364,0.8716,0.9059,0.9361,0.9612,0.9795,0.9822,0.9822,0.9822,0.9822,0.9822,0.9822,0.9822,0.9677,0.9509,0.9506,0.957,0.9787,0.9658,0.9658,0.978,0.978,0.978,0.978,0.9658,0.9486,0.9501,0.9487,1.0435,1.2352,1.4096,1.628,1.8427,1.1814,1.113,1.4959,1.6798,1.7642,1.7602,1.7582,1.7597,1.7598,1.7618,1.7642,1.757,0.0,0.0,0.0,0.0,0.0,0.0,0.0,0.0,0.0,0.0,0.0,0.0,0.0,0.0,0.0,0.0,0.0,0.0,0.0,0.0,0.0,0.0,0.0,0.0,0.0,0.0,0.1483,0.4502,0.447,0.4488,0.4488,0.4499,0.0,0.0,0.0,0.0,0.3646,0.4233,0.4483,0.4509,0.4502,0.4476,0.448,0.0,0.0,0.0,0.0,0.0,0.0,0.0,0.0056,0.0056,0.0,0.1006,0.2512,0.4039,0.4487,0.448,0.4494,0.2291,0.006,0.0,0.0,0.144,0.6817,0.7979,0.8173,0.8801,0.8695,0.8388,0.808,0.7988,0.8239,0.8776,0.9218,0.9513,0.9781,0.9819,0.9819,0.9819,0.9822,0.9822,0.9819,0.9819,0.9513,0.9007,0.8875,0.9176,0.9747,0.9262,0.9142,0.974,0.9743,0.9743,0.974,0.9142,0.89,0.8897,0.8917,1.1957,1.7303,1.1566,1.2046,1.7142,1.1427,0.8896,0.9385,1.5171,1.7596,1.7589,1.7582,1.7582,1.7582,1.7582,1.7582,1.7615,0.0,0.0,0.0,0.0,0.0,0.0,0.0,0.0,0.0,0.0,0.0,0.0,0.0,0.0,0.0,0.0,0.0,0.0,0.0,0.0,0.0,0.0,0.0,0.0,0.0,0.0,0.3163,0.4481,0.4072,0.4091,0.0,0.0,0.0,0.423,0.0,0.0,0.3664,0.4246,0.4233,0.3931,0.4307,0.4504,0.448,0.0,0.0,0.0,0.0,0.0,0.0,0.0,0.0,0.0,0.1899,0.2567,0.3916,0.4379,0.4487,0.4484,0.4504,0.3868,0.2658,0.0525,0.0,0.1504,0.7269,0.8348,0.8292,0.9279,0.9219,0.8963,0.8635,0.8719,0.8944,0.9072,0.9262,0.9493,0.9781,0.9734,0.9673,0.9796,0.9764,0.9785,0.9806,0.9796,0.9656,0.9367,0.9026,0.9026,0.9464,0.9323,0.9211,0.9222,0.9205,0.9208,0.9218,0.8987,0.8934,0.895,0.8893,0.9831,1.1452,0.9643,0.981,1.1418,0.966,0.8865,0.9385,1.5171,1.7649,1.7603,1.7615,1.7582,1.7582,1.7582,1.7582,1.7589,0.0,0.0,0.0,0.0,0.0,0.0,0.0,0.0,0.0,0.0,0.27,0.2702,0.0,0.0,0.0,0.0,0.0,0.0,0.0,0.0,0.0,0.0,0.0,0.0,0.0,0.2378,0.3913,0.0,0.0,0.0,0.0,0.0,0.0,0.4516,0.0,0.4321,0.3955,0.408,0.4086,0.398,0.433,0.4527,0.4359,0.0,0.0,0.0,0.0,0.0,0.0,0.0,0.0,0.0,0.3413,0.3749,0.4487,0.4494,0.4092,0.3702,0.4349,0.4521,0.3793,0.0762,0.1751,0.4475,0.807,0.8583,0.8522,0.9399,0.9282,0.9037,0.9099,0.904,0.8998,0.9178,0.9312,0.9374,0.9612,0.9574,0.952,0.9641,0.9595,0.9612,0.9648,0.9759,0.9617,0.9312,0.8987,0.899,0.9192,0.9157,0.9161,0.8953,0.8924,0.8927,0.895,0.8893,0.8933,0.8849,0.8915,0.8821,0.8536,0.8831,0.8807,0.8527,0.8835,0.892,0.9197,1.2718,1.5505,1.764,1.7569,1.6156,1.4184,1.4128,1.5571,1.7623,0.0,0.0,0.0,0.0,0.0,0.0,0.0,0.0,0.0,0.0,0.2695,0.2706,0.0,0.0,0.0,0.0,0.0,0.0,0.0,0.0,0.0,0.0,0.0,0.0,0.0,0.0,0.0,0.0,0.0,0.0,0.0,0.0,0.4504,0.4488,0.0,0.4481,0.4449,0.3863,0.3903,0.4404,0.4481,0.4491,0.4181,0.1437,0.0,0.0,0.0,0.0,0.0,0.0,0.0,0.0,0.4494,0.4494,0.4494,0.4497,0.3527,0.2647,0.3759,0.4103,0.3538,0.1257,0.4774,0.8808,0.8829,0.8711,0.8679,0.9275,0.8964,0.8826,0.9258,0.9001,0.8818,0.9179,0.9192,0.9205,0.9361,0.9367,0.9361,0.948,0.9371,0.9255,0.9361,0.9599,0.9533,0.9027,0.8888,0.8933,0.8906,0.8896,0.8896,0.8896,0.8896,0.8903,0.8916,0.8879,0.8918,0.8821,0.8867,0.857,0.803,0.857,0.857,0.803,0.8584,0.8779,0.8841,0.879,1.2239,1.7544,1.6964,1.3798,0.9564,0.9001,1.2428,1.7173,0.0,0.0,0.0,0.0,0.0,0.0,0.0,0.0,0.0,0.0,0.0,0.0,0.0,0.0,0.0,0.0,0.0,0.0,0.0,0.0,0.0,0.0,0.0,0.0,0.0,0.0,0.0,0.0,0.0,0.0,0.0,0.0,0.0,0.4529,0.0,0.452,0.447,0.3859,0.3691,0.3822,0.4334,0.4522,0.4418,0.3793,0.3516,0.0,0.0,0.0,0.0,0.0,0.0,0.0,0.4525,0.4477,0.4484,0.4494,0.4274,0.3586,0.1504,0.0958,0.1793,0.5392,0.7241,0.8224,0.8523,0.8539,0.8648,0.912,0.924,0.9239,0.9209,0.9274,0.9208,0.924,0.925,0.9205,0.9361,0.9276,0.9201,0.9315,0.9425,0.9452,0.9446,0.9671,0.961,0.9339,0.9099,0.8852,0.8917,0.891,0.891,0.891,0.891,0.8859,0.8872,0.8938,0.8701,0.8154,0.8226,0.8104,0.7997,0.8104,0.8104,0.8004,0.8112,0.8213,0.8188,0.8144,1.1954,1.7114,1.2082,1.2069,1.4537,1.0154,1.1017,1.4179,0.0,0.0,0.0,0.0,0.0,0.0,0.0,0.0,0.0,0.0,0.0,0.0,0.0,0.0,0.0,0.0,0.0,0.0,0.0,0.0,0.0,0.0,0.0,0.0,0.0,0.0,0.0,0.0,0.0,0.0,0.0,0.0,0.0,0.4519,0.0,0.4494,0.4474,0.4164,0.4041,0.4039,0.4385,0.4518,0.4525,0.4525,0.4473,0.448,0.4473,0.0,0.0,0.0,0.0,0.0,0.0,0.0,0.4196,0.279,0.2373,0.2029,0.0427,0.0,0.1254,0.6665,0.8005,0.8083,0.8252,0.8381,0.8635,0.8908,0.9013,0.9035,0.8957,0.9066,0.912,0.8964,0.9001,0.9052,0.9059,0.9055,0.9022,0.895,0.9011,0.9113,0.8961,0.9166,0.9251,0.9172,0.8755,0.8458,0.8486,0.8482,0.8482,0.8482,0.8482,0.852,0.8488,0.8776,0.8633,0.7957,0.7952,0.7955,0.7955,0.7955,0.7955,0.7958,0.8028,0.7984,0.8024,0.8265,1.0251,1.2644,0.9297,0.9896,1.244,1.2157,1.1644,1.1169,0.0,0.0,0.0,0.0,0.0,0.0,0.0,0.0,0.0,0.0,0.0,0.0,0.0,0.0,0.0,0.0,0.0,0.0,0.0,0.0,0.0,0.0,0.0,0.0,0.0,0.0,0.0,0.0,0.0,0.0,0.4519,0.0,0.0,0.4519,0.0,0.4508,0.4506,0.4506,0.4506,0.4506,0.4506,0.4523,0.4519,0.4519,0.4519,0.4519,0.4519,0.4519,0.4519,0.4519,0.0,0.0,0.0,0.0,0.4024,0.1502,0.0398,0.0176,0.0916,0.1243,0.2468,0.691,0.8028,0.8021,0.8021,0.8217,0.8512,0.8512,0.8547,0.8672,0.8672,0.8774,0.8818,0.8693,0.8801,0.8845,0.8693,0.8804,0.8842,0.8689,0.8672,0.8618,0.8492,0.8482,0.8577,0.8769,0.8229,0.8004,0.7978,0.7978,0.7978,0.7978,0.7978,0.7988,0.8014,0.8511,0.8456,0.7952,0.8012,0.8038,0.8038,0.8038,0.8038,0.8038,0.8038,0.8021,0.8096,0.9482,0.9838,0.9339,0.9322,0.8754,0.8542,1.2874,1.2612,0.9994,0.0,0.0,0.0,0.0,0.0,0.0,0.0,0.0,0.0,0.0,0.3594,0.3595,0.0,0.0,0.0,0.0,0.0,0.0,0.0,0.0,0.0,0.0,0.0,0.0,0.0,0.0,0.0,0.0,0.0,0.4506,0.4519,0.4519,0.4519,0.4519,0.0,0.4508,0.4491,0.4491,0.4491,0.4491,0.4491,0.4501,0.4519,0.4519,0.0,0.4519,0.4519,0.4519,0.4519,0.4519,0.4519,0.0,0.0,0.0,0.4421,0.4024,0.2069,0.0798,0.446,0.6165,0.7066,0.7834,0.8046,0.7969,0.7969,0.8085,0.8099,0.8099,0.8213,0.8404,0.8618,0.853,0.8537,0.8516,0.8638,0.8686,0.8533,0.8645,0.8682,0.853,0.8404,0.8394,0.8374,0.8157,0.8108,0.8097,0.8084,0.8028,0.8002,0.7995,0.7995,0.7995,0.7995,0.7958,0.7981,0.8042,0.8036,0.7952,0.8012,0.8038,0.8038,0.8038,0.8038,0.8038,0.8038,0.7975,0.8334,1.2934,1.485,1.4718,1.4745,1.1978,0.8115,0.8799,1.149,1.4201,0.0,0.0,0.0,0.0,0.0,0.0,0.0,0.0,0.0,0.0,0.0,0.3581,0.0,0.0,0.0,0.0,0.0,0.0,0.0,0.0,0.0,0.0,0.0,0.0,0.0,0.0,0.0,0.0,0.4334,0.4511,0.4519,0.4492,0.4485,0.4519,0.4519,0.4519,0.4519,0.4519,0.4519,0.4519,0.4519,0.4519,0.4519,0.0,0.0,0.0,0.0,0.0,0.4519,0.4519,0.4519,0.4519,0.4519,0.0,0.0,0.0,0.3567,0.2838,0.4169,0.5728,0.7222,0.7869,0.7999,0.8035,0.8004,0.8038,0.8038,0.8038,0.8042,0.8156,0.835,0.8428,0.8347,0.8377,0.8486,0.853,0.8384,0.8489,0.8526,0.8381,0.8364,0.8223,0.8139,0.8024,0.7998,0.8042,0.8036,0.8009,0.8041,0.8038,0.8038,0.8038,0.8038,0.7969,0.8036,0.7972,0.7972,0.8036,0.7969,0.8038,0.8038,0.8038,0.8038,0.8038,0.8038,0.8041,0.845,1.3658,1.5765,1.5758,1.5765,1.2612,0.7973,0.8031,1.1296,1.5473,0.0,0.0,0.0,0.0,0.0,0.0,0.0,0.0,0.0,0.0,0.0,0.0,0.0,0.0,0.0,0.0,0.0,0.0,0.0,0.0,0.0,0.0,0.0,0.0,0.0,0.0,0.0,0.3848,0.4257,0.4501,0.4519,0.4519,0.4592,0.4748,0.4577,0.4497,0.4519,0.4519,0.4519,0.4519,0.4519,0.4519,0.4519,0.0,0.0,0.0,0.0,0.0,0.4519,0.4519,0.4519,0.4519,0.4519,0.4519,0.0,0.0,0.0,0.4386,0.3804,0.4882,0.6384,0.7309,0.7654,0.7754,0.7962,0.7957,0.7892,0.8031,0.8038,0.8075,0.8191,0.8193,0.823,0.8228,0.8333,0.8377,0.8235,0.8336,0.8374,0.8228,0.8211,0.8167,0.8052,0.8038,0.8038,0.8038,0.8038,0.8038,0.8038,0.8038,0.8038,0.8038,0.8038,0.8038,0.8038,0.8038,0.8038,0.8038,0.8038,0.8038,0.8038,0.8038,0.8038,0.8038,0.8038,0.8007,0.8252,1.2196,1.4624,1.5807,1.5809,1.264,0.8042,0.799,1.1341,1.5842,0.0,0.0,0.0,0.0,0.0,0.0,0.0,0.0,0.0,0.0,0.0,0.0,0.0,0.0,0.0,0.4416,0.0,0.0,0.0,0.0,0.0,0.0,0.0,0.0,0.0,0.0,0.0,0.4478,0.4481,0.4506,0.4519,0.4525,0.478,0.5335,0.4738,0.4482,0.4519,0.4519,0.4519,0.4519,0.4519,0.4519,0.4519,0.0,0.0,0.0,0.0,0.0,0.4519,0.4519,0.4519,0.4519,0.4519,0.4519,0.4519,0.0,0.0,0.0,0.4904,0.5373,0.5891,0.629,0.6662,0.7062,0.784,0.7825,0.7764,0.8007,0.8038,0.8041,0.8052,0.8058,0.8062,0.8052,0.818,0.8228,0.8072,0.8184,0.8225,0.8069,0.8052,0.8048,0.8038,0.8038,0.8038,0.8038,0.8038,0.8038,0.8038,0.8038,0.8038,0.8038,0.8038,0.8038,0.8038,0.8038,0.8038,0.8038,0.8038,0.8038,0.8038,0.8038,0.8038,0.8038,0.8038,0.8007,0.8048,0.8293,1.1366,1.58,1.5807,1.2624,0.7962,0.7966,1.1293,1.5807,0.0,0.0,0.0,0.0,0.0,0.0,0.0,0.0,0.0,0.0,0.0,0.0,0.0,0.0,0.4247,0.4485,0.452,0.0,0.0,0.0,0.0,0.0,0.0,0.0,0.0,0.0,0.4296,0.3938,0.4331,0.4523,0.4519,0.4502,0.4642,0.4833,0.4577,0.4488,0.4485,0.448,0.4498,0.4519,0.4519,0.4519,0.4519,0.4519,0.0,0.0,0.0,0.4519,0.4519,0.4519,0.4519,0.4519,0.4519,0.4519,0.4519,0.4519,0.4522,0.4591,0.4903,0.4977,0.5114,0.5728,0.6185,0.6678,0.726,0.7622,0.7889,0.7945,0.801,0.8038,0.8038,0.8038,0.8038,0.8038,0.8085,0.8102,0.8045,0.8089,0.8102,0.8045,0.8038,0.8038,0.8038,0.8038,0.8038,0.8038,0.8038,0.8038,0.8038,0.8038,0.8038,0.8038,0.8038,0.8038,0.8038,0.8038,0.8038,0.8038,0.8038,0.8038,0.8038,0.8038,0.8038,0.8038,0.8038,0.8028,0.8004,0.8045,1.1044,1.5822,1.5822,1.4643,1.3028,1.2962,1.4238,1.5803,0.0,0.0,0.0,0.0,0.0,0.0,0.0,0.0,0.0,0.0,0.0,0.0,0.0,0.0,0.4513,0.4485,0.4518,0.4522,0.4473,0.4473,0.0,0.0,0.0,0.0,0.0,0.0,0.0,0.0,0.0,0.4529,0.4519,0.4505,0.4525,0.4475,0.4494,0.5041,0.5888,0.4919,0.4481,0.4501,0.4512,0.4608,0.4833,0.5008,0.4908,0.4616,0.4555,0.4613,0.4666,0.4615,0.4597,0.4538,0.0,0.456,0.4519,0.4519,0.4519,0.4563,0.4711,0.468,0.4742,0.5358,0.5772,0.6256,0.6899,0.7305,0.7594,0.7791,0.7856,0.7946,0.7902,0.7929,0.7963,0.7963,0.7963,0.7963,0.7963,0.7963,0.798,0.8035,0.7994,0.7984,0.8035,0.8038,0.8038,0.8038,0.8038,0.0,0.8038,0.8038,0.8018,0.7967,0.8017,0.7993,0.7993,0.7993,0.7993,0.7993,0.8041,0.7963,0.7967,0.8018,0.8038,0.8038,0.8018,0.8021,0.8035,0.7957,1.0036,1.3316,1.5152,1.5796,1.5596,1.3861,1.4316,1.5803,0.0,0.0,0.0,0.0,0.0,0.0,0.0,0.0,0.0,0.0,0.0,0.0,0.0,0.0,0.0,0.4519,0.4519,0.4519,0.4519,0.4519,0.0,0.0,0.0,0.0,0.0,0.0,0.0,0.0,0.0,0.0,0.0,0.4519,0.4482,0.4497,0.4522,0.6086,0.8603,0.5828,0.458,0.4474,0.4505,0.4844,0.5432,0.604,0.573,0.4854,0.461,0.4799,0.509,0.4935,0.482,0.4752,0.0,0.0,0.0,0.0,0.0,0.0,0.0,0.0,0.0,0.5029,0.5319,0.5762,0.6579,0.6787,0.6897,0.7282,0.758,0.7654,0.7715,0.7706,0.7801,0.7997,0.7901,0.7807,0.8011,0.7907,0.7862,0.8014,0.7896,0.7865,0.8011,0.8031,0.8031,0.8031,0.8035,0.8038,0.8038,0.8035,0.7963,0.8007,0.7967,0.7987,0.7987,0.7987,0.7987,0.7991,0.7938,0.8007,0.8014,0.7967,0.8035,0.8035,0.798,0.8086,0.8233,0.8112,0.8063,0.8751,1.3808,1.5803,1.5147,0.9971,1.1306,1.5787,0.0,0.0,0.0,0.0,0.0,0.0,0.0,0.0,0.0,0.0,0.0,0.0,0.0,0.0,0.0,0.4519,0.4519,0.4519,0.4519,0.4519,0.4519,0.4519,0.4519,0.0,0.0,0.0,0.0,0.0,0.0,0.0,0.0,0.0,0.0,0.4518,0.4477,0.6077,0.8741,0.7967,0.6385,0.4505,0.4501,0.4573,0.4814,0.5432,0.5459,0.527,0.5188,0.563,0.6307,0.6397,0.622,0.5774,0.4955,0.0,0.0,0.0,0.0,0.0,0.4519,0.0,0.0,0.0,0.0,0.0,0.5706,0.5939,0.6202,0.6743,0.6954,0.7161,0.7421,0.7468,0.7492,0.7588,0.7587,0.7695,0.7797,0.7723,0.7614,0.7557,0.7647,0.7675,0.7716,0.7814,0.7862,0.0,0.7957,0.8038,0.8038,0.7933,0.7807,0.7567,0.7621,0.76,0.7312,0.7312,0.7312,0.7312,0.7348,0.7614,0.8011,0.7955,0.8034,0.8035,0.798,1.0113,1.3391,0.9518,1.0255,1.3811,1.5236,1.5827,1.5164,0.9897,1.135,1.5809,0.0,0.0,0.0,0.0,0.0,0.0,0.0,0.0,0.0,0.0,0.0,0.0,0.0,0.0,0.0,0.4515,0.4505,0.4501,0.4515,0.4519,0.4519,0.4519,0.4519,0.4519,0.0,0.0,0.0,0.0,0.0,0.0,0.0,0.0,0.0,0.0,0.4511,0.6126,0.8782,0.8824,0.781,0.6211,0.5277,0.5466,0.6293,0.627,0.6332,0.6386,0.6608,0.7055,0.7564,0.7288,0.6599,0.5771,0.5434,0.0,0.0,0.0,0.0,0.0,0.0,0.0,0.0,0.4731,0.0,0.0,0.5425,0.5587,0.5855,0.6227,0.6508,0.6698,0.6902,0.6956,0.6997,0.6997,0.7071,0.7244,0.758,0.7556,0.7463,0.7508,0.7496,0.7529,0.7594,0.7675,0.7729,0.774,0.7814,0.7855,0.7855,0.7729,0.7513,0.7413,0.7441,0.7315,0.7126,0.7126,0.7126,0.7126,0.7092,0.7389,0.802,0.7723,0.8193,0.9229,0.8383,1.101,1.5553,1.2514,1.3081,1.58,1.58,1.5783,1.5124,0.994,1.1298,1.5758,0.0,0.0,0.0,0.0,0.0,0.0,0.0,0.0,0.0,0.0,0.0,0.0,0.0,0.0,0.0,0.0,0.4707,0.4481,0.4508,0.4508,0.0,0.0,0.4512,0.4515,0.4519,0.0,0.0,0.0,0.0,0.0,0.0,0.0,0.0,0.0,0.0,0.0,0.8823,0.8824,0.8596,0.8172,0.6095,0.6714,0.8746,0.8086,0.795,0.8178,0.8471,0.8769,0.8889,0.7986,0.683,0.5788,0.6113,0.5718,0.0,0.0,0.4728,0.0,0.0,0.0,0.0,0.0,0.4867,0.0,0.5406,0.5555,0.5661,0.5905,0.619,0.6366,0.6254,0.6366,0.6468,0.6451,0.6474,0.6695,0.7265,0.7333,0.7383,0.7553,0.7438,0.74,0.7633,0.7567,0.76,0.7668,0.7628,0.7587,0.755,0.7492,0.7421,0.735,0.721,0.7139,0.7139,0.7139,0.7139,0.7143,0.7095,0.7424,0.7865,0.7858,0.8989,1.0991,0.9334,1.1319,1.5638,1.5625,1.5667,1.583,1.5843,1.5428,1.437,0.969,1.1337,1.5758,0.0,0.0,0.0,0.0,0.0,0.0,0.0,0.0,0.0,0.0,0.0,0.0,0.0,0.0,0.0,0.0,0.0,0.4525,0.4477,0.0,0.0,0.4474,0.4477,0.4488,0.4519,0.4519,0.0,0.0,0.0,0.0,0.0,0.0,0.0,0.0,0.0,0.6103,0.8817,0.8804,0.7439,0.5276,0.4835,0.6342,0.8878,0.9688,1.0299,1.0594,0.9915,0.9895,1.0195,0.9581,0.9481,0.9179,0.7021,0.627,0.5954,0.5237,0.0,0.0,0.0,0.0,0.0,0.0,0.5254,0.0,0.5108,0.5332,0.5569,0.5504,0.5725,0.5962,0.6057,0.6291,0.6434,0.6322,0.6502,0.678,0.7136,0.7088,0.7024,0.7194,0.7185,0.7197,0.7227,0.7343,0.7464,0.7451,0.7472,0.7399,0.7431,0.7444,0.7356,0.7193,0.7156,0.7139,0.7139,0.7139,0.7139,0.7139,0.7081,0.7175,0.7414,1.1091,1.1973,1.0772,1.2253,1.3532,1.4417,1.4405,1.4975,1.5837,1.5832,1.325,0.9368,0.8383,1.1337,1.5758,0.0,0.0,0.0,0.0,0.0,0.0,0.0,0.0,0.0,0.0,0.0,0.0,0.0,0.0,0.0,0.0,0.0,0.0,0.0,0.0,0.6663,0.6638,0.5257,0.4481,0.4519,0.4519,0.0,0.0,0.0,0.0,0.0,0.0,0.0,0.0,0.0,0.7456,0.8798,0.8798,0.7955,0.6628,0.6653,0.7486,0.8942,1.0154,1.1115,1.1715,1.095,1.0988,1.1414,1.0923,1.056,0.9955,0.791,0.7118,0.6631,0.5545,0.5196,0.5121,0.0,0.0,0.0,0.5209,0.525,0.0,0.0,0.5308,0.5403,0.5549,0.5518,0.5535,0.5766,0.5806,0.583,0.5911,0.5986,0.619,0.6637,0.6766,0.6841,0.6826,0.6833,0.6892,0.6989,0.7032,0.709,0.7018,0.72,0.7258,0.7184,0.7231,0.7208,0.7146,0.7139,0.7139,0.7139,0.7139,0.7017,0.686,0.7017,0.7091,0.7165,0.9553,1.0656,1.0778,1.1899,1.3019,1.4106,1.4097,1.4462,1.5003,1.5623,1.2587,0.8006,0.8041,1.1308,1.577,0.8824,0.0,0.0,0.0,0.0,0.0,0.0,0.0,0.0,0.0,0.0,0.0,0.0,0.0,0.0,0.0,0.0,0.0,0.0,0.0,0.0,0.8815,0.6046,0.4474,0.4508,0.4515,0.4519,0.0,0.0,0.0,0.0,0.0,0.0,0.0,0.7734,0.8911,0.9126,0.9126,0.9057,0.8963,0.9073,0.9125,0.9275,1.0248,1.115,1.1959,1.1703,1.1897,1.2225,1.185,1.109,1.0087,0.8965,0.8067,0.7302,0.6162,0.5691,0.5443,0.5237,0.0,0.0,0.0,0.0,0.5267,0.0,0.0,0.0,0.5616,0.5406,0.525,0.5501,0.5342,0.5247,0.5467,0.5471,0.5596,0.6101,0.6366,0.6546,0.6481,0.6662,0.6753,0.6722,0.6644,0.6627,0.6654,0.68,0.6903,0.6902,0.6997,0.7065,0.7082,0.7082,0.7088,0.7102,0.7126,0.7155,0.7272,0.7041,0.7082,0.7403,0.7581,0.869,1.0557,1.1048,1.2374,1.4085,1.409,1.4105,1.4209,1.515,1.3003,0.9507,0.9548,1.2167,1.578,0.8771,0.8549,0.0,0.0,0.0,0.0,0.0,0.0,0.0,0.0,0.0,0.0,0.0,0.8798,0.8696,0.8363,0.0,0.0,0.8765,0.0,0.0,0.0,0.6049,0.4501,0.4525,0.4501,0.4519,0.4519,0.0,0.0,0.0,0.0,0.0,0.8333,0.8639,0.9412,1.0422,1.0409,1.008,0.9653,1.0192,1.0395,1.039,1.0539,1.0653,1.091,1.184,1.2245,1.2251,0.0,1.1688,1.1288,1.0218,0.9238,0.8301,0.7509,0.6602,0.5976,0.6081,0.62,0.0,0.0,0.6027,0.6098,0.5352,0.0,0.5627,0.5277,0.0,0.5345,0.5449,0.0,0.0,0.5199,0.5504,0.5684,0.5559,0.5833,0.6196,0.6444,0.6734,0.679,0.6593,0.6452,0.6363,0.6488,0.641,0.6508,0.6819,0.6793,0.6787,0.6871,0.7048,0.7079,0.7128,0.7078,0.7861,0.9351,0.7368,0.7123,0.8495,0.9441,0.9669,0.9538,1.2471,1.3864,1.409,1.4129,1.4075,1.409,1.4232,1.4514,1.4946,1.4878,1.5259,1.578,0.8791,0.8791,0.7901,0.0,0.0,0.0,0.0,0.0,0.0,0.0,0.0,0.0,0.8829,0.8798,0.8802,0.8825,1.0057,1.0243,0.8866,0.0,0.0,0.0,0.7629,0.6199,0.4522,0.4501,0.4519,0.4519,0.4519,0.0,0.0,0.0,0.0,0.8832,0.9549,0.9745,0.9608,1.0316,1.0229,0.9741,0.9993,1.0288,1.0594,1.0584,1.0994,1.1621,1.2109,1.2456,1.2567,0.0,1.2012,0.0,0.0,0.0,0.961,0.8085,0.7285,0.6801,0.6371,0.0,0.0,0.0,0.0,0.0,0.5606,0.0,0.5542,0.5521,0.0,0.0,0.0,0.0,0.0,0.0,0.522,0.5274,0.5233,0.5165,0.5359,0.6006,0.6204,0.6234,0.6139,0.6396,0.6459,0.6153,0.619,0.6374,0.6535,0.6662,0.6698,0.6767,0.6958,0.7027,0.6878,0.6936,0.7613,0.8918,0.7863,0.8108,0.9331,0.9722,1.0045,1.0402,1.1173,1.2488,1.4124,1.4062,1.4122,1.4102,1.4084,1.4405,1.4924,1.5523,1.5765,1.5797,0.8804,0.8805,0.8152,0.604,0.5031,0.0,0.0,0.0,0.0,0.0,0.0,0.8242,0.9163,0.9599,0.9787,0.9736,1.1036,1.0959,0.8902,0.9105,0.9123,0.8828,0.8786,0.7439,0.4556,0.4484,0.4524,0.4509,0.0,0.0,0.0,0.0,0.0,0.0,0.9699,0.9631,0.8909,1.0073,1.0376,0.9962,0.9962,1.0223,1.0575,1.0586,1.1128,1.1847,1.2165,1.2487,1.264,1.221,1.2271,0.0,1.1297,1.0863,1.0501,0.8751,0.8021,0.7528,0.6659,0.0,0.0,0.0,0.0,0.0,0.0,0.0,0.0,0.0,0.5583,0.0,0.0,0.0,0.0,0.0,0.0,0.5095,0.5257,0.4914,0.5022,0.5938,0.6272,0.6561,0.0,0.6786,0.6686,0.6215,0.6079,0.6084,0.6251,0.6335,0.6529,0.6623,0.684,0.6826,0.6652,0.6723,0.7406,0.8734,0.83,0.8857,1.0176,0.9948,1.0354,1.1118,1.08,1.1882,1.3892,1.4008,1.4081,1.4088,1.4088,1.4056,1.427,1.5406,1.5824,1.5832,0.8804,0.8805,0.8791,0.8678,0.6338,0.5479,0.0,0.8811,0.961,1.192,0.8265,0.6783,1.0161,1.1503,1.2193,1.2164,1.1233,1.0123,0.886,0.9906,1.0031,0.8864,0.8796,0.7465,0.4587,0.4525,0.4507,0.4527,0.4492,0.0,0.0,0.0,0.0,0.0,0.8824,0.8845,0.8872,1.0087,1.0609,1.0541,1.0541,1.0555,1.0615,1.0581,1.0641,1.0805,1.1906,0.0,0.0,1.2714,1.2633,0.0,0.0,0.0,0.0,0.0,0.0,0.0,0.0,0.0,0.0,0.6217,0.0,0.0,0.0,0.0,0.5928,0.0,0.0,0.0,0.0,0.0,0.0,0.0,0.0,0.0,0.0,0.5358,0.5488,0.6515,0.7507,0.8425,0.9121,0.7657,0.689,0.7253,0.6154,0.5574,0.5989,0.5919,0.5962,0.6298,0.6478,0.6485,0.6485,0.6636,0.7662,0.9422,0.8468,0.9,1.0757,1.0404,1.0498,1.0962,1.2446,1.3167,1.3264,1.3824,1.4082,1.4088,1.4088,1.4056,1.4251,1.5376,1.5759,1.5832,0.8804,0.8824,0.8798,0.8791,0.7984,0.768,0.8638,0.9466,1.0305,1.1056,0.982,0.9292,1.0456,1.1632,1.2916,1.4465,1.3539,1.2417,1.1236,1.0064,0.958,0.9973,0.925,0.8697,0.8549,0.8556,0.7234,0.4508,0.4893,0.0,0.0,0.0,0.0,0.0,0.8775,0.9227,1.0046,1.0457,1.0568,1.0624,1.0624,1.0574,1.061,0.0,1.1034,1.1792,1.2189,1.2432,0.0,1.2533,1.2594,1.2559,1.2365,1.2208,1.1917,1.0838,0.9925,0.0,0.0,0.0,0.6915,0.6563,0.0,0.0,0.0,0.0,0.0,0.0,0.0,0.0,0.0,0.0,0.0,0.0,0.0,0.0,0.0,0.5822,0.6575,0.6937,0.6943,0.7131,0.7793,0.6851,0.6287,0.6408,0.5656,0.5342,0.5577,0.5847,0.5949,0.6096,0.6369,0.6813,0.7386,0.7646,0.8627,1.039,1.0046,1.0642,1.215,1.2037,1.1917,1.1865,1.2674,1.3094,1.3225,1.34,1.3734,1.4088,1.4088,1.4056,1.4251,1.5369,1.5752,1.5832,0.8804,0.8804,0.8818,0.8811,0.8823,0.8968,0.9369,1.0438,1.1053,1.0647,1.1658,1.2466,1.2449,1.3112,1.4149,1.5686,1.5114,1.4216,1.3016,1.1139,1.0208,1.0586,0.9857,0.9835,1.0567,1.0572,0.9325,0.6655,0.7081,0.7984,0.0,0.0,0.0,0.0,0.946,0.9874,1.0606,1.0581,1.0594,1.0631,1.0597,1.0568,1.0664,0.0,1.1641,1.2311,0.0,1.2424,1.2559,1.2365,1.2425,1.2552,1.2365,1.2438,1.2454,1.139,1.0807,1.0233,0.9387,0.879,0.0,0.7579,0.7327,0.0,0.6207,0.0,0.6251,0.0,0.0,0.0,0.0,0.0,0.0,0.0,0.0,0.0,0.0,0.5732,0.6626,0.691,0.7239,0.7573,0.7843,0.7034,0.6432,0.6392,0.5527,0.5169,0.5426,0.5664,0.5864,0.6023,0.6217,0.6828,0.7757,0.8036,0.9049,1.0825,1.073,1.1316,1.2721,1.2661,1.2605,1.2478,1.2725,1.3008,1.3239,1.332,1.3556,1.3893,1.4082,1.4056,1.4251,1.5369,1.5752,1.5832,0.8811,0.8824,0.8791,0.8791,0.8807,0.9206,1.0478,1.1597,1.1919,1.0941,1.3705,1.5813,1.5808,1.5818,1.5791,1.5791,1.5835,1.5354,1.427,1.3014,1.1853,1.0808,1.0746,1.074,1.0612,1.0618,1.0573,1.0573,1.0599,1.0587,1.0588,1.0628,1.0595,1.0602,1.0629,1.062,1.058,1.0586,1.0631,1.0601,1.0575,1.0633,1.081,1.1873,1.2288,1.2285,1.2319,1.2308,1.2305,1.2305,1.2305,1.2305,1.2305,1.2311,1.2149,1.149,1.1365,1.1307,1.0616,1.0758,1.074,0.9217,0.9,0.0,0.0,0.0,0.6898,0.0,0.0,0.0,0.0,0.0,0.0,0.0,0.0,0.0,0.0,0.5081,0.5791,0.651,0.8363,0.9471,0.9214,0.8021,0.7183,0.7055,0.5728,0.5118,0.5545,0.5443,0.5641,0.6077,0.6098,0.6697,0.7931,0.7912,0.897,1.0842,1.0553,1.1064,1.2305,1.2325,1.2485,1.2822,1.2811,1.2959,1.3231,1.3451,1.3522,1.3516,1.3899,1.4149,1.4353,1.5404,1.578,1.5832,0.8791,0.879,0.8814,0.8814,0.8806,0.9468,1.1549,1.2082,1.2795,1.4303,1.5202,1.5763,1.5812,1.5821,1.581,1.581,1.5787,1.5646,1.5411,1.3484,1.2588,1.3169,1.3202,1.2352,1.0611,1.0567,1.0605,1.0621,1.0611,1.0608,1.0607,1.0588,1.0609,1.0616,1.0622,1.0586,1.0593,1.0598,1.0611,1.0575,1.0586,1.1115,1.1924,0.0,1.2301,1.2332,1.2298,1.2318,1.2305,1.2305,1.2305,1.2305,1.2305,1.2282,1.2263,1.2071,1.1642,1.1291,1.1201,1.1399,1.1418,1.0393,1.0188,0.9808,0.0,0.0,0.0,0.0,0.0,0.0,0.0,0.0,0.0,0.0,0.0,0.0,0.0,0.5443,0.5965,0.6145,0.7116,0.7863,0.809,0.7056,0.6289,0.6117,0.5443,0.5128,0.524,0.0,0.5974,0.6921,0.7057,0.8022,1.0034,1.0002,1.0685,1.1935,1.1822,1.197,1.2311,1.2536,1.2716,1.2795,1.3014,1.3146,1.3212,1.352,1.3522,1.3516,1.3899,1.4636,1.5417,1.5663,1.5812,1.5832,0.8788,0.88,0.912,1.0125,1.0302,1.0605,1.1396,1.2012,1.3117,1.5482,1.5836,1.5817,1.5814,1.5785,1.5832,1.5832,1.5792,1.5821,1.5805,1.4566,1.4169,1.4818,1.4845,1.3981,1.219,1.1583,1.1082,1.062,1.0575,1.058,1.0624,1.0624,1.0624,1.0624,1.0624,1.0621,1.0599,1.0599,1.14,1.2609,1.1723,1.2728,0.0,1.2953,1.2332,1.2276,1.2331,1.2305,1.2305,1.2305,1.2305,1.2325,1.2452,1.243,1.2319,1.2589,1.2308,1.199,1.232,1.2643,1.2632,1.1723,1.1522,1.1186,0.9194,0.9325,0.9229,0.0,0.7228,0.7348,0.0,0.0,0.0,0.546,0.0,0.0,0.0,0.5279,0.5634,0.5932,0.6349,0.67,0.687,0.6348,0.5831,0.5439,0.531,0.5203,0.5135,0.5423,0.6139,0.7274,0.7617,0.8777,1.0783,1.1094,1.1557,1.2305,1.2305,1.2305,1.2311,1.2538,1.257,1.2596,1.3081,1.324,1.3198,1.3513,1.3698,1.3808,1.4031,1.4482,1.5123,1.5599,1.5825,1.5832,0.9028,0.9175,0.9925,1.2126,1.2391,1.2107,1.1427,1.2142,1.3391,1.5099,1.532,1.5479,1.5791,1.5837,1.5832,1.5832,1.5832,1.5825,1.5826,1.5831,1.5839,1.5817,1.5786,1.5264,1.4149,1.2892,1.1657,1.0375,1.053,1.0588,1.0624,1.0624,1.0624,1.0624,1.0624,1.0688,1.083,1.0817,1.2747,1.5574,1.3791,1.4891,1.7254,1.4011,1.2656,1.2514,1.2485,1.2372,1.2305,1.2305,1.2305,1.2345,1.2605,1.2593,1.2493,1.2939,1.2942,1.2942,1.3419,1.38,1.3857,1.3019,1.2957,1.249,0.9962,1.0139,1.0168,0.7692,0.7842,0.8156,0.0,0.0,0.0,0.5281,0.0,0.0,0.0,0.5016,0.525,0.5859,0.592,0.0,0.5748,0.5909,0.5687,0.4951,0.5145,0.5254,0.5135,0.0,0.6229,0.7482,0.8111,0.9321,1.1121,1.1594,1.1989,1.2418,1.2338,1.2305,1.2305,1.2345,1.2365,1.2405,1.318,1.3427,1.3307,1.3572,1.3802,1.4108,1.4077,1.4095,1.4254,1.5212,1.5558,1.5617,1.0115,1.1035,1.2144,1.3523,1.2998,1.2863,1.4632,1.5035,1.4615,1.3081,1.2871,1.3684,1.5577,1.5772,1.5832,1.5832,1.5832,1.5792,1.5792,1.5833,1.5812,1.5819,1.5763,1.5273,1.4129,1.2885,1.1275,0.9094,1.0116,1.0577,1.0624,1.0624,1.0624,1.0624,1.0624,1.1094,1.2032,1.1988,1.4179,1.7546,1.7129,1.6503,1.5658,1.552,1.4767,1.384,1.3535,1.2952,1.2305,1.2305,1.2305,1.2311,1.2365,1.2681,1.2991,1.2594,1.2461,1.2544,1.3114,1.3716,1.4054,1.3848,1.4024,1.3849,1.2323,1.2212,1.1751,0.9242,0.8706,0.8271,0.7007,0.0,0.0,0.0,0.0,0.0,0.0,0.5545,0.5538,0.5674,0.5674,0.5557,0.5266,0.5697,0.5636,0.48,0.4897,0.5036,0.5125,0.0,0.6968,0.0,0.933,1.0724,0.0,0.0,1.25,1.3046,1.2545,1.2305,1.2311,1.2559,1.2741,1.2705,1.334,1.3601,1.3594,1.3851,1.4082,1.4088,1.4142,1.4117,1.4135,1.4287,1.4415,1.4533,1.2186,1.2353,1.2459,1.3064,1.2676,1.309,1.546,1.5831,1.5352,1.427,1.4085,1.4549,1.5695,1.5778,1.5792,1.5792,1.5792,1.5824,1.5824,1.5825,1.5792,1.5792,1.5832,1.526,1.413,1.2929,1.1455,0.9718,0.0,0.0,0.0,0.0,1.0624,1.0631,1.0573,1.0866,1.1539,1.3204,0.0,1.8019,1.8005,1.7456,1.6585,1.6254,1.5745,1.5084,1.4027,1.3382,1.2952,1.2445,1.2305,1.2325,1.2485,1.2675,1.2709,1.2768,1.2698,1.27,1.3267,1.3743,1.4102,1.4139,1.4195,1.3939,1.2701,1.3069,1.2949,1.0436,0.9906,0.9289,0.7087,0.6332,0.0,0.0,0.0,0.0,0.0,0.5681,0.5589,0.5589,0.5518,0.5382,0.5152,0.5377,0.533,0.4819,0.4945,0.5057,0.5128,0.0,0.6805,0.0,0.0,0.0,1.2732,0.0,1.2839,1.2966,1.2672,1.2532,1.2545,1.2755,1.2809,1.2856,1.3561,1.3743,1.3667,1.3968,1.4088,1.4088,1.4088,1.4077,1.4104,1.4104,1.409,1.4193,1.3895,1.3294,1.264,1.2367,1.2705,1.3699,1.5535,1.5835,1.5832,1.5819,1.5826,1.5805,1.5805,1.5831,1.6216,1.7279,1.7323,1.7318,1.7318,1.7335,1.6922,1.5858,1.5791,1.5233,1.4135,1.3138,1.1964,0.0,0.0,0.0,0.0,0.0,1.0615,1.0631,1.0828,0.0,0.0,0.0,1.6383,1.7989,1.7996,1.7969,1.7881,1.6903,1.6412,1.607,1.4783,1.4171,1.3882,1.3164,1.2659,1.2345,1.2579,1.2492,1.2405,1.2868,1.3021,1.3101,1.3459,1.3821,1.4105,1.4075,1.4088,1.3822,1.2942,1.3589,1.3803,1.1435,1.1009,1.0159,0.7518,0.6828,0.0,0.0,0.0,0.0,0.0,0.0,0.5671,0.564,0.5528,0.5382,0.5199,0.5148,0.5098,0.502,0.5057,0.5084,0.5084,0.0,0.0,0.0,0.0,1.0708,1.2492,0.0,1.2993,1.2933,1.2746,1.2761,1.2829,1.2824,1.2882,1.2856,1.3654,1.3872,1.3754,1.3988,1.4088,1.4088,1.4088,1.4088,1.4088,1.4088,1.4122,1.4091,1.4088,1.4045,1.36,1.2524,1.4041,1.5542,1.577,1.5824,1.5825,1.5839,1.5805,1.5803,1.5803,1.5766,1.7568,2.2035,2.2464,2.2455,2.2455,2.2409,2.0475,1.5971,1.5791,1.5233,1.4135,1.398,1.2847,0.0,0.0,1.0621,0.0,0.0,0.0,0.0,0.0,0.0,0.0,1.4046,1.6394,1.7994,1.7986,1.8022,1.8008,1.7881,1.7295,1.6549,1.6349,1.579,1.5021,1.495,1.3738,1.2305,1.2338,1.2325,1.2284,1.2348,1.2869,1.3438,1.3494,1.3763,1.4125,1.4112,1.4088,1.4088,1.3997,1.4031,1.3783,1.2381,1.1316,1.0157,0.8556,0.8338,0.793,0.0,0.0,0.0,0.0,0.0,0.5935,0.5796,0.5769,0.565,0.5365,0.5213,0.5182,0.5311,0.5084,0.4938,0.0,0.0,0.0,0.8744,0.979,1.1236,1.312,1.2632,1.2779,1.3547,1.2732,1.2485,1.2822,1.2772,1.2772,1.2856,1.3387,1.3801,1.4048,1.4075,1.4088,1.4088,1.4088,1.4088,1.4088,1.4088,1.4064,1.4135,1.42,1.4663,1.5005,1.4437,1.514,1.5819,0.0,1.5799,1.6885,1.9835,1.7627,1.6892,1.9832,2.0203,2.0995,2.2896,2.3095,2.3082,2.3082,2.3124,2.0876,1.598,1.5817,1.5265,1.4143,1.408,1.4393,0.0,0.0,0.0,0.0,0.0,0.0,0.0,0.0,1.2082,1.3575,1.4866,1.6383,1.8025,1.8029,1.8035,1.8008,1.8008,1.7794,1.7354,1.6775,1.6349,1.593,1.5376,1.4402,1.3426,1.3178,1.2938,1.2708,1.2764,1.3153,1.3561,1.3801,1.4005,1.4129,1.4062,1.4088,1.4088,1.4088,1.4256,1.4265,1.3553,1.2419,1.1235,0.995,0.9619,0.9224,0.7971,0.0,0.0,0.0,0.0,0.5871,0.581,0.5644,0.5491,0.5439,0.5304,0.5294,0.5422,0.5087,0.4996,0.0,0.0,0.0,0.7826,0.0,1.0404,1.1725,1.2472,1.3026,1.338,1.3019,1.2999,1.3287,1.3287,1.338,1.3567,1.3808,1.3874,1.3732,1.3732,1.3732,1.3732,1.3732,1.3951,1.4342,1.4157,1.4135,1.4224,1.4799,0.0,1.5828,0.0,1.6049,1.6232,1.5886,1.6979,1.9406,2.3334,2.0413,1.9266,2.2704,2.3519,2.3623,2.3109,2.3113,2.3135,2.3135,2.3094,2.1526,1.8103,1.7954,0.0,1.4183,1.5329,1.6679,1.797,1.3001,0.0,0.0,0.0,0.0,0.0,1.1934,1.3566,1.6159,1.6149,1.6883,1.8021,1.8016,1.7862,1.7755,1.7959,1.7939,1.7765,1.7239,1.6991,1.6922,1.6228,1.5803,1.538,1.4214,1.357,1.3272,1.3225,1.3353,1.3707,1.4008,1.4088,1.4108,1.428,1.4155,1.4135,1.4309,1.4488,1.4418,1.4196,1.3436,1.2504,1.1295,1.0947,1.0403,0.9266,0.0,0.0,0.0,0.6543,0.6208,0.5806,0.5583,0.541,0.5432,0.5428,0.5428,0.5428,0.5165,0.0,0.0,0.0,0.0,0.0,0.0,0.0,1.0906,1.2473,1.3213,1.3213,1.3213,1.332,1.352,1.3519,1.3761,1.3961,1.4048,1.3968,1.3685,1.3685,1.3685,1.3685,1.3685,1.3984,1.4422,1.4328,1.4261,1.4294,1.579,1.5749,1.5789,1.5791,1.6781,1.7204,1.5951,1.9923,2.3633,2.5444,2.4077,2.3047,2.3111,2.4659,2.4949,2.3271,2.3144,2.3135,2.3135,2.3094,2.3032,0.0,0.0,2.0232,1.419,1.8318,1.9658,1.7963,0.0,0.0,1.2265,0.0,1.0634,1.0741,1.3958,1.6307,1.7999,1.7976,1.7991,1.8021,1.8016,1.7667,1.7166,1.7765,1.7754,1.7451,1.7861,1.8008,1.8008,1.794,1.8377,1.8322,1.517,1.4163,1.4026,1.3378,1.34,1.3707,1.4008,1.4088,1.4162,1.4549,1.4394,1.4242,1.4823,1.4533,1.4128,1.4122,1.4097,1.373,1.2504,1.2322,1.1725,1.0177,0.0,0.0,0.0,0.7613,0.0,0.596,0.5674,0.5528,0.5442,0.5428,0.5428,0.5428,0.0,0.0,0.0,0.0,0.0,0.7283,0.8888,0.0,1.1188,1.2497,1.3213,1.3213,1.3213,1.3213,1.3227,1.3514,1.3566,1.3585,1.3961,1.4082,1.4082,1.4082,1.4082,1.4082,1.4082,1.4071,1.4222,1.481,1.4589,1.4253,2.0154,2.0802,2.0776,2.0821,2.1129,2.1216,2.0841,2.2135,2.33,2.384,2.3457,2.3142,2.3086,2.3574,2.3731,0.0,2.3086,2.3135,0.0,2.3125,2.3076,2.3076,2.1969,2.0492,1.854,1.9855,2.0318,1.9757,0.0,0.0,0.0,1.156,1.2505,1.3958,1.6206,1.7488,1.7996,1.8012,1.7996,1.8006,1.7969,1.7852,1.7658,1.7504,1.7562,1.7832,1.7959,1.8008,1.8008,1.8008,1.834,1.8637,1.8143,1.7521,1.6779,1.5098,1.4844,1.4932,1.4307,1.4229,1.4402,1.4502,1.4609,1.4736,1.4923,1.4635,1.4322,1.4128,1.4097,1.3997,1.3561,1.3555,1.2999,1.1546,1.0964,0.0,0.8875,0.0,0.6999,0.6718,0.6025,0.5569,0.5521,0.5518,0.5518,0.0,0.0,0.0,0.0,0.0,0.0,0.0,0.8585,0.0,1.0172,1.2357,1.3407,1.3206,1.2993,1.3006,1.3227,1.3721,1.3948,1.3948,1.4048,1.3975,1.3781,1.3781,1.3781,1.3781,1.3698,1.4018,1.4517,1.4421,1.478,1.5276,2.2507,2.3124,2.3133,2.307,2.3119,2.3085,2.3071,2.3062,2.3108,2.3096,2.3134,2.3094,2.3076,2.3135,0.0,2.3063,2.3076,2.3135,2.3135,2.3135,2.2843,2.2226,2.1184,2.0569,2.0583,2.0634,0.0,2.0636,1.9521,1.6285,1.1306,1.3461,1.5155,1.6411,1.7539,1.8022,1.8035,1.7978,1.8008,1.7977,1.7988,1.7823,1.7523,1.7494,1.7552,1.7696,1.7949,1.8115,1.8223,1.8057,1.8506,1.9141,1.9442,1.942,1.8879,1.6995,1.6411,1.6108,1.547,1.5544,1.5727,1.5416,1.5205,1.5061,1.5046,1.4816,1.4548,1.4342,1.419,1.4088,1.4088,1.4088,1.369,1.2537,1.2024,1.1294,0.9798,0.0,0.7761,0.7199,0.0,0.0,0.0,0.5671,0.5647,0.0,0.0,0.0,0.0,0.0,0.0,0.6527,0.8779,1.0184,1.0594,1.2732,1.3607,1.3206,1.2899,1.3026,1.3547,1.3808,1.3981,1.4088,1.4088,1.3981,1.3808,1.3808,1.3808,1.3808,1.3718,1.3999,1.4449,1.4155,1.4812,1.5832,2.3102,2.3115,2.3135,2.3135,2.3135,2.3135,2.3135,2.3135,2.3135,2.3135,2.3135,2.3135,2.3135,2.3135,2.3135,2.3135,0.0,0.0,2.3135,2.3135,2.2399,2.0805,2.0624,2.0639,2.0671,2.0624,2.0584,2.0617,2.0616,1.7924,1.2931,1.6354,1.8017,1.8025,1.7974,1.8035,1.8018,1.8095,1.8144,1.8008,1.7997,1.7514,1.6864,1.7687,1.7667,1.7224,1.7823,1.8311,1.8584,1.8223,1.8906,1.9844,1.9453,1.9893,2.0313,1.8867,1.7929,1.7415,1.7334,1.7606,1.7801,1.6942,1.6074,1.5341,1.5225,1.497,1.4698,1.4495,1.4302,1.4115,1.4088,1.4068,1.3861,1.3273,1.2906,1.2172,1.0647,1.0018,0.9062,0.7407,0.0,0.0,0.5875,0.581,0.5749,0.0,0.0,0.0,0.0,0.0,0.6656,0.7803,0.9394,1.0816,1.2129,1.3407,1.3761,1.3173,1.2906,1.322,1.4015,1.3761,1.3808,1.4088,1.4088,1.4088,1.4088,1.4088,1.4088,1.4088,1.4108,1.4069,1.4148,1.4174,1.493,1.5832,0.0,0.0,2.3135,2.3135,2.3135,2.3135,2.3135,2.3135,2.3135,2.3135,2.3135,2.3135,2.3135,2.3135,2.3135,2.3135,2.3135,2.3135,2.3135,2.3135,2.2882,2.2544,2.1258,2.0941,2.1617,2.097,2.0596,2.0617,2.0565,1.9955,1.8627,1.8211,1.7978,1.7998,1.8017,1.7978,1.8076,1.9442,1.9196,1.7978,1.7969,1.7872,1.7697,1.7891,1.7939,1.7842,1.8448,1.8654,1.8672,1.8906,1.9394,1.9893,1.9795,2.0137,2.0401,1.9177,1.87,1.839,1.7504,1.7606,1.7885,1.7981,1.7571,1.6733,1.5327,1.5137,1.5046,1.4623,1.4469,1.4349,1.4128,1.3901,1.3554,1.2953,1.2418,1.1799,1.1005,1.0202,0.9333,0.0,0.7659,0.7021,0.6046,0.5871,0.5837,0.0,0.0,0.6,0.5928,0.7157,0.7841,0.7942,0.9531,1.0891,1.2129,1.3207,1.3447,1.2936,1.3019,1.3213,1.342,1.3574,1.3808,1.4088,1.4088,1.4088,1.4088,1.4088,1.4088,1.4108,1.4137,1.4138,1.418,1.5106,1.5531,1.5832,2.3135,2.3135,2.3135,2.3135,2.3135,2.3135,2.3135,2.3095,2.3132,2.3115,2.3085,2.3132,2.3125,2.3135,2.3135,2.3135,2.3135,2.3135,2.3135,2.3135,2.3076,2.3103,2.2197,2.1784,2.1925,2.1047,2.0593,2.0609,1.9827,1.9403,1.9403,1.845,1.7983,1.8016,1.8018,1.7968,1.8025,1.9018,1.8861,1.8006,1.7998,1.8008,1.8008,1.8008,1.8008,1.8076,1.8685,1.888,1.8965,1.9209,1.9697,2.0176,1.998,2.0215,2.0489,1.9923,1.9756,1.9599,1.8948,1.9218,1.9539,1.9042,1.8312,1.7316,1.5701,1.5378,1.5304,1.499,1.4703,1.4476,1.4315,1.3935,1.3447,1.2923,1.2365,1.1864,1.1269,1.0779,1.0236,0.9597,0.917,0.8736,0.8018,0.7326,0.6973,0.6992,0.6606,0.0,0.6234,0.7712,0.8603,0.8831,1.039,1.1761,1.2989,1.3372,1.3547,1.336,1.326,1.3353,1.3614,1.3634,1.3808,1.4088,1.4088,1.4088,1.4088,1.4088,1.4168,1.4394,1.4169,1.4389,1.4969,1.5548,1.5792,1.5832,2.3135,2.3135,2.3135,2.3135,2.3096,2.3057,2.3057,2.3107,2.3313,2.4054,2.3529,2.3113,2.3104,2.3057,2.3086,2.3135,2.3135,2.3135,2.3135,2.3135,2.3104,2.3087,2.3077,2.2784,2.212,2.1102,2.0622,2.0566,1.9127,1.8284,1.7979,1.8299,1.8744,1.9223,1.836,1.7998,1.8004,1.7979,1.7968,1.7992,1.7968,1.7969,1.8018,1.8018,1.8018,1.8086,1.8752,1.9125,1.9389,1.9443,1.9961,2.0498,2.0127,2.0273,2.0566,2.0566,2.0566,2.0576,2.0644,2.1309,2.1522,1.9826,1.8692,1.7576,1.6048,1.5605,1.5451,1.5404,1.4997,1.4623,1.4536,1.4001,1.3407,1.2899,1.2452,1.2011,1.1557,0.0,1.1378,1.0885,1.0854,1.077,1.0246,0.9271,0.8563,0.8306,0.7449,0.6894,0.6866,0.8238,0.9447,1.0259,1.1455,1.272,1.4088,1.3834,1.3814,1.4015,1.3514,1.354,1.4015,1.3761,1.3808,1.4088,1.4088,1.4088,1.4088,1.4135,1.4388,1.463,1.4327,1.4854,1.5708,1.5763,1.5825,1.5832,2.3135,2.3135,2.3135,2.3135,2.3073,2.3133,2.3133,2.3106,2.446,2.8231,2.5435,2.3099,2.3093,2.3133,2.308,2.3115,2.3135,2.3135,2.3135,2.3135,2.3115,2.3066,2.3066,2.3011,2.2919,2.1372,2.0625,2.0566,2.0328,1.9457,1.8033,1.9473,2.1981,2.4957,2.014,1.7971,1.8031,1.8005,1.7982,1.7965,1.8007,1.8036,1.7999,1.7999,1.7999,1.8094,1.895,1.9428,1.9693,2.0223,2.0459,2.0557,2.0488,2.0508,2.0566,2.0566,2.0566,2.0644,2.1025,2.1758,2.1826,1.9238,1.8864,1.8601,1.6061,1.5618,1.5691,1.5444,1.5324,1.511,1.4609,1.3841,1.3247,1.3153,1.2251,1.1617,1.1777,0.0,1.1825,1.0926,1.126,1.1169,1.0277,0.9861,0.9407,0.8664,0.8313,0.8214,0.8346,0.9822,1.1163,1.2175,1.2234,1.2899,1.4088,1.4041,1.3915,1.3707,1.3621,1.3621,1.3707,1.3585,1.3808,1.4088,1.4088,1.4088,1.4108,1.4349,1.4482,1.4569,1.4766,1.5002,1.5213,1.5665,1.5792,1.5832,2.3135,2.3075,2.312,2.312,2.3098,2.3929,2.6329,2.673,2.7476,2.9508,2.7965,2.6696,2.6757,2.4544,2.3097,2.3105,2.3135,2.3135,2.3135,2.3135,2.3135,2.3135,2.3135,2.265,2.1784,2.188,2.1517,2.0613,2.0641,2.0216,1.9468,2.238,2.4124,2.4614,2.3203,2.1896,2.0774,2.0776,1.969,1.7979,1.8007,1.8025,1.8113,1.9007,1.938,1.9347,1.8807,1.9088,1.9811,2.0438,2.0723,2.0928,2.0928,2.1084,2.123,2.0996,2.0928,2.1025,2.1465,2.2041,2.2074,2.0403,2.0234,2.0008,1.8018,1.7201,1.6814,1.6672,1.5961,1.5264,1.4836,1.4035,1.3394,1.3233,1.2472,0.0,1.2372,1.2458,1.2566,1.2552,1.2845,1.2958,1.2814,1.2122,1.1492,1.0971,0.9577,0.9127,0.9932,1.0629,1.1467,1.2632,1.325,1.3709,1.4088,1.4088,1.4343,1.4757,1.4124,1.42,1.4674,1.4117,1.3955,1.4095,1.4255,1.4229,1.4108,1.4402,1.4616,1.4783,1.505,1.5245,1.5437,1.5677,1.5832,1.5832,2.3124,2.3061,2.3453,2.4503,2.4679,2.5798,2.9292,2.9819,2.9764,2.9829,2.977,2.9788,2.9798,2.5822,2.3098,2.3096,2.3066,2.3144,2.3135,2.3135,2.3135,2.3135,2.3066,2.2323,2.0653,2.2251,2.2278,2.0604,2.0579,2.1069,2.2041,2.5097,2.5546,2.3991,2.5698,2.5232,2.3108,2.3114,2.1558,1.9099,1.8337,1.8251,1.873,2.0111,2.0624,2.0394,1.9108,1.9193,2.0,2.0537,2.0947,2.125,2.1357,2.1611,2.1816,2.1484,2.1455,2.1602,2.1943,2.2334,2.2457,2.1496,2.1311,2.0962,1.977,1.8772,1.8048,1.7777,1.6757,1.5773,1.5208,1.4342,1.3694,1.354,0.0,1.2559,1.3071,1.3138,1.334,1.4095,1.4249,1.4469,1.4923,1.4134,1.3399,1.2916,1.1071,1.0431,1.1547,1.147,1.1981,1.3252,1.4035,1.4342,1.4188,1.4122,1.4657,1.5696,1.4901,1.4894,1.5696,1.5144,1.458,1.4102,1.464,1.464,1.4215,1.4576,1.4856,1.507,1.5241,1.5537,1.5832,1.5832,1.5832,1.5832,2.3067,2.3063,2.4409,2.861,2.9334,2.9438,2.9721,2.9833,2.9764,2.9789,2.9777,2.9804,2.984,2.5806,2.3084,2.3057,2.31,2.3137,2.3115,2.3135,2.3135,2.3135,2.312,2.2294,2.0613,2.2236,2.2269,2.0604,2.0635,2.2466,2.6043,2.635,2.6438,2.626,2.6426,2.5205,2.3093,2.3119,2.2935,2.2474,1.9256,1.8954,2.04,2.0579,2.0587,2.0552,2.0458,2.0456,2.0566,2.1017,2.1211,2.1309,2.1709,2.1865,2.1875,2.1846,2.2109,2.2422,2.2461,2.2773,2.2736,2.156,2.1293,2.1025,1.9761,1.9397,1.9039,1.7956,1.7576,1.7094,1.5602,1.4649,1.4135,1.4382,0.0,0.0,1.3868,1.3988,1.4115,1.4449,1.473,1.4917,1.4963,1.4963,1.4405,1.3278,1.275,1.2715,1.2989,1.3074,1.3621,1.4834,1.4402,1.4242,1.4482,1.4222,1.4657,1.5696,1.5621,1.5621,1.5703,1.6683,1.5959,1.4186,1.5468,1.5426,1.4529,1.5097,1.5344,1.5391,1.5658,1.5792,1.5832,1.5832,1.5832,1.6021,2.3073,2.5352,2.779,2.9509,2.9769,2.977,2.977,2.9802,2.9792,2.9792,2.9792,2.9766,2.9803,2.5787,2.4252,2.7053,2.4708,2.3103,2.3071,2.308,2.3083,2.3135,2.309,2.2817,2.2179,2.2767,2.276,2.2135,2.3534,2.5034,2.6498,2.6502,2.6471,2.6468,2.6489,2.5991,2.5124,2.4202,2.352,2.2999,2.1654,2.0936,2.0632,2.0605,2.0611,2.0767,2.1777,2.1837,2.147,2.1767,2.1928,2.2051,2.2217,2.2451,2.2656,2.2656,2.2598,2.2568,2.2832,2.3018,2.296,2.2492,2.2403,2.2306,2.1854,2.1123,2.0486,2.0034,1.9314,1.8386,1.6781,1.6087,1.559,1.4947,0.0,1.3821,1.4536,1.4476,1.4529,1.5003,1.5164,1.5304,1.5484,1.5504,1.5233,1.459,1.3823,1.3713,1.4479,1.4571,1.5199,1.6586,1.6058,1.5684,1.5598,1.5397,1.6255,1.815,1.7114,1.7204,1.8068,1.7,1.6284,1.5734,1.5711,1.5301,1.4823,1.5231,1.5398,1.5497,1.6317,1.6965,1.7362,1.7956,1.845,1.8883,2.4943,2.7731,2.9831,2.9799,2.9799,2.9792,2.9792,2.9792,2.9792,2.9792,2.9792,2.9795,2.9797,2.5806,2.4363,2.7458,2.4862,2.37,2.5135,2.3866,2.3088,2.3115,2.3103,2.3067,2.3133,2.2575,2.2919,2.4204,2.5704,2.6488,2.6478,2.6509,2.6533,2.6533,2.6533,2.6536,2.6422,2.5385,2.4195,2.3042,2.2536,2.1642,2.0639,2.0611,2.0566,2.0713,2.1888,2.231,2.2281,2.2185,2.2291,2.2539,2.2666,2.291,2.3135,2.3135,2.293,2.2773,2.3057,2.3135,2.3135,2.3135,2.3135,2.3135,2.3135,2.2492,2.1756,2.1391,2.0666,1.9587,1.8167,1.74,1.6655,1.5791,1.4933,1.4536,1.503,1.4923,1.4977,1.5478,1.5531,1.5611,1.5812,1.5832,1.5745,1.5545,1.4695,1.4545,1.5398,1.5848,1.6586,1.752,1.7619,1.7699,1.7766,1.7047,1.7695,1.9616,1.8525,1.8542,1.9543,1.8054,1.7141,1.6778,1.6245,1.57,1.5113,1.5423,1.5821,1.6373,1.7258,1.8002,1.8751,1.933,1.9828,2.0269,2.896,2.9788,2.9824,2.9777,2.9792,2.9792,2.9792,2.9792,2.9792,2.9792,2.9792,2.9774,2.9819,2.5779,2.3134,2.3186,2.3153,2.5026,2.9484,2.5647,2.3145,2.3086,2.3125,2.31,2.3081,2.1486,2.2531,2.6468,2.6541,2.6539,2.6533,2.6533,2.6533,2.6533,2.6533,2.6498,2.6503,2.6503,2.5163,2.2986,2.1311,2.0627,2.0606,2.0615,2.0566,2.0566,2.0576,2.1698,2.2959,2.2185,2.2168,2.2588,2.3008,2.3135,2.3135,2.3135,2.3135,2.3135,2.3135,2.3135,2.3135,2.3135,2.3135,2.3135,2.3135,2.3135,2.2765,2.1569,2.1293,2.0935,1.9761,1.8289,1.7251,1.7161,1.5944,1.507,1.5357,1.5398,1.5504,1.5798,1.5832,1.5832,1.5832,1.5832,1.5832,1.5832,1.5565,1.5398,1.5398,1.6872,1.7527,1.7259,1.8755,1.9945,2.0898,1.9015,1.8554,1.9625,1.9625,1.9625,1.9643,1.9865,1.8836,1.6873,1.7243,1.6545,1.5291,1.5623,1.6785,1.8292,1.8284,1.8819,1.9497,1.9497,1.9497,1.967,2.9542,2.9816,2.9761,2.9817,2.9792,2.9792,2.9792,2.9792,2.9792,2.9792,2.9792,2.9774,2.9819,2.8578,2.7773,2.7788,2.7829,2.8373,2.9752,2.8518,2.7128,2.558,2.3916,2.3073,2.3124,2.4147,2.5318,2.6505,2.6468,2.6482,2.6533,2.6482,2.6469,2.6533,2.6533,2.6526,2.6468,2.6468,2.6108,2.5286,2.3184,2.1639,2.0606,2.0621,2.0566,2.0644,2.1269,2.1804,2.2347,2.2634,2.2852,2.2969,2.3096,2.3135,2.3135,2.3135,2.3135,2.3135,2.3135,2.3135,2.3135,2.3135,2.3135,2.3135,2.3135,2.3135,2.296,2.2677,2.258,2.1952,1.9861,1.9125,1.824,1.6514,1.5805,1.5605,1.5691,1.5698,1.5732,1.5818,1.5832,1.5832,1.5832,1.5832,1.5832,1.5832,1.5752,1.6067,1.6993,1.7453,1.8448,2.0035,2.0506,2.1337,2.2408,2.0712,2.0458,2.1597,2.131,2.132,2.1606,1.9878,1.9448,1.9775,1.734,1.6685,1.7387,1.8133,1.9015,2.0019,1.994,2.03,2.0845,2.1676,2.2041,2.2041,2.9804,2.9786,2.9792,2.9792,2.9792,2.9792,2.9792,2.9792,2.9792,2.9792,2.9792,2.9802,2.9791,2.9804,2.9824,2.9819,2.9008,2.8859,2.9732,2.8971,2.718,2.4305,2.436,2.3751,2.2186,2.3437,2.4969,2.6525,2.6516,2.6981,2.7769,2.6898,2.6514,2.6533,2.6533,2.6533,2.6533,2.6533,2.649,2.6345,2.5022,2.2889,2.0657,2.1449,2.1727,2.1819,2.23,2.2473,2.2504,2.2705,2.2889,2.3122,2.3122,2.3124,2.3135,2.3135,2.3135,2.3135,2.3135,2.3135,2.3135,2.3135,2.3135,2.3135,2.3135,2.3135,2.3135,2.3135,2.3135,2.2677,2.1221,2.0133,1.9039,1.7483,1.6473,1.5832,1.5832,1.5832,1.5832,1.5832,1.5832,1.5832,1.5832,1.5832,1.5832,1.5832,1.5832,1.6386,1.7598,1.7692,1.8772,2.1203,2.1293,2.1845,2.3057,2.2157,2.1949,2.251,2.2256,2.2266,2.2434,2.0615,2.0243,2.0873,1.8339,1.7286,1.7485,1.9884,2.1176,2.1626,2.1658,2.1808,2.212,2.2862,2.3135,2.3135,2.9792,2.9792,2.9792,2.9792,2.9792,2.9792,2.9792,2.9792,2.9792,2.9792,2.9792,2.9792,2.9792,2.9792,2.9792,2.9792,2.7983,2.7541,2.9427,2.7644,2.495,2.1549,2.4659,2.4838,2.1199,2.1151,2.2864,2.6515,2.6502,2.7541,2.948,2.7434,2.649,2.6533,2.6533,2.6533,2.6533,2.6533,2.6511,2.6511,2.6476,2.4376,2.1311,2.2897,2.3638,2.3779,2.3579,2.3587,2.3428,2.2523,2.2631,2.2988,2.2988,2.3044,2.3135,2.3096,2.3105,2.3135,2.3135,2.3135,2.3135,2.3135,2.3135,2.3135,2.3135,2.3135,2.3135,2.3135,2.3135,2.3047,2.296,2.1132,1.9579,1.9405,1.7483,1.592,1.5825,1.5832,1.5832,1.5832,1.5832,1.5832,1.5832,1.5832,1.5832,1.5832,1.5832,1.6386,1.7598,1.7692,1.8772,2.1025,2.1203,2.1845,2.296,2.3047,2.2949,2.2568,2.2568,2.2568,2.2493,2.1678,2.1159,2.0829,1.9892,1.8316,1.681,2.1257,2.3065,2.3135,2.3135,2.3135,2.3135,2.3135,2.3135,2.3135,2.9792,2.9792,2.9792,2.9792,2.9792,2.9792,2.9792,2.9792,2.9792,2.9792,2.9792,2.9792,2.9792,2.9792,2.9792,2.9792,2.9391,2.8561,2.7316,2.676,2.6857,2.7805,2.6955,2.6101,2.5254,2.5182,2.5648,2.6528,2.6516,2.6746,2.7169,2.6746,2.6494,2.6533,2.6533,2.6533,2.6533,2.6533,2.6471,2.6514,2.6485,2.602,2.5111,2.3942,2.4471,2.5804,2.5182,2.479,2.4279,2.2516,2.2194,2.251,2.251,2.2803,2.3076,2.2744,2.2881,2.3135,2.3135,2.3135,2.3135,2.3135,2.3135,2.3135,2.3135,2.3135,2.3135,2.3135,2.3135,2.2775,2.1845,2.1293,2.0305,1.8411,1.7684,1.6943,1.592,1.5832,1.5832,1.5832,1.5832,1.5832,1.5832,1.5832,1.5832,1.5832,1.5832,1.6386,1.7598,1.7692,1.8411,1.9852,2.0845,2.1382,2.1667,2.2589,2.3096,2.2998,2.2998,2.2998,2.2921,2.1808,2.1747,2.2454,2.0375,2.0234,2.1632,2.2668,2.3096,2.3135,2.3135,2.3135,2.3135,2.3135,2.3135,2.3135,2.9792,2.9792,2.9792,2.9792,2.9792,2.9792,2.9792,2.9792,2.9792,2.9792,2.9792,2.9792,2.9792,2.9792,2.9792,2.9792,2.9796,2.8837,2.6639,2.6524,2.7471,2.9697,2.8727,2.7567,2.6532,2.6532,2.6462,2.6462,2.6519,2.6489,2.6533,2.6502,2.6489,2.6521,2.6506,2.6519,2.6508,2.6477,2.6506,2.6536,2.6527,2.6482,2.6377,2.5361,2.5183,2.5538,2.5436,2.4799,2.3684,2.185,2.1912,2.2671,2.2671,2.2729,2.2726,2.2812,2.2969,2.3135,2.3135,2.3135,2.3135,2.3135,2.3135,2.3135,2.3135,2.3135,2.3135,2.3135,2.3135,2.2872,2.2306,2.1667,2.0666,1.8864,1.8048,1.7225,1.6015,1.5832,1.5832,1.5832,1.5832,1.5832,1.5832,1.5832,1.5832,1.5832,1.5832,1.6386,1.7598,1.7131,1.7677,1.9405,2.0124,2.0755,2.1293,2.2492,2.3135,2.3135,2.3135,2.3135,2.3047,2.2492,2.2492,2.3047,2.1813,2.1919,2.3135,2.3135,2.3135,2.3135,2.3135,2.3135,2.3135,2.3135,2.3135,2.3135,2.9792,2.9792,2.9792,2.9792,2.9792,2.9792,2.9792,2.9792,2.9792,2.9792,2.9792,2.9792,2.9792,2.9792,2.9792,2.9792,2.9796,2.9051,2.7194,2.7071,2.7866,2.9718,2.9476,2.838,2.6509,2.649,2.6533,2.6533,2.6533,2.6533,2.6533,2.6533,2.6533,2.6521,2.6515,2.6249,2.5928,2.6304,2.6268,2.5984,2.6357,2.6523,2.6511,2.6531,2.5834,2.4945,2.5445,2.4778,2.3434,2.1604,2.1778,2.2661,2.2867,2.2671,2.2551,2.2853,2.3086,2.3135,2.3135,2.3135,2.3135,2.3135,2.3135,2.3135,2.3135,2.3135,2.3135,2.3135,2.3135,2.3135,2.3135,2.2306,2.1212,2.0034,1.8956,1.777,1.6292,1.6103,1.6015,1.5832,1.5832,1.5832,1.5832,1.5832,1.592,1.6109,1.592,1.6386,1.7598,1.6669,1.7023,1.9131,1.9579,2.0305,2.1293,2.2492,2.3135,2.3135,2.3135,2.3135,2.3135,2.3135,2.3135,2.3135,2.3135,2.3135,2.3135,2.3135,2.3135,2.3135,2.3135,2.3135,2.3135,2.3135,2.3135,2.3135,2.9792,2.9792,2.9792,2.9792,2.9792,2.9792,2.9792,2.9792,2.9792,2.9792,2.9792,2.9792,2.9792,2.9792,2.9792,2.9792,2.9796,2.9706,2.9353,2.934,2.9463,2.9796,2.7949,2.682,2.6482,2.6464,2.6533,2.6533,2.6533,2.6533,2.6533,2.6533,2.6533,2.6533,2.6483,2.5431,2.372,2.5685,2.5345,2.3741,2.5704,2.6496,2.6514,2.6508,2.6414,2.6227,2.6295,2.6247,2.5667,2.3474,2.1909,2.1066,2.1826,2.2506,2.2901,2.2685,2.2852,2.3135,2.3135,2.3135,2.3135,2.3135,2.3135,2.3135,2.3135,2.3135,2.3135,2.3135,2.3135,2.3135,2.3135,2.296,2.2492,2.1203,2.0935,2.0034,1.777,1.7412,1.7037,1.592,1.5832,1.5832,1.5832,1.5832,1.6298,1.7318,1.6386,1.6386,1.7598,1.7505,1.7598,1.7956,1.9943,2.1114,2.1293,2.2492,2.3135,2.3135,2.3135,2.3135,2.3135,2.3135,2.3135,2.3135,2.3135,2.3135,2.3135,2.3135,2.3135,2.3135,2.3135,2.3135,2.3135,2.3135,2.3135,2.3135,2.9792,2.9792,2.9792,2.9792,2.9792,2.9792,2.9792,2.9792,2.9792,2.9792,2.9782,2.9821,2.9821,2.9821,2.9821,2.9779,2.982,2.9808,2.9808,2.9808,2.9265,2.8024,2.7017,2.6492,2.6482,2.612,2.5912,2.5917,2.6332,2.6533,2.6533,2.6533,2.6533,2.6521,2.6468,2.5915,2.5034,2.6047,2.59,2.5127,2.6088,2.6506,2.6533,2.6533,2.6533,2.6533,2.6533,2.7285,2.8213,2.7215,2.6332,2.5566,2.4735,2.3826,2.3213,2.3628,2.3487,2.3135,2.3135,2.3135,2.3135,2.3135,2.3135,2.3135,2.3135,2.3135,2.3135,2.3135,2.3135,2.3135,2.3135,2.3135,2.2677,2.148,2.1293,2.0657,1.8948,1.868,1.8495,1.794,1.7848,1.7848,1.7848,1.7848,1.8126,1.868,1.8218,1.8126,1.868,1.868,1.868,1.868,2.0395,2.1293,2.1293,2.2492,2.3135,2.3135,2.3135,2.3135,2.3135,2.3135,2.3135,2.3135,2.3135,2.3135,2.3135,2.3135,2.3135,2.3135,2.3135,2.3135,2.3135,2.3135,2.3135,2.3135]}]]